Wetterdaten: Mittwoch, 02.02.2022
Datum Zeit Temp. I. Temp. A. Feuchte I. Feuchte A. Luftdruck Regen Wind Richtung Richtung Sonnenschein Solar Taupunkt Windchill Windböen
02.02.2022 00:00 22,6 °C 6,9 °C 48 % 78 % 1004,3 hPa 0,0 l/m² 28,3 km/h (5 Bft) W-NW 291 ° 0 min 0 W/m² 3,3 °C -3,3 °C 43,5 km/h (6 Bft)
02.02.2022 00:02 22,6 °C 6,9 °C 48 % 78 % 1004,4 hPa 0,0 l/m² 27,5 km/h (5 Bft) W 273 ° 0 min 0 W/m² 3,3 °C -3,1 °C 41,8 km/h (6 Bft)
02.02.2022 00:03 22,6 °C 6,9 °C 48 % 78 % 1004,3 hPa 0,0 l/m² 33,0 km/h (5 Bft) W 267 ° 0 min 0 W/m² 3,3 °C -4,4 °C 43,5 km/h (6 Bft)
02.02.2022 00:05 22,6 °C 6,8 °C 48 % 78 % 1004,3 hPa 0,0 l/m² 29,0 km/h (5 Bft) W-NW 286 ° 0 min 0 W/m² 3,2 °C -3,6 °C 38,6 km/h (6 Bft)
02.02.2022 00:06 22,6 °C 6,8 °C 48 % 78 % 1004,3 hPa 0,0 l/m² 28,5 km/h (5 Bft) W 275 ° 0 min 0 W/m² 3,2 °C -3,5 °C 40,2 km/h (6 Bft)
02.02.2022 00:08 22,6 °C 6,8 °C 48 % 78 % 1004,2 hPa 0,0 l/m² 28,0 km/h (5 Bft) W 277 ° 0 min 0 W/m² 3,2 °C -3,3 °C 40,2 km/h (6 Bft)
02.02.2022 00:10 22,5 °C 6,8 °C 48 % 77 % 1004,3 hPa 0,0 l/m² 32,9 km/h (5 Bft) W 267 ° 0 min 0 W/m² 3,1 °C -4,5 °C 49,9 km/h (7 Bft)
02.02.2022 00:11 22,5 °C 6,8 °C 48 % 77 % 1004,2 hPa 0,0 l/m² 44,5 km/h (6 Bft) W 276 ° 0 min 0 W/m² 3,1 °C -6,5 °C 54,7 km/h (7 Bft)
02.02.2022 00:13 22,5 °C 6,9 °C 48 % 77 % 1004,3 hPa 0,0 l/m² 37,9 km/h (6 Bft) W-NW 298 ° 0 min 0 W/m² 3,2 °C -5,3 °C 49,9 km/h (7 Bft)
02.02.2022 00:15 22,5 °C 6,9 °C 48 % 77 % 1004,2 hPa 0,0 l/m² 47,8 km/h (6 Bft) W 274 ° 0 min 0 W/m² 3,2 °C -6,8 °C 56,3 km/h (7 Bft)
02.02.2022 00:17 22,5 °C 6,9 °C 48 % 77 % 1004,1 hPa 0,0 l/m² 34,0 km/h (5 Bft) W 267 ° 0 min 0 W/m² 3,2 °C -4,6 °C 43,5 km/h (6 Bft)
02.02.2022 00:19 22,5 °C 6,8 °C 48 % 77 % 1004,2 hPa 0,0 l/m² 28,0 km/h (5 Bft) W-NW 295 ° 0 min 0 W/m² 3,1 °C -3,3 °C 37,0 km/h (5 Bft)
02.02.2022 00:21 22,5 °C 6,8 °C 48 % 77 % 1004,2 hPa 0,0 l/m² 29,2 km/h (5 Bft) W 261 ° 0 min 0 W/m² 3,1 °C -3,6 °C 43,5 km/h (6 Bft)
02.02.2022 00:23 22,5 °C 6,7 °C 48 % 77 % 1004,4 hPa 0,0 l/m² 35,6 km/h (5 Bft) W 277 ° 0 min 0 W/m² 3,0 °C -5,2 °C 61,2 km/h (7 Bft)
02.02.2022 00:24 22,5 °C 6,7 °C 48 % 77 % 1004,4 hPa 0,0 l/m² 42,6 km/h (6 Bft) W 272 ° 0 min 0 W/m² 3,0 °C -6,4 °C 51,5 km/h (7 Bft)
02.02.2022 00:25 22,4 °C 6,7 °C 48 % 77 % 1004,2 hPa 0,0 l/m² 34,6 km/h (5 Bft) W 273 ° 0 min 0 W/m² 3,0 °C -5,0 °C 45,1 km/h (6 Bft)
02.02.2022 00:27 22,5 °C 6,7 °C 48 % 77 % 1004,4 hPa 0,0 l/m² 40,7 km/h (6 Bft) W 271 ° 0 min 0 W/m² 3,0 °C -6,1 °C 53,1 km/h (7 Bft)
02.02.2022 00:29 22,5 °C 6,7 °C 48 % 77 % 1004,3 hPa 0,0 l/m² 46,1 km/h (6 Bft) W-NW 283 ° 0 min 0 W/m² 3,0 °C -6,9 °C 61,2 km/h (7 Bft)
02.02.2022 00:31 22,5 °C 6,7 °C 48 % 77 % 1004,3 hPa 0,0 l/m² 36,3 km/h (5 Bft) W 267 ° 0 min 0 W/m² 3,0 °C -5,3 °C 45,1 km/h (6 Bft)
02.02.2022 00:32 22,5 °C 6,6 °C 48 % 77 % 1004,3 hPa 0,0 l/m² 41,8 km/h (6 Bft) W-NW 288 ° 0 min 0 W/m² 2,9 °C -6,4 °C 51,5 km/h (7 Bft)
02.02.2022 00:34 22,5 °C 6,6 °C 48 % 77 % 1004,3 hPa 0,0 l/m² 37,6 km/h (5 Bft) W 263 ° 0 min 0 W/m² 2,9 °C -5,7 °C 43,5 km/h (6 Bft)
02.02.2022 00:36 22,5 °C 6,6 °C 48 % 77 % 1004,2 hPa 0,0 l/m² 29,0 km/h (5 Bft) W 281 ° 0 min 0 W/m² 2,9 °C -3,9 °C 41,8 km/h (6 Bft)
02.02.2022 00:38 22,5 °C 6,6 °C 48 % 77 % 1004,3 hPa 0,0 l/m² 30,8 km/h (5 Bft) W 268 ° 0 min 0 W/m² 2,9 °C -4,3 °C 45,1 km/h (6 Bft)
02.02.2022 00:40 22,5 °C 6,6 °C 48 % 77 % 1004,4 hPa 0,0 l/m² 34,5 km/h (5 Bft) W 274 ° 0 min 0 W/m² 2,9 °C -5,1 °C 51,5 km/h (7 Bft)
02.02.2022 00:42 22,5 °C 6,5 °C 48 % 77 % 1004,3 hPa 0,0 l/m² 36,7 km/h (5 Bft) W-NW 284 ° 0 min 0 W/m² 2,8 °C -5,7 °C 48,3 km/h (6 Bft)
02.02.2022 00:43 22,5 °C 6,4 °C 48 % 78 % 1004,3 hPa 0,0 l/m² 41,4 km/h (6 Bft) W 278 ° 0 min 0 W/m² 2,8 °C -6,7 °C 48,3 km/h (6 Bft)
02.02.2022 00:45 22,5 °C 6,5 °C 48 % 77 % 1004,3 hPa 0,0 l/m² 35,3 km/h (5 Bft) W 277 ° 0 min 0 W/m² 2,8 °C -5,4 °C 46,7 km/h (6 Bft)
02.02.2022 00:46 22,4 °C 6,4 °C 48 % 78 % 1004,3 hPa 0,0 l/m² 33,2 km/h (5 Bft) W 273 ° 0 min 0 W/m² 2,8 °C -5,1 °C 43,5 km/h (6 Bft)
02.02.2022 00:48 22,4 °C 6,5 °C 48 % 78 % 1004,4 hPa 0,0 l/m² 35,4 km/h (5 Bft) W 277 ° 0 min 0 W/m² 2,9 °C -5,5 °C 51,5 km/h (7 Bft)
02.02.2022 00:50 22,4 °C 6,4 °C 48 % 78 % 1004,3 hPa 0,0 l/m² 34,0 km/h (5 Bft) W 276 ° 0 min 0 W/m² 2,8 °C -5,3 °C 48,3 km/h (6 Bft)
02.02.2022 00:52 22,4 °C 6,4 °C 48 % 78 % 1004,4 hPa 0,0 l/m² 36,2 km/h (5 Bft) W 269 ° 0 min 0 W/m² 2,8 °C -5,8 °C 45,1 km/h (6 Bft)
02.02.2022 00:53 22,4 °C 6,4 °C 48 % 78 % 1004,4 hPa 0,0 l/m² 36,7 km/h (5 Bft) W 267 ° 0 min 0 W/m² 2,8 °C -5,9 °C 45,1 km/h (6 Bft)
02.02.2022 00:55 22,4 °C 6,4 °C 48 % 78 % 1004,4 hPa 0,0 l/m² 35,5 km/h (5 Bft) W 277 ° 0 min 0 W/m² 2,8 °C -5,6 °C 45,1 km/h (6 Bft)
02.02.2022 00:57 22,4 °C 6,4 °C 48 % 78 % 1004,4 hPa 0,0 l/m² 31,7 km/h (5 Bft) W 270 ° 0 min 0 W/m² 2,8 °C -4,8 °C 41,8 km/h (6 Bft)
02.02.2022 00:59 22,5 °C 6,4 °C 48 % 78 % 1004,3 hPa 0,0 l/m² 30,7 km/h (5 Bft) W 272 ° 0 min 0 W/m² 2,8 °C -4,6 °C 41,8 km/h (6 Bft)
02.02.2022 01:01 22,5 °C 6,4 °C 48 % 78 % 1004,4 hPa 0,0 l/m² 29,6 km/h (5 Bft) W 275 ° 0 min 0 W/m² 2,8 °C -4,3 °C 38,6 km/h (6 Bft)
02.02.2022 01:02 22,5 °C 6,4 °C 48 % 78 % 1004,4 hPa 0,0 l/m² 30,4 km/h (5 Bft) W-SW 254 ° 0 min 0 W/m² 2,8 °C -4,5 °C 38,6 km/h (6 Bft)
02.02.2022 01:04 22,4 °C 6,4 °C 48 % 78 % 1004,3 hPa 0,0 l/m² 35,2 km/h (5 Bft) W-NW 289 ° 0 min 0 W/m² 2,8 °C -5,6 °C 46,7 km/h (6 Bft)
02.02.2022 01:06 22,5 °C 6,4 °C 48 % 78 % 1004,4 hPa 0,0 l/m² 34,0 km/h (5 Bft) W 281 ° 0 min 0 W/m² 2,8 °C -5,3 °C 45,1 km/h (6 Bft)
02.02.2022 01:08 22,5 °C 6,5 °C 48 % 77 % 1004,4 hPa 0,0 l/m² 39,2 km/h (6 Bft) NW 313 ° 0 min 0 W/m² 2,8 °C -6,2 °C 49,9 km/h (7 Bft)
02.02.2022 01:10 22,5 °C 6,5 °C 48 % 77 % 1004,5 hPa 0,0 l/m² 38,1 km/h (6 Bft) W 269 ° 0 min 0 W/m² 2,8 °C -6,0 °C 54,7 km/h (7 Bft)
02.02.2022 01:12 22,5 °C 6,6 °C 48 % 77 % 1004,5 hPa 0,0 l/m² 33,9 km/h (5 Bft) W 276 ° 0 min 0 W/m² 2,9 °C -5,0 °C 45,1 km/h (6 Bft)
02.02.2022 01:13 22,5 °C 6,6 °C 48 % 77 % 1004,5 hPa 0,0 l/m² 32,9 km/h (5 Bft) W 271 ° 0 min 0 W/m² 2,9 °C -4,8 °C 40,2 km/h (6 Bft)
02.02.2022 01:15 22,5 °C 6,6 °C 48 % 77 % 1004,4 hPa 0,0 l/m² 35,7 km/h (5 Bft) W-NW 300 ° 0 min 0 W/m² 2,9 °C -5,4 °C 51,5 km/h (7 Bft)
02.02.2022 01:17 22,5 °C 6,6 °C 48 % 77 % 1004,6 hPa 0,0 l/m² 35,4 km/h (5 Bft) W 279 ° 0 min 0 W/m² 2,9 °C -5,3 °C 49,9 km/h (7 Bft)
02.02.2022 01:19 22,5 °C 6,6 °C 48 % 78 % 1004,6 hPa 0,0 l/m² 33,5 km/h (5 Bft) W 277 ° 0 min 0 W/m² 3,0 °C -4,9 °C 43,5 km/h (6 Bft)
02.02.2022 01:21 22,5 °C 6,6 °C 48 % 78 % 1004,7 hPa 0,0 l/m² 36,8 km/h (5 Bft) W 273 ° 0 min 0 W/m² 3,0 °C -5,6 °C 51,5 km/h (7 Bft)
02.02.2022 01:23 22,5 °C 6,7 °C 48 % 78 % 1004,7 hPa 0,0 l/m² 34,9 km/h (5 Bft) W-NW 289 ° 0 min 0 W/m² 3,1 °C -5,1 °C 43,5 km/h (6 Bft)
02.02.2022 01:25 22,6 °C 6,6 °C 48 % 77 % 1004,7 hPa 0,0 l/m² 39,4 km/h (6 Bft) W 275 ° 0 min 0 W/m² 2,9 °C -6,0 °C 49,9 km/h (7 Bft)
02.02.2022 01:27 22,5 °C 6,6 °C 48 % 78 % 1004,8 hPa 0,0 l/m² 36,2 km/h (5 Bft) W 271 ° 0 min 0 W/m² 3,0 °C -5,5 °C 45,1 km/h (6 Bft)
02.02.2022 01:29 22,6 °C 6,6 °C 48 % 77 % 1004,6 hPa 0,0 l/m² 39,3 km/h (6 Bft) W 275 ° 0 min 0 W/m² 2,9 °C -6,0 °C 56,3 km/h (7 Bft)
02.02.2022 01:31 22,5 °C 6,6 °C 48 % 77 % 1004,7 hPa 0,0 l/m² 39,5 km/h (6 Bft) W-NW 283 ° 0 min 0 W/m² 2,9 °C -6,1 °C 53,1 km/h (7 Bft)
02.02.2022 01:33 22,5 °C 6,6 °C 48 % 77 % 1004,8 hPa 0,0 l/m² 42,9 km/h (6 Bft) W-NW 297 ° 0 min 0 W/m² 2,9 °C -6,6 °C 54,7 km/h (7 Bft)
02.02.2022 01:34 22,5 °C 6,6 °C 48 % 77 % 1004,8 hPa 0,0 l/m² 39,4 km/h (6 Bft) W 263 ° 0 min 0 W/m² 2,9 °C -6,0 °C 46,7 km/h (6 Bft)
02.02.2022 01:35 22,4 °C 6,6 °C 48 % 77 % 1004,8 hPa 0,0 l/m² 32,7 km/h (5 Bft) W 275 ° 0 min 0 W/m² 2,9 °C -4,7 °C 43,5 km/h (6 Bft)
02.02.2022 01:37 22,5 °C 6,6 °C 48 % 78 % 1004,8 hPa 0,0 l/m² 40,8 km/h (6 Bft) W 266 ° 0 min 0 W/m² 3,0 °C -6,3 °C 61,2 km/h (7 Bft)
02.02.2022 01:39 22,5 °C 6,5 °C 48 % 78 % 1004,8 hPa 0,0 l/m² 35,0 km/h (5 Bft) W 271 ° 0 min 0 W/m² 2,9 °C -5,4 °C 48,3 km/h (6 Bft)
02.02.2022 01:41 22,5 °C 6,4 °C 48 % 78 % 1004,7 hPa 0,0 l/m² 43,1 km/h (6 Bft) W 279 ° 0 min 0 W/m² 2,8 °C -6,9 °C 57,9 km/h (7 Bft)
02.02.2022 01:42 22,5 °C 6,4 °C 48 % 78 % 1004,8 hPa 0,0 l/m² 39,3 km/h (6 Bft) W 276 ° 0 min 0 W/m² 2,8 °C -6,3 °C 51,5 km/h (7 Bft)
02.02.2022 01:44 22,5 °C 6,4 °C 48 % 78 % 1004,8 hPa 0,0 l/m² 29,0 km/h (5 Bft) W-SW 249 ° 0 min 0 W/m² 2,8 °C -4,2 °C 38,6 km/h (6 Bft)
02.02.2022 01:46 22,5 °C 6,4 °C 48 % 78 % 1004,8 hPa 0,0 l/m² 31,6 km/h (5 Bft) W 277 ° 0 min 0 W/m² 2,8 °C -4,8 °C 45,1 km/h (6 Bft)
02.02.2022 01:48 22,5 °C 6,3 °C 48 % 78 % 1004,8 hPa 0,0 l/m² 30,0 km/h (5 Bft) W-SW 248 ° 0 min 0 W/m² 2,8 °C -4,5 °C 45,1 km/h (6 Bft)
02.02.2022 01:50 22,5 °C 6,3 °C 48 % 77 % 1004,8 hPa 0,0 l/m² 30,8 km/h (5 Bft) W 274 ° 0 min 0 W/m² 2,6 °C -4,7 °C 46,7 km/h (6 Bft)
02.02.2022 01:52 22,5 °C 6,4 °C 48 % 77 % 1004,8 hPa 0,0 l/m² 33,0 km/h (5 Bft) W 276 ° 0 min 0 W/m² 2,7 °C -5,1 °C 49,9 km/h (7 Bft)
02.02.2022 01:53 22,5 °C 6,4 °C 48 % 77 % 1004,8 hPa 0,0 l/m² 38,3 km/h (6 Bft) W 263 ° 0 min 0 W/m² 2,7 °C -6,2 °C 54,7 km/h (7 Bft)
02.02.2022 01:55 22,5 °C 6,4 °C 48 % 77 % 1004,8 hPa 0,0 l/m² 30,9 km/h (5 Bft) W-SW 256 ° 0 min 0 W/m² 2,7 °C -4,6 °C 45,1 km/h (6 Bft)
02.02.2022 01:57 22,5 °C 6,4 °C 48 % 77 % 1004,9 hPa 0,0 l/m² 29,9 km/h (5 Bft) W-SW 253 ° 0 min 0 W/m² 2,7 °C -4,4 °C 43,5 km/h (6 Bft)
02.02.2022 01:59 22,5 °C 6,4 °C 48 % 77 % 1004,9 hPa 0,0 l/m² 33,4 km/h (5 Bft) W 264 ° 0 min 0 W/m² 2,7 °C -5,2 °C 54,7 km/h (7 Bft)
02.02.2022 02:01 22,5 °C 6,4 °C 48 % 77 % 1004,9 hPa 0,0 l/m² 32,8 km/h (5 Bft) W-SW 238 ° 0 min 0 W/m² 2,7 °C -5,1 °C 48,3 km/h (6 Bft)
02.02.2022 02:02 22,5 °C 6,4 °C 48 % 77 % 1004,9 hPa 0,0 l/m² 46,8 km/h (6 Bft) W-NW 288 ° 0 min 0 W/m² 2,7 °C -7,5 °C 56,3 km/h (7 Bft)
02.02.2022 02:03 22,5 °C 6,5 °C 48 % 76 % 1004,9 hPa 0,0 l/m² 42,8 km/h (6 Bft) W 269 ° 0 min 0 W/m² 2,6 °C -6,7 °C 48,3 km/h (6 Bft)
02.02.2022 02:05 22,5 °C 6,5 °C 48 % 76 % 1005,0 hPa 0,0 l/m² 35,8 km/h (5 Bft) W 271 ° 0 min 0 W/m² 2,6 °C -5,5 °C 53,1 km/h (7 Bft)
02.02.2022 02:07 22,5 °C 6,6 °C 48 % 76 % 1005,0 hPa 0,0 l/m² 35,6 km/h (5 Bft) W 269 ° 0 min 0 W/m² 2,7 °C -5,4 °C 46,7 km/h (6 Bft)
02.02.2022 02:09 22,5 °C 6,5 °C 48 % 76 % 1005,0 hPa 0,0 l/m² 32,5 km/h (5 Bft) SW 222 ° 0 min 0 W/m² 2,6 °C -4,8 °C 51,5 km/h (7 Bft)
02.02.2022 02:11 22,5 °C 6,5 °C 48 % 76 % 1005,0 hPa 0,0 l/m² 40,8 km/h (6 Bft) W 269 ° 0 min 0 W/m² 2,6 °C -6,4 °C 57,9 km/h (7 Bft)
02.02.2022 02:13 22,5 °C 6,5 °C 48 % 76 % 1005,0 hPa 0,0 l/m² 38,8 km/h (6 Bft) W 268 ° 0 min 0 W/m² 2,6 °C -6,1 °C 46,7 km/h (6 Bft)
02.02.2022 02:14 22,5 °C 6,5 °C 48 % 76 % 1005,0 hPa 0,0 l/m² 39,3 km/h (6 Bft) W-SW 256 ° 0 min 0 W/m² 2,6 °C -6,2 °C 48,3 km/h (6 Bft)
02.02.2022 02:15 22,5 °C 6,6 °C 48 % 76 % 1004,9 hPa 0,0 l/m² 34,7 km/h (5 Bft) W 278 ° 0 min 0 W/m² 2,7 °C -5,2 °C 41,8 km/h (6 Bft)
02.02.2022 02:17 22,5 °C 6,5 °C 48 % 76 % 1004,9 hPa 0,0 l/m² 34,3 km/h (5 Bft) W 273 ° 0 min 0 W/m² 2,6 °C -5,2 °C 46,7 km/h (6 Bft)
02.02.2022 02:19 22,5 °C 6,5 °C 48 % 76 % 1004,9 hPa 0,0 l/m² 35,3 km/h (5 Bft) W 267 ° 0 min 0 W/m² 2,6 °C -5,4 °C 43,5 km/h (6 Bft)
02.02.2022 02:21 22,4 °C 6,4 °C 48 % 76 % 1004,9 hPa 0,0 l/m² 34,3 km/h (5 Bft) W 276 ° 0 min 0 W/m² 2,5 °C -5,4 °C 46,7 km/h (6 Bft)
02.02.2022 02:23 22,4 °C 6,4 °C 48 % 76 % 1005,1 hPa 0,0 l/m² 28,9 km/h (5 Bft) W 279 ° 0 min 0 W/m² 2,5 °C -4,1 °C 43,5 km/h (6 Bft)
02.02.2022 02:24 22,4 °C 6,4 °C 48 % 76 % 1005,1 hPa 0,0 l/m² 36,5 km/h (5 Bft) W 263 ° 0 min 0 W/m² 2,5 °C -5,8 °C 45,1 km/h (6 Bft)
02.02.2022 02:25 22,4 °C 6,4 °C 48 % 76 % 1005,0 hPa 0,0 l/m² 44,1 km/h (6 Bft) W 267 ° 0 min 0 W/m² 2,5 °C -7,1 °C 51,5 km/h (7 Bft)
02.02.2022 02:27 22,4 °C 6,4 °C 48 % 76 % 1005,0 hPa 0,0 l/m² 38,5 km/h (6 Bft) W 261 ° 0 min 0 W/m² 2,5 °C -6,2 °C 49,9 km/h (7 Bft)
02.02.2022 02:29 22,5 °C 6,4 °C 48 % 75 % 1004,9 hPa 0,0 l/m² 35,7 km/h (5 Bft) W 279 ° 0 min 0 W/m² 2,3 °C -5,7 °C 48,3 km/h (6 Bft)
02.02.2022 02:31 22,5 °C 6,5 °C 48 % 75 % 1004,9 hPa 0,0 l/m² 36,9 km/h (5 Bft) W 274 ° 0 min 0 W/m² 2,4 °C -5,7 °C 49,9 km/h (7 Bft)
02.02.2022 02:33 22,4 °C 6,5 °C 48 % 74 % 1005,0 hPa 0,0 l/m² 39,8 km/h (6 Bft) W 267 ° 0 min 0 W/m² 2,2 °C -6,3 °C 49,9 km/h (7 Bft)
02.02.2022 02:34 22,4 °C 6,6 °C 48 % 74 % 1005,0 hPa 0,0 l/m² 35,1 km/h (5 Bft) SW 234 ° 0 min 0 W/m² 2,3 °C -5,3 °C 49,9 km/h (7 Bft)
02.02.2022 02:35 22,4 °C 6,6 °C 48 % 74 % 1005,0 hPa 0,0 l/m² 41,1 km/h (6 Bft) W 266 ° 0 min 0 W/m² 2,3 °C -6,3 °C 53,1 km/h (7 Bft)
02.02.2022 02:37 22,4 °C 6,6 °C 48 % 74 % 1005,1 hPa 0,0 l/m² 34,4 km/h (5 Bft) W 269 ° 0 min 0 W/m² 2,3 °C -5,1 °C 49,9 km/h (7 Bft)
02.02.2022 02:39 22,4 °C 6,6 °C 48 % 74 % 1005,1 hPa 0,0 l/m² 37,1 km/h (5 Bft) W 275 ° 0 min 0 W/m² 2,3 °C -5,6 °C 46,7 km/h (6 Bft)
02.02.2022 02:41 22,4 °C 6,6 °C 48 % 74 % 1005,1 hPa 0,0 l/m² 39,7 km/h (6 Bft) W 259 ° 0 min 0 W/m² 2,3 °C -6,1 °C 54,7 km/h (7 Bft)
02.02.2022 02:42 22,4 °C 6,6 °C 48 % 73 % 1005,1 hPa 0,0 l/m² 48,6 km/h (6 Bft) W 277 ° 0 min 0 W/m² 2,1 °C -7,4 °C 62,8 km/h (7 Bft)
02.02.2022 02:44 22,4 °C 6,6 °C 48 % 73 % 1005,2 hPa 0,0 l/m² 39,0 km/h (6 Bft) W-SW 256 ° 0 min 0 W/m² 2,1 °C -6,0 °C 53,1 km/h (7 Bft)
02.02.2022 02:46 22,4 °C 6,6 °C 48 % 73 % 1005,2 hPa 0,0 l/m² 36,4 km/h (5 Bft) W 265 ° 0 min 0 W/m² 2,1 °C -5,5 °C 51,5 km/h (7 Bft)
02.02.2022 02:48 22,4 °C 6,6 °C 48 % 73 % 1005,1 hPa 0,0 l/m² 42,4 km/h (6 Bft) W 276 ° 0 min 0 W/m² 2,1 °C -6,5 °C 49,9 km/h (7 Bft)
02.02.2022 02:50 22,4 °C 6,6 °C 48 % 73 % 1005,0 hPa 0,0 l/m² 39,3 km/h (6 Bft) W-NW 299 ° 0 min 0 W/m² 2,1 °C -6,0 °C 56,3 km/h (7 Bft)
02.02.2022 02:52 22,4 °C 6,6 °C 48 % 73 % 1005,0 hPa 0,0 l/m² 32,7 km/h (5 Bft) W 276 ° 0 min 0 W/m² 2,1 °C -4,7 °C 41,8 km/h (6 Bft)
02.02.2022 02:53 22,4 °C 6,6 °C 48 % 73 % 1005,0 hPa 0,0 l/m² 42,6 km/h (6 Bft) W 273 ° 0 min 0 W/m² 2,1 °C -6,6 °C 49,9 km/h (7 Bft)
02.02.2022 02:54 22,4 °C 6,6 °C 48 % 73 % 1005,0 hPa 0,0 l/m² 40,7 km/h (6 Bft) W 274 ° 0 min 0 W/m² 2,1 °C -6,3 °C 53,1 km/h (7 Bft)
02.02.2022 02:56 22,4 °C 6,6 °C 48 % 73 % 1004,9 hPa 0,0 l/m² 35,9 km/h (5 Bft) W 267 ° 0 min 0 W/m² 2,1 °C -5,4 °C 48,3 km/h (6 Bft)
02.02.2022 02:58 22,4 °C 6,6 °C 48 % 73 % 1004,9 hPa 0,0 l/m² 41,9 km/h (6 Bft) W 277 ° 0 min 0 W/m² 2,1 °C -6,5 °C 54,7 km/h (7 Bft)
02.02.2022 03:00 22,4 °C 6,6 °C 48 % 73 % 1004,9 hPa 0,0 l/m² 34,1 km/h (5 Bft) W 269 ° 0 min 0 W/m² 2,1 °C -5,0 °C 48,3 km/h (6 Bft)
02.02.2022 03:01 22,4 °C 6,6 °C 48 % 73 % 1005,0 hPa 0,0 l/m² 29,0 km/h (5 Bft) W 270 ° 0 min 0 W/m² 2,1 °C -3,9 °C 45,1 km/h (6 Bft)
02.02.2022 03:06 22,4 °C 6,4 °C 48 % 73 % 1005,0 hPa 0,0 l/m² 47,1 km/h (6 Bft) W-NW 290 ° 0 min 0 W/m² 1,9 °C -7,5 °C 53,1 km/h (7 Bft)
02.02.2022 03:08 22,4 °C 6,4 °C 48 % 73 % 1005,0 hPa 0,0 l/m² 40,3 km/h (6 Bft) W 274 ° 0 min 0 W/m² 1,9 °C -6,5 °C 53,1 km/h (7 Bft)
02.02.2022 03:09 22,4 °C 6,4 °C 48 % 73 % 1005,0 hPa 0,0 l/m² 34,6 km/h (5 Bft) W 277 ° 0 min 0 W/m² 1,9 °C -5,4 °C 43,5 km/h (6 Bft)
02.02.2022 03:11 22,4 °C 6,4 °C 48 % 74 % 1004,8 hPa 0,0 l/m² 37,0 km/h (5 Bft) W-NW 286 ° 0 min 0 W/m² 2,1 °C -5,9 °C 54,7 km/h (7 Bft)
02.02.2022 03:12 22,4 °C 6,4 °C 48 % 73 % 1004,8 hPa 0,0 l/m² 44,4 km/h (6 Bft) W 275 ° 0 min 0 W/m² 1,9 °C -7,1 °C 56,3 km/h (7 Bft)
02.02.2022 03:14 22,4 °C 6,3 °C 48 % 74 % 1005,0 hPa 0,0 l/m² 39,0 km/h (6 Bft) W 276 ° 0 min 0 W/m² 2,0 °C -6,4 °C 54,7 km/h (7 Bft)
02.02.2022 03:15 22,4 °C 6,4 °C 48 % 74 % 1005,0 hPa 0,0 l/m² 40,5 km/h (6 Bft) W 270 ° 0 min 0 W/m² 2,1 °C -6,5 °C 48,3 km/h (6 Bft)
02.02.2022 03:16 22,4 °C 6,3 °C 48 % 74 % 1005,1 hPa 0,0 l/m² 44,1 km/h (6 Bft) W-SW 257 ° 0 min 0 W/m² 2,0 °C -7,2 °C 53,1 km/h (7 Bft)
02.02.2022 03:18 22,4 °C 6,4 °C 48 % 74 % 1005,1 hPa 0,0 l/m² 37,3 km/h (5 Bft) W 273 ° 0 min 0 W/m² 2,1 °C -6,0 °C 46,7 km/h (6 Bft)
02.02.2022 03:20 22,4 °C 6,3 °C 48 % 74 % 1005,2 hPa 0,0 l/m² 36,4 km/h (5 Bft) W 264 ° 0 min 0 W/m² 2,0 °C -5,9 °C 49,9 km/h (7 Bft)
02.02.2022 03:21 22,4 °C 6,3 °C 48 % 74 % 1005,1 hPa 0,0 l/m² 37,2 km/h (5 Bft) W 273 ° 0 min 0 W/m² 2,0 °C -6,1 °C 41,8 km/h (6 Bft)
02.02.2022 03:22 22,4 °C 6,3 °C 48 % 74 % 1005,2 hPa 0,0 l/m² 34,1 km/h (5 Bft) NW 308 ° 0 min 0 W/m² 2,0 °C -5,5 °C 43,5 km/h (6 Bft)
02.02.2022 03:24 22,4 °C 6,3 °C 48 % 74 % 1005,1 hPa 0,0 l/m² 33,3 km/h (5 Bft) W 272 ° 0 min 0 W/m² 2,0 °C -5,3 °C 48,3 km/h (6 Bft)
02.02.2022 03:25 22,4 °C 6,3 °C 48 % 74 % 1005,0 hPa 0,0 l/m² 29,5 km/h (5 Bft) W-NW 286 ° 0 min 0 W/m² 2,0 °C -4,4 °C 45,1 km/h (6 Bft)
02.02.2022 03:27 22,4 °C 6,3 °C 48 % 74 % 1004,9 hPa 0,0 l/m² 37,7 km/h (5 Bft) W-NW 286 ° 0 min 0 W/m² 2,0 °C -6,2 °C 57,9 km/h (7 Bft)
02.02.2022 03:29 22,4 °C 6,3 °C 48 % 74 % 1004,9 hPa 0,0 l/m² 41,7 km/h (6 Bft) W-NW 285 ° 0 min 0 W/m² 2,0 °C -6,9 °C 51,5 km/h (7 Bft)
02.02.2022 03:30 22,4 °C 6,3 °C 48 % 74 % 1004,9 hPa 0,0 l/m² 38,6 km/h (6 Bft) W 281 ° 0 min 0 W/m² 2,0 °C -6,4 °C 48,3 km/h (6 Bft)
02.02.2022 03:32 22,4 °C 6,3 °C 48 % 74 % 1004,9 hPa 0,0 l/m² 34,5 km/h (5 Bft) W-NW 286 ° 0 min 0 W/m² 2,0 °C -5,6 °C 45,1 km/h (6 Bft)
02.02.2022 03:33 22,4 °C 6,3 °C 48 % 74 % 1005,1 hPa 0,0 l/m² 33,6 km/h (5 Bft) W 264 ° 0 min 0 W/m² 2,0 °C -5,4 °C 41,8 km/h (6 Bft)
02.02.2022 03:35 22,4 °C 6,3 °C 48 % 74 % 1005,1 hPa 0,0 l/m² 38,1 km/h (6 Bft) W-NW 282 ° 0 min 0 W/m² 2,0 °C -6,3 °C 49,9 km/h (7 Bft)
02.02.2022 03:36 22,3 °C 6,3 °C 48 % 74 % 1005,1 hPa 0,0 l/m² 39,0 km/h (6 Bft) W 278 ° 0 min 0 W/m² 2,0 °C -6,4 °C 56,3 km/h (7 Bft)
02.02.2022 03:38 22,4 °C 6,3 °C 48 % 74 % 1005,1 hPa 0,0 l/m² 40,5 km/h (6 Bft) W 273 ° 0 min 0 W/m² 2,0 °C -6,7 °C 54,7 km/h (7 Bft)
02.02.2022 03:39 22,3 °C 6,3 °C 48 % 74 % 1005,0 hPa 0,0 l/m² 45,1 km/h (6 Bft) W 275 ° 0 min 0 W/m² 2,0 °C -7,4 °C 56,3 km/h (7 Bft)
02.02.2022 03:40 22,4 °C 6,3 °C 48 % 74 % 1005,1 hPa 0,0 l/m² 40,4 km/h (6 Bft) W 268 ° 0 min 0 W/m² 2,0 °C -6,7 °C 53,1 km/h (7 Bft)
02.02.2022 03:42 22,3 °C 6,2 °C 48 % 75 % 1005,1 hPa 0,0 l/m² 27,5 km/h (5 Bft) W-NW 283 ° 0 min 0 W/m² 2,1 °C -4,0 °C 41,8 km/h (6 Bft)
02.02.2022 03:43 22,3 °C 6,2 °C 48 % 75 % 1005,1 hPa 0,0 l/m² 41,2 km/h (6 Bft) W 276 ° 0 min 0 W/m² 2,1 °C -6,9 °C 48,3 km/h (6 Bft)
02.02.2022 03:45 22,4 °C 6,2 °C 48 % 75 % 1005,1 hPa 0,0 l/m² 25,3 km/h (4 Bft) W 272 ° 0 min 0 W/m² 2,1 °C -3,4 °C 40,2 km/h (6 Bft)
02.02.2022 03:46 22,3 °C 6,2 °C 48 % 75 % 1005,1 hPa 0,0 l/m² 23,7 km/h (4 Bft) NW 314 ° 0 min 0 W/m² 2,1 °C -2,9 °C 37,0 km/h (5 Bft)
02.02.2022 03:47 22,3 °C 6,2 °C 48 % 75 % 1005,1 hPa 0,0 l/m² 12,3 km/h (2 Bft) W 266 ° 0 min 0 W/m² 2,1 °C 2,0 °C 19,3 km/h (3 Bft)
02.02.2022 03:49 22,4 °C 6,2 °C 48 % 76 % 1005,2 hPa 0,0 l/m² 21,4 km/h (4 Bft) W 271 ° 0 min 0 W/m² 2,3 °C -2,1 °C 40,2 km/h (6 Bft)
02.02.2022 03:50 22,4 °C 6,1 °C 48 % 76 % 1005,1 hPa 0,0 l/m² 23,8 km/h (4 Bft) W 273 ° 0 min 0 W/m² 2,2 °C -3,1 °C 32,2 km/h (5 Bft)
02.02.2022 03:52 22,3 °C 6,1 °C 48 % 77 % 1005,1 hPa 0,0 l/m² 33,0 km/h (5 Bft) W-NW 283 ° 0 min 0 W/m² 2,4 °C -5,5 °C 46,7 km/h (6 Bft)
02.02.2022 03:53 22,3 °C 6,0 °C 48 % 77 % 1005,1 hPa 0,0 l/m² 44,2 km/h (6 Bft) W 277 ° 0 min 0 W/m² 2,3 °C -7,7 °C 56,3 km/h (7 Bft)
02.02.2022 03:55 22,3 °C 5,9 °C 48 % 78 % 1005,1 hPa 0,0 l/m² 33,7 km/h (5 Bft) W-NW 290 ° 0 min 0 W/m² 2,4 °C -6,0 °C 45,1 km/h (6 Bft)
02.02.2022 03:57 22,3 °C 5,8 °C 48 % 79 % 1005,2 hPa 0,0 l/m² 31,7 km/h (5 Bft) W-NW 292 ° 0 min 0 W/m² 2,4 °C -5,7 °C 46,7 km/h (6 Bft)
02.02.2022 03:58 22,3 °C 5,8 °C 48 % 79 % 1005,4 hPa 0,0 l/m² 30,5 km/h (5 Bft) W 269 ° 0 min 0 W/m² 2,4 °C -5,4 °C 38,6 km/h (6 Bft)
02.02.2022 04:00 22,3 °C 5,7 °C 48 % 79 % 1005,4 hPa 0,0 l/m² 36,1 km/h (5 Bft) W 275 ° 0 min 0 W/m² 2,3 °C -6,8 °C 49,9 km/h (7 Bft)
02.02.2022 04:01 22,3 °C 5,6 °C 48 % 79 % 1005,3 hPa 0,0 l/m² 41,8 km/h (6 Bft) W 271 ° 0 min 0 W/m² 2,3 °C -7,9 °C 53,1 km/h (7 Bft)
02.02.2022 04:03 22,3 °C 5,6 °C 48 % 80 % 1005,2 hPa 0,0 l/m² 40,9 km/h (6 Bft) W 279 ° 0 min 0 W/m² 2,4 °C -7,8 °C 51,5 km/h (7 Bft)
02.02.2022 04:05 22,3 °C 5,6 °C 48 % 80 % 1005,2 hPa 0,0 l/m² 43,5 km/h (6 Bft) W 277 ° 0 min 0 W/m² 2,4 °C -8,2 °C 54,7 km/h (7 Bft)
02.02.2022 04:07 22,3 °C 5,5 °C 48 % 80 % 1005,3 hPa 0,0 l/m² 34,9 km/h (5 Bft) W-NW 283 ° 0 min 0 W/m² 2,3 °C -6,8 °C 49,9 km/h (7 Bft)
02.02.2022 04:08 22,4 °C 5,4 °C 48 % 80 % 1005,2 hPa 0,0 l/m² 40,3 km/h (6 Bft) W-NW 287 ° 0 min 0 W/m² 2,2 °C -8,0 °C 53,1 km/h (7 Bft)
02.02.2022 04:10 22,4 °C 5,4 °C 48 % 79 % 1005,3 hPa 0,0 l/m² 50,6 km/h (7 Bft) W 271 ° 0 min 0 W/m² 2,1 °C -9,4 °C 59,5 km/h (7 Bft)
02.02.2022 04:11 22,4 °C 5,4 °C 48 % 79 % 1005,3 hPa 0,0 l/m² 43,6 km/h (6 Bft) W 273 ° 0 min 0 W/m² 2,1 °C -8,5 °C 57,9 km/h (7 Bft)
02.02.2022 04:13 22,3 °C 5,4 °C 48 % 79 % 1005,4 hPa 0,0 l/m² 34,0 km/h (5 Bft) W 277 ° 0 min 0 W/m² 2,1 °C -6,8 °C 43,5 km/h (6 Bft)
02.02.2022 04:14 22,3 °C 5,4 °C 48 % 79 % 1005,4 hPa 0,0 l/m² 35,0 km/h (5 Bft) W-NW 287 ° 0 min 0 W/m² 2,1 °C -7,0 °C 45,1 km/h (6 Bft)
02.02.2022 04:15 22,3 °C 5,4 °C 48 % 79 % 1005,4 hPa 0,0 l/m² 36,9 km/h (5 Bft) W 281 ° 0 min 0 W/m² 2,1 °C -7,4 °C 45,1 km/h (6 Bft)
02.02.2022 04:16 22,4 °C 5,3 °C 48 % 79 % 1005,4 hPa 0,0 l/m² 37,6 km/h (5 Bft) W 271 ° 0 min 0 W/m² 2,0 °C -7,6 °C 45,1 km/h (6 Bft)
02.02.2022 04:18 22,4 °C 5,3 °C 48 % 79 % 1005,4 hPa 0,0 l/m² 35,0 km/h (5 Bft) W 279 ° 0 min 0 W/m² 2,0 °C -7,1 °C 48,3 km/h (6 Bft)
02.02.2022 04:20 22,4 °C 5,3 °C 48 % 79 % 1005,4 hPa 0,0 l/m² 38,1 km/h (6 Bft) W 269 ° 0 min 0 W/m² 2,0 °C -7,7 °C 45,1 km/h (6 Bft)
02.02.2022 04:21 22,4 °C 5,3 °C 48 % 79 % 1005,4 hPa 0,0 l/m² 33,4 km/h (5 Bft) W 263 ° 0 min 0 W/m² 2,0 °C -6,8 °C 45,1 km/h (6 Bft)
02.02.2022 04:23 22,4 °C 5,3 °C 48 % 79 % 1005,4 hPa 0,0 l/m² 33,9 km/h (5 Bft) W 280 ° 0 min 0 W/m² 2,0 °C -6,9 °C 48,3 km/h (6 Bft)
02.02.2022 04:24 22,4 °C 5,3 °C 48 % 79 % 1005,4 hPa 0,0 l/m² 38,2 km/h (6 Bft) W 270 ° 0 min 0 W/m² 2,0 °C -7,8 °C 46,7 km/h (6 Bft)
02.02.2022 04:26 22,4 °C 5,3 °C 48 % 78 % 1005,4 hPa 0,0 l/m² 40,6 km/h (6 Bft) W 278 ° 0 min 0 W/m² 1,8 °C -8,2 °C 54,7 km/h (7 Bft)
02.02.2022 04:28 22,4 °C 5,3 °C 48 % 78 % 1005,4 hPa 0,0 l/m² 37,1 km/h (5 Bft) W-NW 298 ° 0 min 0 W/m² 1,8 °C -7,5 °C 49,9 km/h (7 Bft)
02.02.2022 04:30 22,4 °C 5,3 °C 48 % 78 % 1005,4 hPa 0,0 l/m² 28,3 km/h (5 Bft) W-NW 299 ° 0 min 0 W/m² 1,8 °C -5,5 °C 40,2 km/h (6 Bft)
02.02.2022 04:31 22,4 °C 5,3 °C 48 % 78 % 1005,4 hPa 0,0 l/m² 23,1 km/h (4 Bft) W 277 ° 0 min 0 W/m² 1,8 °C -3,9 °C 35,4 km/h (5 Bft)
02.02.2022 04:33 22,4 °C 5,3 °C 48 % 78 % 1005,4 hPa 0,0 l/m² 33,0 km/h (5 Bft) W 279 ° 0 min 0 W/m² 1,8 °C -6,7 °C 45,1 km/h (6 Bft)
02.02.2022 04:35 22,4 °C 5,3 °C 48 % 78 % 1005,5 hPa 0,0 l/m² 29,0 km/h (5 Bft) W 261 ° 0 min 0 W/m² 1,8 °C -5,7 °C 37,0 km/h (5 Bft)
02.02.2022 04:37 22,4 °C 5,3 °C 48 % 78 % 1005,6 hPa 0,0 l/m² 37,0 km/h (5 Bft) W-NW 298 ° 0 min 0 W/m² 1,8 °C -7,5 °C 54,7 km/h (7 Bft)
02.02.2022 04:39 22,4 °C 5,2 °C 48 % 78 % 1005,6 hPa 0,0 l/m² 31,0 km/h (5 Bft) W 279 ° 0 min 0 W/m² 1,7 °C -6,3 °C 45,1 km/h (6 Bft)
02.02.2022 04:41 22,4 °C 5,2 °C 48 % 78 % 1005,8 hPa 0,0 l/m² 38,6 km/h (6 Bft) W 271 ° 0 min 0 W/m² 1,7 °C -8,0 °C 53,1 km/h (7 Bft)
02.02.2022 04:42 22,4 °C 5,3 °C 48 % 78 % 1005,8 hPa 0,0 l/m² 34,7 km/h (5 Bft) W-NW 288 ° 0 min 0 W/m² 1,8 °C -7,1 °C 43,5 km/h (6 Bft)
02.02.2022 04:43 22,4 °C 5,2 °C 48 % 78 % 1005,8 hPa 0,0 l/m² 44,7 km/h (6 Bft) W 273 ° 0 min 0 W/m² 1,7 °C -9,0 °C 53,1 km/h (7 Bft)
02.02.2022 04:45 22,4 °C 5,2 °C 48 % 79 % 1005,9 hPa 0,0 l/m² 42,1 km/h (6 Bft) W-NW 282 ° 0 min 0 W/m² 1,9 °C -8,6 °C 51,5 km/h (7 Bft)
02.02.2022 04:47 22,4 °C 5,2 °C 48 % 79 % 1006,1 hPa 0,0 l/m² 37,3 km/h (5 Bft) W-NW 284 ° 0 min 0 W/m² 1,9 °C -7,7 °C 49,9 km/h (7 Bft)
02.02.2022 04:48 22,4 °C 5,2 °C 48 % 79 % 1006,0 hPa 0,0 l/m² 44,1 km/h (6 Bft) W 275 ° 0 min 0 W/m² 1,9 °C -8,9 °C 56,3 km/h (7 Bft)
02.02.2022 04:50 22,4 °C 5,1 °C 46 % 79 % 1005,8 hPa 0,0 l/m² 44,5 km/h (6 Bft) W-NW 282 ° 0 min 0 W/m² 1,8 °C -9,1 °C 61,2 km/h (7 Bft)
02.02.2022 04:51 22,4 °C 5,0 °C 46 % 79 % 1005,9 hPa 0,0 l/m² 43,3 km/h (6 Bft) W-NW 293 ° 0 min 0 W/m² 1,7 °C -9,1 °C 54,7 km/h (7 Bft)
02.02.2022 04:53 22,4 °C 5,0 °C 46 % 79 % 1005,9 hPa 0,0 l/m² 35,9 km/h (5 Bft) W-NW 298 ° 0 min 0 W/m² 1,7 °C -7,7 °C 53,1 km/h (7 Bft)
02.02.2022 04:54 22,4 °C 5,0 °C 46 % 79 % 1005,9 hPa 0,0 l/m² 28,8 km/h (5 Bft) W 279 ° 0 min 0 W/m² 1,7 °C -6,1 °C 40,2 km/h (6 Bft)
02.02.2022 04:55 22,4 °C 4,9 °C 46 % 80 % 1005,9 hPa 0,0 l/m² 30,3 km/h (5 Bft) W 271 ° 0 min 0 W/m² 1,7 °C -6,6 °C 49,9 km/h (7 Bft)
02.02.2022 04:57 22,4 °C 4,9 °C 46 % 80 % 1005,9 hPa 0,0 l/m² 29,8 km/h (5 Bft) W 267 ° 0 min 0 W/m² 1,7 °C -6,5 °C 41,8 km/h (6 Bft)
02.02.2022 04:59 22,4 °C 4,8 °C 46 % 80 % 1005,9 hPa 0,0 l/m² 37,0 km/h (5 Bft) W 274 ° 0 min 0 W/m² 1,6 °C -8,3 °C 48,3 km/h (6 Bft)
02.02.2022 05:00 22,4 °C 4,8 °C 46 % 80 % 1006,0 hPa 0,0 l/m² 33,5 km/h (5 Bft) W 271 ° 0 min 0 W/m² 1,6 °C -7,5 °C 41,8 km/h (6 Bft)
02.02.2022 05:02 22,4 °C 4,7 °C 47 % 80 % 1006,0 hPa 0,0 l/m² 35,7 km/h (5 Bft) W 276 ° 0 min 0 W/m² 1,6 °C -8,1 °C 45,1 km/h (6 Bft)
02.02.2022 05:03 22,4 °C 4,7 °C 47 % 80 % 1006,0 hPa 0,0 l/m² 36,9 km/h (5 Bft) W 270 ° 0 min 0 W/m² 1,6 °C -8,4 °C 43,5 km/h (6 Bft)
02.02.2022 05:05 22,4 °C 4,7 °C 47 % 80 % 1005,9 hPa 0,0 l/m² 33,6 km/h (5 Bft) W 263 ° 0 min 0 W/m² 1,6 °C -7,7 °C 41,8 km/h (6 Bft)
02.02.2022 05:06 22,4 °C 4,7 °C 47 % 80 % 1006,0 hPa 0,0 l/m² 29,7 km/h (5 Bft) W 272 ° 0 min 0 W/m² 1,6 °C -6,7 °C 35,4 km/h (5 Bft)
02.02.2022 05:08 22,4 °C 4,6 °C 47 % 80 % 1005,9 hPa 0,0 l/m² 28,3 km/h (5 Bft) W 280 ° 0 min 0 W/m² 1,5 °C -6,5 °C 35,4 km/h (5 Bft)
02.02.2022 05:10 22,4 °C 4,6 °C 47 % 80 % 1005,9 hPa 0,0 l/m² 32,8 km/h (5 Bft) W 280 ° 0 min 0 W/m² 1,5 °C -7,6 °C 43,5 km/h (6 Bft)
02.02.2022 05:11 22,4 °C 4,7 °C 47 % 80 % 1006,0 hPa 0,0 l/m² 29,0 km/h (5 Bft) W 279 ° 0 min 0 W/m² 1,6 °C -6,5 °C 40,2 km/h (6 Bft)
02.02.2022 05:13 22,4 °C 4,6 °C 47 % 80 % 1006,0 hPa 0,0 l/m² 29,3 km/h (5 Bft) W 279 ° 0 min 0 W/m² 1,5 °C -6,8 °C 37,0 km/h (5 Bft)
02.02.2022 05:14 22,4 °C 4,7 °C 47 % 80 % 1005,9 hPa 0,0 l/m² 25,3 km/h (4 Bft) W 277 ° 0 min 0 W/m² 1,6 °C -5,4 °C 30,6 km/h (5 Bft)
02.02.2022 05:16 22,4 °C 4,6 °C 47 % 80 % 1005,9 hPa 0,0 l/m² 26,4 km/h (4 Bft) W 271 ° 0 min 0 W/m² 1,5 °C -5,9 °C 37,0 km/h (5 Bft)
02.02.2022 05:18 22,4 °C 4,7 °C 47 % 79 % 1006,0 hPa 0,0 l/m² 28,1 km/h (5 Bft) W 275 ° 0 min 0 W/m² 1,4 °C -6,3 °C 37,0 km/h (5 Bft)
02.02.2022 05:20 22,4 °C 4,7 °C 48 % 79 % 1006,0 hPa 0,0 l/m² 29,2 km/h (5 Bft) W 262 ° 0 min 0 W/m² 1,4 °C -6,6 °C 37,0 km/h (5 Bft)
02.02.2022 05:21 22,4 °C 4,7 °C 48 % 79 % 1006,1 hPa 0,0 l/m² 26,2 km/h (4 Bft) W-NW 288 ° 0 min 0 W/m² 1,4 °C -5,7 °C 30,6 km/h (5 Bft)
02.02.2022 05:23 22,4 °C 4,7 °C 48 % 79 % 1006,1 hPa 0,0 l/m² 29,9 km/h (5 Bft) W 271 ° 0 min 0 W/m² 1,4 °C -6,8 °C 41,8 km/h (6 Bft)
02.02.2022 05:24 22,4 °C 4,8 °C 48 % 79 % 1006,1 hPa 0,0 l/m² 36,1 km/h (5 Bft) W 270 ° 0 min 0 W/m² 1,5 °C -8,1 °C 46,7 km/h (6 Bft)
02.02.2022 05:26 22,4 °C 4,9 °C 48 % 79 % 1006,3 hPa 0,0 l/m² 31,6 km/h (5 Bft) W-NW 290 ° 0 min 0 W/m² 1,6 °C -6,9 °C 45,1 km/h (6 Bft)
02.02.2022 05:28 22,4 °C 4,9 °C 48 % 78 % 1006,2 hPa 0,0 l/m² 29,9 km/h (5 Bft) W-NW 287 ° 0 min 0 W/m² 1,4 °C -6,5 °C 43,5 km/h (6 Bft)
02.02.2022 05:30 22,5 °C 5,0 °C 48 % 79 % 1006,3 hPa 0,0 l/m² 32,0 km/h (5 Bft) W-NW 283 ° 0 min 0 W/m² 1,7 °C -6,9 °C 41,8 km/h (6 Bft)
02.02.2022 05:31 22,4 °C 5,1 °C 48 % 78 % 1006,2 hPa 0,0 l/m² 26,3 km/h (4 Bft) W 270 ° 0 min 0 W/m² 1,6 °C -5,2 °C 33,8 km/h (5 Bft)
02.02.2022 05:33 22,4 °C 5,1 °C 48 % 78 % 1006,2 hPa 0,0 l/m² 27,3 km/h (5 Bft) W 276 ° 0 min 0 W/m² 1,6 °C -5,5 °C 45,1 km/h (6 Bft)
02.02.2022 05:35 22,4 °C 5,2 °C 48 % 78 % 1006,2 hPa 0,0 l/m² 34,6 km/h (5 Bft) W 275 ° 0 min 0 W/m² 1,7 °C -7,2 °C 46,7 km/h (6 Bft)
02.02.2022 05:37 22,5 °C 5,3 °C 48 % 78 % 1006,2 hPa 0,0 l/m² 21,3 km/h (4 Bft) W 275 ° 0 min 0 W/m² 1,8 °C -3,3 °C 38,6 km/h (6 Bft)
02.02.2022 05:38 22,4 °C 5,2 °C 48 % 78 % 1006,2 hPa 0,0 l/m² 24,7 km/h (4 Bft) W 267 ° 0 min 0 W/m² 1,7 °C -4,6 °C 37,0 km/h (5 Bft)
02.02.2022 05:40 22,5 °C 5,3 °C 48 % 78 % 1006,3 hPa 0,0 l/m² 23,1 km/h (4 Bft) W 267 ° 0 min 0 W/m² 1,8 °C -3,9 °C 35,4 km/h (5 Bft)
02.02.2022 05:41 22,4 °C 5,3 °C 48 % 78 % 1006,3 hPa 0,0 l/m² 28,3 km/h (5 Bft) W 277 ° 0 min 0 W/m² 1,8 °C -5,5 °C 40,2 km/h (6 Bft)
02.02.2022 05:43 22,5 °C 5,3 °C 48 % 78 % 1006,3 hPa 0,0 l/m² 23,2 km/h (4 Bft) W-NW 285 ° 0 min 0 W/m² 1,8 °C -4,0 °C 33,8 km/h (5 Bft)
02.02.2022 05:44 22,5 °C 5,3 °C 48 % 78 % 1006,3 hPa 0,0 l/m² 32,2 km/h (5 Bft) W 277 ° 0 min 0 W/m² 1,8 °C -6,5 °C 38,6 km/h (6 Bft)
02.02.2022 05:46 22,4 °C 5,3 °C 48 % 78 % 1006,2 hPa 0,0 l/m² 25,3 km/h (4 Bft) W 274 ° 0 min 0 W/m² 1,8 °C -4,6 °C 46,7 km/h (6 Bft)
02.02.2022 05:48 22,5 °C 5,3 °C 48 % 78 % 1006,1 hPa 0,0 l/m² 22,1 km/h (4 Bft) NW 309 ° 0 min 0 W/m² 1,8 °C -3,6 °C 30,6 km/h (5 Bft)
02.02.2022 05:50 22,4 °C 5,3 °C 48 % 78 % 1006,0 hPa 0,0 l/m² 23,9 km/h (4 Bft) NW 307 ° 0 min 0 W/m² 1,8 °C -4,2 °C 38,6 km/h (6 Bft)
02.02.2022 05:51 22,4 °C 5,3 °C 48 % 78 % 1006,2 hPa 0,0 l/m² 38,5 km/h (6 Bft) W-NW 294 ° 0 min 0 W/m² 1,8 °C -7,8 °C 48,3 km/h (6 Bft)
02.02.2022 05:53 22,4 °C 5,4 °C 48 % 77 % 1006,2 hPa 0,0 l/m² 35,4 km/h (5 Bft) W-NW 282 ° 0 min 0 W/m² 1,7 °C -7,1 °C 45,1 km/h (6 Bft)
02.02.2022 05:54 22,4 °C 5,4 °C 48 % 77 % 1006,2 hPa 0,0 l/m² 28,2 km/h (5 Bft) W 269 ° 0 min 0 W/m² 1,7 °C -5,3 °C 33,8 km/h (5 Bft)
02.02.2022 05:56 22,4 °C 5,5 °C 48 % 77 % 1006,1 hPa 0,0 l/m² 31,5 km/h (5 Bft) W-NW 296 ° 0 min 0 W/m² 1,8 °C -6,0 °C 41,8 km/h (6 Bft)
02.02.2022 05:58 22,4 °C 5,5 °C 48 % 77 % 1006,3 hPa 0,0 l/m² 33,4 km/h (5 Bft) W-NW 286 ° 0 min 0 W/m² 1,8 °C -6,5 °C 48,3 km/h (6 Bft)
02.02.2022 06:00 22,4 °C 5,6 °C 48 % 77 % 1006,3 hPa 0,0 l/m² 37,3 km/h (5 Bft) W 269 ° 0 min 0 W/m² 1,9 °C -7,1 °C 46,7 km/h (6 Bft)
02.02.2022 06:01 22,4 °C 5,6 °C 48 % 77 % 1006,4 hPa 0,0 l/m² 34,5 km/h (5 Bft) W 270 ° 0 min 0 W/m² 1,9 °C -6,6 °C 51,5 km/h (7 Bft)
02.02.2022 06:03 22,4 °C 5,6 °C 48 % 76 % 1006,3 hPa 0,0 l/m² 33,0 km/h (5 Bft) W 268 ° 0 min 0 W/m² 1,7 °C -6,2 °C 45,1 km/h (6 Bft)
02.02.2022 06:04 22,4 °C 5,6 °C 48 % 76 % 1006,4 hPa 0,0 l/m² 40,6 km/h (6 Bft) W-NW 292 ° 0 min 0 W/m² 1,7 °C -7,7 °C 49,9 km/h (7 Bft)
02.02.2022 06:05 22,4 °C 5,6 °C 48 % 76 % 1006,4 hPa 0,0 l/m² 37,1 km/h (5 Bft) NW 310 ° 0 min 0 W/m² 1,7 °C -7,1 °C 46,7 km/h (6 Bft)
02.02.2022 06:07 22,4 °C 5,7 °C 48 % 76 % 1006,4 hPa 0,0 l/m² 35,1 km/h (5 Bft) NW 312 ° 0 min 0 W/m² 1,8 °C -6,6 °C 53,1 km/h (7 Bft)
02.02.2022 06:09 22,4 °C 5,7 °C 48 % 76 % 1006,4 hPa 0,0 l/m² 34,8 km/h (5 Bft) W 276 ° 0 min 0 W/m² 1,8 °C -6,5 °C 53,1 km/h (7 Bft)
02.02.2022 06:11 22,4 °C 5,7 °C 48 % 76 % 1006,5 hPa 0,0 l/m² 37,9 km/h (6 Bft) W 274 ° 0 min 0 W/m² 1,8 °C -7,1 °C 51,5 km/h (7 Bft)
02.02.2022 06:12 22,4 °C 5,7 °C 48 % 76 % 1006,6 hPa 0,0 l/m² 37,6 km/h (5 Bft) W 259 ° 0 min 0 W/m² 1,8 °C -7,1 °C 46,7 km/h (6 Bft)
02.02.2022 06:13 22,4 °C 5,7 °C 48 % 76 % 1006,6 hPa 0,0 l/m² 36,0 km/h (5 Bft) W 269 ° 0 min 0 W/m² 1,8 °C -6,7 °C 43,5 km/h (6 Bft)
02.02.2022 06:15 22,4 °C 5,7 °C 48 % 76 % 1006,6 hPa 0,0 l/m² 34,1 km/h (5 Bft) W 267 ° 0 min 0 W/m² 1,8 °C -6,3 °C 48,3 km/h (6 Bft)
02.02.2022 06:17 22,4 °C 5,6 °C 48 % 76 % 1006,6 hPa 0,0 l/m² 42,8 km/h (6 Bft) W 278 ° 0 min 0 W/m² 1,7 °C -8,1 °C 51,5 km/h (7 Bft)
02.02.2022 06:18 22,4 °C 5,6 °C 48 % 77 % 1006,6 hPa 0,0 l/m² 42,2 km/h (6 Bft) W 259 ° 0 min 0 W/m² 1,9 °C -8,0 °C 49,9 km/h (7 Bft)
02.02.2022 06:20 22,4 °C 5,5 °C 48 % 77 % 1006,6 hPa 0,0 l/m² 38,3 km/h (6 Bft) W-NW 302 ° 0 min 0 W/m² 1,8 °C -7,5 °C 49,9 km/h (7 Bft)
02.02.2022 06:21 22,4 °C 5,5 °C 48 % 77 % 1006,6 hPa 0,0 l/m² 37,9 km/h (6 Bft) W 278 ° 0 min 0 W/m² 1,8 °C -7,4 °C 53,1 km/h (7 Bft)
02.02.2022 06:23 22,4 °C 5,4 °C 48 % 77 % 1006,7 hPa 0,0 l/m² 41,8 km/h (6 Bft) W 279 ° 0 min 0 W/m² 1,7 °C -8,2 °C 54,7 km/h (7 Bft)
02.02.2022 06:24 22,4 °C 5,4 °C 48 % 77 % 1006,6 hPa 0,0 l/m² 39,3 km/h (6 Bft) W 264 ° 0 min 0 W/m² 1,7 °C -7,8 °C 54,7 km/h (7 Bft)
02.02.2022 06:25 22,4 °C 5,4 °C 48 % 77 % 1006,6 hPa 0,0 l/m² 37,9 km/h (6 Bft) W-NW 290 ° 0 min 0 W/m² 1,7 °C -7,5 °C 46,7 km/h (6 Bft)
02.02.2022 06:27 22,4 °C 5,4 °C 48 % 77 % 1006,5 hPa 0,0 l/m² 36,9 km/h (5 Bft) W-NW 298 ° 0 min 0 W/m² 1,7 °C -7,4 °C 45,1 km/h (6 Bft)
02.02.2022 06:29 22,4 °C 5,3 °C 48 % 77 % 1006,6 hPa 0,0 l/m² 31,8 km/h (5 Bft) W 279 ° 0 min 0 W/m² 1,6 °C -6,4 °C 49,9 km/h (7 Bft)
02.02.2022 06:31 22,4 °C 5,3 °C 48 % 77 % 1006,6 hPa 0,0 l/m² 43,2 km/h (6 Bft) W-NW 285 ° 0 min 0 W/m² 1,6 °C -8,6 °C 57,9 km/h (7 Bft)
02.02.2022 06:32 22,4 °C 5,3 °C 48 % 77 % 1006,6 hPa 0,0 l/m² 38,7 km/h (6 Bft) W-SW 254 ° 0 min 0 W/m² 1,6 °C -7,8 °C 46,7 km/h (6 Bft)
02.02.2022 06:33 22,4 °C 5,3 °C 48 % 77 % 1006,6 hPa 0,0 l/m² 36,0 km/h (5 Bft) W 271 ° 0 min 0 W/m² 1,6 °C -7,3 °C 41,8 km/h (6 Bft)
02.02.2022 06:35 22,4 °C 5,2 °C 48 % 78 % 1006,7 hPa 0,0 l/m² 39,4 km/h (6 Bft) W 271 ° 0 min 0 W/m² 1,7 °C -8,1 °C 49,9 km/h (7 Bft)
02.02.2022 06:37 22,4 °C 5,2 °C 48 % 78 % 1006,8 hPa 0,0 l/m² 38,2 km/h (6 Bft) W 271 ° 0 min 0 W/m² 1,7 °C -7,9 °C 51,5 km/h (7 Bft)
02.02.2022 06:38 22,4 °C 5,1 °C 48 % 78 % 1006,8 hPa 0,0 l/m² 39,2 km/h (6 Bft) W 273 ° 0 min 0 W/m² 1,6 °C -8,2 °C 48,3 km/h (6 Bft)
02.02.2022 06:40 22,4 °C 5,1 °C 47 % 77 % 1006,8 hPa 0,0 l/m² 39,8 km/h (6 Bft) W 277 ° 0 min 0 W/m² 1,4 °C -8,3 °C 54,7 km/h (7 Bft)
02.02.2022 06:41 22,3 °C 5,1 °C 46 % 77 % 1006,9 hPa 0,0 l/m² 38,9 km/h (6 Bft) W 278 ° 0 min 0 W/m² 1,4 °C -8,2 °C 51,5 km/h (7 Bft)
02.02.2022 06:43 22,4 °C 5,0 °C 47 % 77 % 1007,0 hPa 0,0 l/m² 35,3 km/h (5 Bft) W 274 ° 0 min 0 W/m² 1,3 °C -7,6 °C 43,5 km/h (6 Bft)
02.02.2022 06:45 22,3 °C 4,9 °C 47 % 77 % 1006,9 hPa 0,0 l/m² 39,4 km/h (6 Bft) W 272 ° 0 min 0 W/m² 1,2 °C -8,6 °C 51,5 km/h (7 Bft)
02.02.2022 06:46 22,3 °C 4,9 °C 47 % 77 % 1006,9 hPa 0,0 l/m² 36,1 km/h (5 Bft) W 275 ° 0 min 0 W/m² 1,2 °C -7,9 °C 46,7 km/h (6 Bft)
02.02.2022 06:47 22,3 °C 4,9 °C 47 % 77 % 1006,9 hPa 0,0 l/m² 38,5 km/h (6 Bft) W 279 ° 0 min 0 W/m² 1,2 °C -8,4 °C 48,3 km/h (6 Bft)
02.02.2022 06:49 22,3 °C 4,9 °C 47 % 77 % 1007,0 hPa 0,0 l/m² 34,9 km/h (5 Bft) W 279 ° 0 min 0 W/m² 1,2 °C -7,7 °C 46,7 km/h (6 Bft)
02.02.2022 06:51 22,3 °C 4,8 °C 47 % 77 % 1007,0 hPa 0,0 l/m² 36,0 km/h (5 Bft) W 277 ° 0 min 0 W/m² 1,1 °C -8,1 °C 45,1 km/h (6 Bft)
02.02.2022 06:52 22,3 °C 4,8 °C 47 % 77 % 1007,0 hPa 0,0 l/m² 31,8 km/h (5 Bft) W-NW 282 ° 0 min 0 W/m² 1,1 °C -7,1 °C 40,2 km/h (6 Bft)
02.02.2022 06:53 22,3 °C 4,8 °C 47 % 78 % 1007,1 hPa 0,0 l/m² 29,4 km/h (5 Bft) W 277 ° 0 min 0 W/m² 1,3 °C -6,5 °C 38,6 km/h (6 Bft)
02.02.2022 06:54 22,3 °C 4,8 °C 47 % 78 % 1007,1 hPa 0,0 l/m² 29,1 km/h (5 Bft) W-NW 284 ° 0 min 0 W/m² 1,3 °C -6,4 °C 41,8 km/h (6 Bft)
02.02.2022 06:55 22,3 °C 4,8 °C 47 % 78 % 1007,0 hPa 0,0 l/m² 32,2 km/h (5 Bft) W-NW 282 ° 0 min 0 W/m² 1,3 °C -7,2 °C 40,2 km/h (6 Bft)
02.02.2022 06:57 22,3 °C 4,8 °C 47 % 78 % 1007,0 hPa 0,0 l/m² 37,9 km/h (6 Bft) W 272 ° 0 min 0 W/m² 1,3 °C -8,4 °C 46,7 km/h (6 Bft)
02.02.2022 06:59 22,3 °C 4,8 °C 47 % 78 % 1007,1 hPa 0,0 l/m² 34,5 km/h (5 Bft) W 269 ° 0 min 0 W/m² 1,3 °C -7,7 °C 45,1 km/h (6 Bft)
02.02.2022 07:00 22,3 °C 4,8 °C 47 % 78 % 1007,1 hPa 0,0 l/m² 30,8 km/h (5 Bft) W 266 ° 0 min 0 W/m² 1,3 °C -6,9 °C 40,2 km/h (6 Bft)
02.02.2022 07:02 22,3 °C 4,8 °C 47 % 78 % 1007,0 hPa 0,0 l/m² 33,0 km/h (5 Bft) W 270 ° 0 min 0 W/m² 1,3 °C -7,4 °C 46,7 km/h (6 Bft)
02.02.2022 07:03 22,3 °C 4,8 °C 47 % 78 % 1007,0 hPa 0,0 l/m² 30,0 km/h (5 Bft) W-NW 287 ° 0 min 0 W/m² 1,3 °C -6,7 °C 40,2 km/h (6 Bft)
02.02.2022 07:05 22,3 °C 4,8 °C 47 % 78 % 1007,2 hPa 0,0 l/m² 35,0 km/h (5 Bft) W-NW 286 ° 0 min 0 W/m² 1,3 °C -7,8 °C 49,9 km/h (7 Bft)
02.02.2022 07:07 22,3 °C 4,8 °C 47 % 78 % 1007,1 hPa 0,0 l/m² 32,3 km/h (5 Bft) W-SW 254 ° 0 min 0 W/m² 1,3 °C -7,2 °C 43,5 km/h (6 Bft)
02.02.2022 07:09 22,4 °C 4,8 °C 47 % 78 % 1007,2 hPa 0,0 l/m² 31,8 km/h (5 Bft) W-NW 283 ° 0 min 0 W/m² 1,3 °C -7,1 °C 45,1 km/h (6 Bft)
02.02.2022 07:11 22,3 °C 4,8 °C 47 % 78 % 1007,2 hPa 0,0 l/m² 33,2 km/h (5 Bft) W 263 ° 0 min 0 W/m² 1,3 °C -7,4 °C 45,1 km/h (6 Bft)
02.02.2022 07:12 22,3 °C 4,8 °C 47 % 78 % 1007,2 hPa 0,0 l/m² 33,9 km/h (5 Bft) W-NW 289 ° 0 min 0 W/m² 1,3 °C -7,6 °C 43,5 km/h (6 Bft)
02.02.2022 07:13 22,3 °C 4,8 °C 47 % 78 % 1007,2 hPa 0,0 l/m² 28,0 km/h (5 Bft) W-NW 282 ° 0 min 0 W/m² 1,3 °C -6,1 °C 40,2 km/h (6 Bft)
02.02.2022 07:16 22,3 °C 4,8 °C 47 % 78 % 1007,1 hPa 0,0 l/m² 36,4 km/h (5 Bft) W 277 ° 0 min 0 W/m² 1,3 °C -8,1 °C 49,9 km/h (7 Bft)
02.02.2022 07:18 22,3 °C 4,9 °C 47 % 78 % 1007,2 hPa 0,0 l/m² 29,3 km/h (5 Bft) W 281 ° 0 min 0 W/m² 1,4 °C -6,3 °C 51,5 km/h (7 Bft)
02.02.2022 07:20 22,3 °C 4,9 °C 47 % 78 % 1007,2 hPa 0,0 l/m² 32,3 km/h (5 Bft) W-NW 285 ° 0 min 0 W/m² 1,4 °C -7,1 °C 51,5 km/h (7 Bft)
02.02.2022 07:21 22,4 °C 4,9 °C 47 % 78 % 1007,3 hPa 0,0 l/m² 31,1 km/h (5 Bft) W 268 ° 0 min 0 W/m² 1,4 °C -6,8 °C 48,3 km/h (6 Bft)
02.02.2022 07:23 22,4 °C 5,0 °C 47 % 78 % 1007,2 hPa 0,0 l/m² 39,0 km/h (6 Bft) NW 308 ° 0 min 0 W/m² 1,5 °C -8,3 °C 62,8 km/h (7 Bft)
02.02.2022 07:24 22,3 °C 5,0 °C 47 % 77 % 1007,3 hPa 0,0 l/m² 23,9 km/h (4 Bft) NW 304 ° 0 min 0 W/m² 1,3 °C -4,6 °C 46,7 km/h (6 Bft)
02.02.2022 07:25 22,4 °C 5,1 °C 47 % 77 % 1007,2 hPa 0,0 l/m² 18,5 km/h (3 Bft) W 276 ° 0 min 0 W/m² 1,4 °C -2,4 °C 40,2 km/h (6 Bft)
02.02.2022 07:27 22,3 °C 5,1 °C 47 % 77 % 1007,2 hPa 0,0 l/m² 35,9 km/h (5 Bft) W 262 ° 0 min 0 W/m² 1,4 °C -7,6 °C 51,5 km/h (7 Bft)
02.02.2022 07:29 22,3 °C 5,1 °C 47 % 77 % 1007,2 hPa 0,0 l/m² 28,9 km/h (5 Bft) W 275 ° 0 min 0 W/m² 1,4 °C -5,9 °C 41,8 km/h (6 Bft)
02.02.2022 07:31 22,4 °C 5,1 °C 47 % 77 % 1007,4 hPa 0,0 l/m² 31,5 km/h (5 Bft) W-NW 301 ° 0 min 0 W/m² 1,4 °C -6,6 °C 45,1 km/h (6 Bft)
02.02.2022 07:32 22,3 °C 5,1 °C 47 % 77 % 1007,3 hPa 0,0 l/m² 20,9 km/h (4 Bft) W 262 ° 0 min 0 W/m² 1,4 °C -3,4 °C 33,8 km/h (5 Bft)
02.02.2022 07:33 22,3 °C 5,0 °C 47 % 77 % 1007,3 hPa 0,0 l/m² 21,9 km/h (4 Bft) NW 309 ° 0 min 0 W/m² 1,3 °C -3,9 °C 35,4 km/h (5 Bft)
02.02.2022 07:35 22,3 °C 5,0 °C 47 % 77 % 1007,2 hPa 0,0 l/m² 31,9 km/h (5 Bft) NW 305 ° 0 min 0 W/m² 1,3 °C -6,8 °C 48,3 km/h (6 Bft)
02.02.2022 07:37 22,3 °C 5,1 °C 47 % 77 % 1007,4 hPa 0,0 l/m² 20,1 km/h (4 Bft) NW 305 ° 0 min 0 W/m² 1,4 °C -3,1 °C 33,8 km/h (5 Bft)
02.02.2022 07:39 22,4 °C 4,9 °C 47 % 78 % 1007,4 hPa 0,0 l/m² 31,2 km/h (5 Bft) W 266 ° 0 min 0 W/m² 1,4 °C -6,8 °C 41,8 km/h (6 Bft)
02.02.2022 07:40 22,3 °C 5,0 °C 47 % 77 % 1007,3 hPa 0,0 l/m² 38,6 km/h (6 Bft) W 279 ° 0 min 5 W/m² 1,3 °C -8,3 °C 49,9 km/h (7 Bft)
02.02.2022 07:42 22,4 °C 5,0 °C 47 % 77 % 1007,4 hPa 0,0 l/m² 34,4 km/h (5 Bft) W 268 ° 0 min 5 W/m² 1,3 °C -7,4 °C 51,5 km/h (7 Bft)
02.02.2022 07:43 22,4 °C 5,1 °C 47 % 77 % 1007,4 hPa 0,0 l/m² 31,9 km/h (5 Bft) W-NW 286 ° 0 min 5 W/m² 1,4 °C -6,7 °C 41,8 km/h (6 Bft)
02.02.2022 07:45 22,4 °C 5,1 °C 47 % 77 % 1007,5 hPa 0,0 l/m² 33,4 km/h (5 Bft) W-NW 294 ° 0 min 7 W/m² 1,4 °C -7,1 °C 48,3 km/h (6 Bft)
02.02.2022 07:47 22,3 °C 5,1 °C 47 % 77 % 1007,5 hPa 0,0 l/m² 27,7 km/h (5 Bft) W-NW 293 ° 0 min 7 W/m² 1,4 °C -5,6 °C 41,8 km/h (6 Bft)
02.02.2022 07:49 22,4 °C 5,1 °C 47 % 77 % 1007,5 hPa 0,0 l/m² 37,5 km/h (5 Bft) W 274 ° 0 min 7 W/m² 1,4 °C -7,9 °C 54,7 km/h (7 Bft)
02.02.2022 07:51 22,4 °C 5,1 °C 47 % 77 % 1007,7 hPa 0,0 l/m² 34,1 km/h (5 Bft) W 277 ° 0 min 7 W/m² 1,4 °C -7,2 °C 53,1 km/h (7 Bft)
02.02.2022 07:52 22,4 °C 5,1 °C 47 % 77 % 1007,7 hPa 0,0 l/m² 34,2 km/h (5 Bft) W 267 ° 0 min 7 W/m² 1,4 °C -7,2 °C 48,3 km/h (6 Bft)
02.02.2022 07:53 22,4 °C 5,1 °C 47 % 77 % 1007,7 hPa 0,0 l/m² 33,9 km/h (5 Bft) W 274 ° 0 min 7 W/m² 1,4 °C -7,2 °C 40,2 km/h (6 Bft)
02.02.2022 07:55 22,3 °C 5,1 °C 47 % 77 % 1007,6 hPa 0,0 l/m² 36,2 km/h (5 Bft) W 268 ° 0 min 7 W/m² 1,4 °C -7,7 °C 49,9 km/h (7 Bft)
02.02.2022 07:57 22,3 °C 5,1 °C 47 % 77 % 1007,6 hPa 0,0 l/m² 33,2 km/h (5 Bft) W 281 ° 0 min 7 W/m² 1,4 °C -7,0 °C 45,1 km/h (6 Bft)
02.02.2022 07:59 22,4 °C 5,1 °C 47 % 77 % 1007,6 hPa 0,0 l/m² 45,0 km/h (6 Bft) W 277 ° 0 min 11 W/m² 1,4 °C -9,2 °C 62,8 km/h (7 Bft)
02.02.2022 08:01 22,4 °C 5,2 °C 47 % 77 % 1007,7 hPa 0,0 l/m² 40,9 km/h (6 Bft) W 266 ° 0 min 11 W/m² 1,5 °C -8,4 °C 57,9 km/h (7 Bft)
02.02.2022 08:02 22,4 °C 5,2 °C 47 % 77 % 1007,7 hPa 0,0 l/m² 31,7 km/h (5 Bft) W 267 ° 0 min 11 W/m² 1,5 °C -6,5 °C 49,9 km/h (7 Bft)
02.02.2022 08:03 22,4 °C 5,2 °C 47 % 77 % 1007,7 hPa 0,0 l/m² 40,5 km/h (6 Bft) W 276 ° 0 min 12 W/m² 1,5 °C -8,3 °C 54,7 km/h (7 Bft)
02.02.2022 08:05 22,4 °C 5,2 °C 47 % 77 % 1007,6 hPa 0,0 l/m² 34,3 km/h (5 Bft) NW 313 ° 0 min 18 W/m² 1,5 °C -7,1 °C 46,7 km/h (6 Bft)
02.02.2022 08:07 22,4 °C 5,2 °C 47 % 77 % 1007,7 hPa 0,0 l/m² 32,4 km/h (5 Bft) W 263 ° 0 min 18 W/m² 1,5 °C -6,7 °C 45,1 km/h (6 Bft)
02.02.2022 08:09 22,4 °C 5,2 °C 47 % 78 % 1007,7 hPa 0,0 l/m² 27,1 km/h (5 Bft) W 277 ° 0 min 21 W/m² 1,7 °C -5,3 °C 43,5 km/h (6 Bft)
02.02.2022 08:11 22,4 °C 5,1 °C 47 % 78 % 1007,7 hPa 0,0 l/m² 29,3 km/h (5 Bft) NW 304 ° 0 min 23 W/m² 1,6 °C -6,1 °C 46,7 km/h (6 Bft)
02.02.2022 08:12 22,4 °C 5,2 °C 47 % 78 % 1007,8 hPa 0,0 l/m² 31,0 km/h (5 Bft) N-NW 327 ° 0 min 25 W/m² 1,7 °C -6,3 °C 43,5 km/h (6 Bft)
02.02.2022 08:13 22,4 °C 5,1 °C 47 % 78 % 1007,8 hPa 0,0 l/m² 35,9 km/h (5 Bft) W-NW 293 ° 0 min 23 W/m² 1,6 °C -7,6 °C 49,9 km/h (7 Bft)
02.02.2022 08:15 22,4 °C 5,2 °C 47 % 78 % 1007,8 hPa 0,0 l/m² 31,4 km/h (5 Bft) W 279 ° 0 min 28 W/m² 1,7 °C -6,4 °C 41,8 km/h (6 Bft)
02.02.2022 08:17 22,4 °C 5,2 °C 47 % 78 % 1007,8 hPa 0,0 l/m² 33,6 km/h (5 Bft) W 277 ° 0 min 26 W/m² 1,7 °C -7,0 °C 45,1 km/h (6 Bft)
02.02.2022 08:19 22,4 °C 5,2 °C 47 % 78 % 1007,9 hPa 0,0 l/m² 30,7 km/h (5 Bft) W 262 ° 0 min 30 W/m² 1,7 °C -6,3 °C 43,5 km/h (6 Bft)
02.02.2022 08:21 22,4 °C 5,2 °C 47 % 78 % 1007,9 hPa 0,0 l/m² 24,6 km/h (4 Bft) W-NW 294 ° 0 min 37 W/m² 1,7 °C -4,5 °C 37,0 km/h (5 Bft)
02.02.2022 08:22 22,4 °C 5,2 °C 47 % 78 % 1007,9 hPa 0,0 l/m² 29,4 km/h (5 Bft) W 279 ° 0 min 33 W/m² 1,7 °C -5,9 °C 43,5 km/h (6 Bft)
02.02.2022 08:23 22,4 °C 5,2 °C 47 % 78 % 1007,9 hPa 0,0 l/m² 34,9 km/h (5 Bft) W-NW 287 ° 0 min 30 W/m² 1,7 °C -7,2 °C 45,1 km/h (6 Bft)
02.02.2022 08:26 22,4 °C 5,2 °C 47 % 78 % 1007,8 hPa 0,0 l/m² 36,1 km/h (5 Bft) W 276 ° 0 min 33 W/m² 1,7 °C -7,5 °C 48,3 km/h (6 Bft)
02.02.2022 08:28 22,4 °C 5,3 °C 47 % 77 % 1007,9 hPa 0,0 l/m² 40,5 km/h (6 Bft) W-NW 282 ° 0 min 33 W/m² 1,6 °C -8,2 °C 54,7 km/h (7 Bft)
02.02.2022 08:30 22,4 °C 5,3 °C 47 % 77 % 1008,0 hPa 0,0 l/m² 35,2 km/h (5 Bft) W 272 ° 0 min 33 W/m² 1,6 °C -7,2 °C 49,9 km/h (7 Bft)
02.02.2022 08:31 22,4 °C 5,3 °C 47 % 77 % 1008,1 hPa 0,0 l/m² 40,9 km/h (6 Bft) W 271 ° 0 min 32 W/m² 1,6 °C -8,2 °C 53,1 km/h (7 Bft)
02.02.2022 08:32 22,4 °C 5,3 °C 47 % 77 % 1008,1 hPa 0,0 l/m² 35,3 km/h (5 Bft) W 268 ° 0 min 33 W/m² 1,6 °C -7,2 °C 46,7 km/h (6 Bft)
02.02.2022 08:33 22,4 °C 5,3 °C 47 % 77 % 1008,0 hPa 0,0 l/m² 41,0 km/h (6 Bft) W-NW 283 ° 0 min 32 W/m² 1,6 °C -8,2 °C 54,7 km/h (7 Bft)
02.02.2022 08:34 22,4 °C 5,3 °C 47 % 77 % 1008,0 hPa 0,0 l/m² 40,2 km/h (6 Bft) W-NW 287 ° 0 min 32 W/m² 1,6 °C -8,1 °C 56,3 km/h (7 Bft)
02.02.2022 08:36 22,4 °C 5,3 °C 47 % 77 % 1008,1 hPa 0,0 l/m² 35,1 km/h (5 Bft) W 267 ° 0 min 35 W/m² 1,6 °C -7,1 °C 54,7 km/h (7 Bft)
02.02.2022 08:38 22,4 °C 5,4 °C 47 % 77 % 1008,2 hPa 0,0 l/m² 32,2 km/h (5 Bft) W-NW 288 ° 0 min 26 W/m² 1,7 °C -6,3 °C 46,7 km/h (6 Bft)
02.02.2022 08:40 22,4 °C 5,4 °C 47 % 77 % 1008,2 hPa 0,0 l/m² 30,5 km/h (5 Bft) W 271 ° 0 min 35 W/m² 1,7 °C -5,9 °C 45,1 km/h (6 Bft)
02.02.2022 08:41 22,4 °C 5,4 °C 47 % 77 % 1008,1 hPa 0,0 l/m² 35,0 km/h (5 Bft) W-NW 286 ° 0 min 35 W/m² 1,7 °C -7,0 °C 51,5 km/h (7 Bft)
02.02.2022 08:42 22,4 °C 5,4 °C 47 % 77 % 1008,2 hPa 0,0 l/m² 40,9 km/h (6 Bft) W 274 ° 0 min 37 W/m² 1,7 °C -8,1 °C 61,2 km/h (7 Bft)
02.02.2022 08:43 22,4 °C 5,4 °C 47 % 77 % 1008,1 hPa 0,0 l/m² 36,7 km/h (5 Bft) W-NW 302 ° 0 min 39 W/m² 1,7 °C -7,3 °C 51,5 km/h (7 Bft)
02.02.2022 08:44 22,4 °C 5,4 °C 47 % 77 % 1008,2 hPa 0,0 l/m² 28,8 km/h (5 Bft) W 277 ° 0 min 39 W/m² 1,7 °C -5,5 °C 48,3 km/h (6 Bft)
02.02.2022 08:46 22,4 °C 5,5 °C 47 % 77 % 1008,1 hPa 0,0 l/m² 40,2 km/h (6 Bft) W 275 ° 0 min 42 W/m² 1,8 °C -7,8 °C 53,1 km/h (7 Bft)
02.02.2022 08:48 22,4 °C 5,5 °C 47 % 77 % 1008,2 hPa 0,0 l/m² 33,3 km/h (5 Bft) W-NW 282 ° 0 min 47 W/m² 1,8 °C -6,5 °C 57,9 km/h (7 Bft)
02.02.2022 08:50 22,4 °C 5,4 °C 47 % 77 % 1008,3 hPa 0,0 l/m² 28,9 km/h (5 Bft) W 278 ° 2 min 53 W/m² 1,7 °C -5,5 °C 41,8 km/h (6 Bft)
02.02.2022 08:51 22,4 °C 5,4 °C 47 % 77 % 1008,2 hPa 0,0 l/m² 31,1 km/h (5 Bft) W 270 ° 0 min 49 W/m² 1,7 °C -6,1 °C 48,3 km/h (6 Bft)
02.02.2022 08:52 22,4 °C 5,4 °C 47 % 77 % 1008,2 hPa 0,0 l/m² 26,6 km/h (4 Bft) W-NW 289 ° 1 min 53 W/m² 1,7 °C -4,9 °C 45,1 km/h (6 Bft)
02.02.2022 08:53 22,4 °C 5,4 °C 47 % 77 % 1008,2 hPa 0,0 l/m² 26,5 km/h (4 Bft) W 271 ° 0 min 49 W/m² 1,7 °C -4,9 °C 43,5 km/h (6 Bft)
02.02.2022 08:54 22,4 °C 5,4 °C 47 % 77 % 1008,9 hPa 0,0 l/m² 29,9 km/h (5 Bft) W 277 ° 0 min 47 W/m² 1,7 °C -5,8 °C 48,3 km/h (6 Bft)
02.02.2022 08:56 22,4 °C 5,5 °C 47 % 77 % 1008,4 hPa 0,0 l/m² 29,5 km/h (5 Bft) W-NW 295 ° 0 min 51 W/m² 1,8 °C -5,5 °C 51,5 km/h (7 Bft)
02.02.2022 08:58 22,4 °C 5,6 °C 47 % 77 % 1008,3 hPa 0,0 l/m² 33,8 km/h (5 Bft) NW 311 ° 2 min 81 W/m² 1,9 °C -6,4 °C 62,8 km/h (7 Bft)
02.02.2022 09:00 22,4 °C 5,6 °C 47 % 77 % 1008,3 hPa 0,0 l/m² 22,9 km/h (4 Bft) NW 306 ° 2 min 86 W/m² 1,9 °C -3,4 °C 35,4 km/h (5 Bft)
02.02.2022 09:01 22,4 °C 5,6 °C 47 % 77 % 1008,3 hPa 0,0 l/m² 31,0 km/h (5 Bft) W-NW 303 ° 1 min 90 W/m² 1,9 °C -5,8 °C 41,8 km/h (6 Bft)
02.02.2022 09:02 22,4 °C 5,6 °C 47 % 77 % 1008,3 hPa 0,0 l/m² 16,7 km/h (3 Bft) W-SW 249 ° 1 min 95 W/m² 1,9 °C -1,0 °C 32,2 km/h (5 Bft)
02.02.2022 09:03 22,4 °C 5,7 °C 47 % 77 % 1008,4 hPa 0,0 l/m² 25,9 km/h (4 Bft) W-SW 244 ° 1 min 95 W/m² 2,0 °C -4,3 °C 46,7 km/h (6 Bft)
02.02.2022 09:04 22,4 °C 5,7 °C 47 % 77 % 1008,4 hPa 0,0 l/m² 27,6 km/h (5 Bft) NW 320 ° 1 min 97 W/m² 2,0 °C -4,8 °C 41,8 km/h (6 Bft)
02.02.2022 09:06 22,6 °C 5,8 °C 47 % 77 % 1008,6 hPa 0,0 l/m² 20,0 km/h (4 Bft) W 279 ° 2 min 90 W/m² 2,1 °C -2,1 °C 32,2 km/h (5 Bft)
02.02.2022 09:08 22,6 °C 5,8 °C 47 % 77 % 1008,6 hPa 0,0 l/m² 29,2 km/h (5 Bft) W 281 ° 2 min 100 W/m² 2,1 °C -5,0 °C 46,7 km/h (6 Bft)
02.02.2022 09:10 22,6 °C 5,8 °C 46 % 77 % 1008,7 hPa 0,0 l/m² 24,8 km/h (4 Bft) W 272 ° 2 min 60 W/m² 2,1 °C -3,8 °C 41,8 km/h (6 Bft)
02.02.2022 09:11 22,6 °C 5,8 °C 47 % 77 % 1008,8 hPa 0,0 l/m² 24,8 km/h (4 Bft) W 272 ° 1 min 86 W/m² 2,1 °C -3,8 °C 40,2 km/h (6 Bft)
02.02.2022 09:12 22,6 °C 5,8 °C 47 % 77 % 1008,8 hPa 0,0 l/m² 27,1 km/h (5 Bft) W 266 ° 1 min 91 W/m² 2,1 °C -4,5 °C 35,4 km/h (5 Bft)
02.02.2022 09:13 22,6 °C 5,8 °C 46 % 77 % 1008,7 hPa 0,0 l/m² 19,8 km/h (3 Bft) NW 319 ° 1 min 79 W/m² 2,1 °C -2,1 °C 32,2 km/h (5 Bft)
02.02.2022 09:14 22,6 °C 5,8 °C 46 % 77 % 1008,9 hPa 0,0 l/m² 22,2 km/h (4 Bft) W-NW 286 ° 1 min 125 W/m² 2,1 °C -2,9 °C 45,1 km/h (6 Bft)
02.02.2022 09:16 22,7 °C 5,9 °C 46 % 76 % 1008,8 hPa 0,0 l/m² 35,3 km/h (5 Bft) NW 305 ° 2 min 76 W/m² 2,0 °C -6,3 °C 54,7 km/h (7 Bft)
02.02.2022 09:18 22,7 °C 5,9 °C 46 % 76 % 1008,9 hPa 0,0 l/m² 31,0 km/h (5 Bft) W-NW 284 ° 2 min 132 W/m² 2,0 °C -5,4 °C 49,9 km/h (7 Bft)
02.02.2022 09:20 22,7 °C 5,9 °C 46 % 76 % 1008,8 hPa 0,0 l/m² 24,8 km/h (4 Bft) W 273 ° 2 min 107 W/m² 2,0 °C -3,7 °C 43,5 km/h (6 Bft)
02.02.2022 09:21 22,7 °C 5,9 °C 46 % 76 % 1008,9 hPa 0,0 l/m² 33,0 km/h (5 Bft) W 273 ° 1 min 77 W/m² 2,0 °C -5,8 °C 48,3 km/h (6 Bft)
02.02.2022 09:22 22,7 °C 5,9 °C 46 % 76 % 1008,9 hPa 0,0 l/m² 20,2 km/h (4 Bft) W 280 ° 0 min 46 W/m² 2,0 °C -2,1 °C 38,6 km/h (6 Bft)
02.02.2022 09:23 22,7 °C 5,9 °C 46 % 76 % 1008,8 hPa 0,0 l/m² 25,0 km/h (4 Bft) W 270 ° 1 min 88 W/m² 2,0 °C -3,7 °C 37,0 km/h (5 Bft)
02.02.2022 09:24 22,7 °C 5,9 °C 46 % 76 % 1008,8 hPa 0,0 l/m² 30,3 km/h (5 Bft) W-NW 290 ° 1 min 148 W/m² 2,0 °C -5,2 °C 45,1 km/h (6 Bft)
02.02.2022 09:26 22,7 °C 5,9 °C 46 % 77 % 1009,0 hPa 0,0 l/m² 23,8 km/h (4 Bft) W 278 ° 2 min 156 W/m² 2,2 °C -3,3 °C 41,8 km/h (6 Bft)
02.02.2022 09:28 22,7 °C 5,9 °C 46 % 77 % 1009,0 hPa 0,0 l/m² 30,3 km/h (5 Bft) W 269 ° 2 min 169 W/m² 2,2 °C -5,2 °C 53,1 km/h (7 Bft)
02.02.2022 09:30 22,7 °C 6,0 °C 46 % 76 % 1009,0 hPa 0,0 l/m² 27,7 km/h (5 Bft) W-NW 288 ° 2 min 86 W/m² 2,1 °C -4,4 °C 38,6 km/h (6 Bft)
02.02.2022 09:31 22,8 °C 6,0 °C 46 % 76 % 1009,0 hPa 0,0 l/m² 37,4 km/h (5 Bft) W-NW 289 ° 1 min 77 W/m² 2,1 °C -6,6 °C 56,3 km/h (7 Bft)
02.02.2022 09:32 22,8 °C 6,0 °C 46 % 76 % 1009,0 hPa 0,0 l/m² 43,8 km/h (6 Bft) W-NW 284 ° 1 min 98 W/m² 2,1 °C -7,6 °C 56,3 km/h (7 Bft)
02.02.2022 09:33 22,8 °C 6,0 °C 46 % 76 % 1009,0 hPa 0,0 l/m² 30,2 km/h (5 Bft) W 279 ° 1 min 109 W/m² 2,1 °C -5,0 °C 46,7 km/h (6 Bft)
02.02.2022 09:34 22,8 °C 6,0 °C 46 % 76 % 1009,1 hPa 0,0 l/m² 29,9 km/h (5 Bft) W 262 ° 1 min 181 W/m² 2,1 °C -4,9 °C 45,1 km/h (6 Bft)
02.02.2022 09:36 22,8 °C 6,0 °C 46 % 76 % 1009,3 hPa 0,0 l/m² 22,6 km/h (4 Bft) W-NW 300 ° 2 min 77 W/m² 2,1 °C -2,8 °C 35,4 km/h (5 Bft)
02.02.2022 09:38 22,8 °C 6,1 °C 46 % 77 % 1009,2 hPa 0,0 l/m² 29,5 km/h (5 Bft) W 276 ° 2 min 195 W/m² 2,4 °C -4,7 °C 48,3 km/h (6 Bft)
02.02.2022 09:40 22,8 °C 6,1 °C 46 % 76 % 1009,2 hPa 0,0 l/m² 27,6 km/h (5 Bft) W-NW 293 ° 2 min 193 W/m² 2,2 °C -4,2 °C 56,3 km/h (7 Bft)
02.02.2022 09:41 22,8 °C 6,1 °C 46 % 76 % 1009,3 hPa 0,0 l/m² 33,4 km/h (5 Bft) W 274 ° 1 min 197 W/m² 2,2 °C -5,6 °C 57,9 km/h (7 Bft)
02.02.2022 09:42 22,8 °C 6,1 °C 46 % 76 % 1009,3 hPa 0,0 l/m² 29,9 km/h (5 Bft) W-NW 300 ° 1 min 207 W/m² 2,2 °C -4,8 °C 45,1 km/h (6 Bft)
02.02.2022 09:43 22,8 °C 6,2 °C 46 % 76 % 1009,4 hPa 0,0 l/m² 40,7 km/h (6 Bft) W 279 ° 1 min 216 W/m² 2,3 °C -6,9 °C 54,7 km/h (7 Bft)
02.02.2022 09:44 22,9 °C 6,2 °C 46 % 76 % 1009,3 hPa 0,0 l/m² 20,9 km/h (4 Bft) W 280 ° 1 min 153 W/m² 2,3 °C -2,0 °C 30,6 km/h (5 Bft)
02.02.2022 09:46 22,9 °C 6,2 °C 46 % 77 % 1009,4 hPa 0,0 l/m² 25,9 km/h (4 Bft) W-NW 284 ° 2 min 207 W/m² 2,5 °C -3,6 °C 41,8 km/h (6 Bft)
02.02.2022 09:48 22,9 °C 6,2 °C 46 % 77 % 1009,5 hPa 0,0 l/m² 24,3 km/h (4 Bft) W 281 ° 2 min 192 W/m² 2,5 °C -3,1 °C 43,5 km/h (6 Bft)
02.02.2022 09:50 22,9 °C 6,2 °C 46 % 77 % 1009,5 hPa 0,0 l/m² 23,7 km/h (4 Bft) W 267 ° 2 min 253 W/m² 2,5 °C -2,9 °C 40,2 km/h (6 Bft)
02.02.2022 09:51 22,9 °C 6,2 °C 46 % 77 % 1009,5 hPa 0,0 l/m² 23,8 km/h (4 Bft) W-NW 282 ° 1 min 74 W/m² 2,5 °C -2,9 °C 38,6 km/h (6 Bft)
02.02.2022 09:52 22,9 °C 6,2 °C 46 % 77 % 1009,5 hPa 0,0 l/m² 21,2 km/h (4 Bft) W-SW 247 ° 1 min 69 W/m² 2,5 °C -2,1 °C 29,0 km/h (5 Bft)
02.02.2022 09:53 22,9 °C 6,2 °C 46 % 77 % 1009,5 hPa 0,0 l/m² 36,1 km/h (5 Bft) W-NW 294 ° 1 min 84 W/m² 2,5 °C -6,0 °C 49,9 km/h (7 Bft)
02.02.2022 09:54 22,9 °C 6,2 °C 46 % 77 % 1009,5 hPa 0,0 l/m² 41,0 km/h (6 Bft) W 263 ° 1 min 84 W/m² 2,5 °C -6,9 °C 61,2 km/h (7 Bft)
02.02.2022 09:56 22,9 °C 6,2 °C 46 % 77 % 1009,7 hPa 0,0 l/m² 37,0 km/h (5 Bft) W 267 ° 2 min 308 W/m² 2,5 °C -6,2 °C 57,9 km/h (7 Bft)
02.02.2022 09:58 22,9 °C 6,2 °C 46 % 77 % 1009,6 hPa 0,0 l/m² 42,9 km/h (6 Bft) W 270 ° 2 min 95 W/m² 2,5 °C -7,2 °C 62,8 km/h (7 Bft)
02.02.2022 10:00 22,9 °C 6,2 °C 46 % 78 % 1009,7 hPa 0,0 l/m² 28,7 km/h (5 Bft) W 271 ° 2 min 104 W/m² 2,7 °C -4,4 °C 40,2 km/h (6 Bft)
02.02.2022 10:01 22,9 °C 6,1 °C 46 % 78 % 1009,8 hPa 0,0 l/m² 22,1 km/h (4 Bft) W 273 ° 1 min 169 W/m² 2,6 °C -2,5 °C 30,6 km/h (5 Bft)
02.02.2022 10:02 22,9 °C 6,1 °C 46 % 78 % 1009,8 hPa 0,0 l/m² 18,9 km/h (3 Bft) W 280 ° 1 min 169 W/m² 2,6 °C -1,3 °C 30,6 km/h (5 Bft)
02.02.2022 10:03 22,9 °C 6,1 °C 46 % 78 % 1009,7 hPa 0,0 l/m² 26,4 km/h (4 Bft) NW 310 ° 1 min 260 W/m² 2,6 °C -3,9 °C 54,7 km/h (7 Bft)
02.02.2022 10:04 22,9 °C 6,1 °C 46 % 78 % 1009,8 hPa 0,0 l/m² 22,2 km/h (4 Bft) W-NW 286 ° 1 min 111 W/m² 2,6 °C -2,5 °C 35,4 km/h (5 Bft)
02.02.2022 10:06 23,0 °C 6,1 °C 46 % 78 % 1009,8 hPa 0,0 l/m² 28,3 km/h (5 Bft) W 281 ° 2 min 91 W/m² 2,6 °C -4,4 °C 49,9 km/h (7 Bft)
02.02.2022 10:08 22,9 °C 6,1 °C 46 % 79 % 1009,9 hPa 0,0 l/m² 30,9 km/h (5 Bft) W-NW 286 ° 2 min 179 W/m² 2,7 °C -5,0 °C 48,3 km/h (6 Bft)
02.02.2022 10:10 22,9 °C 6,0 °C 46 % 79 % 1009,8 hPa 0,0 l/m² 36,2 km/h (5 Bft) W 279 ° 2 min 218 W/m² 2,6 °C -6,3 °C 53,1 km/h (7 Bft)
02.02.2022 10:11 22,9 °C 6,1 °C 46 % 79 % 1010,0 hPa 0,0 l/m² 28,8 km/h (5 Bft) W-NW 286 ° 1 min 211 W/m² 2,7 °C -4,5 °C 38,6 km/h (6 Bft)
02.02.2022 10:12 22,9 °C 6,1 °C 46 % 79 % 1010,0 hPa 0,0 l/m² 25,9 km/h (4 Bft) W-SW 258 ° 1 min 209 W/m² 2,7 °C -3,7 °C 37,0 km/h (5 Bft)
02.02.2022 10:13 23,0 °C 6,1 °C 46 % 78 % 1010,0 hPa 0,0 l/m² 46,9 km/h (6 Bft) W 274 ° 1 min 227 W/m² 2,6 °C -7,9 °C 59,5 km/h (7 Bft)
02.02.2022 10:14 23,0 °C 6,1 °C 46 % 78 % 1010,1 hPa 0,0 l/m² 40,5 km/h (6 Bft) W-NW 289 ° 1 min 155 W/m² 2,6 °C -7,0 °C 66,0 km/h (8 Bft)
02.02.2022 10:16 23,0 °C 6,2 °C 46 % 78 % 1010,3 hPa 0,0 l/m² 24,8 km/h (4 Bft) W-NW 298 ° 2 min 267 W/m² 2,7 °C -3,3 °C 41,8 km/h (6 Bft)
02.02.2022 10:18 23,1 °C 6,2 °C 46 % 78 % 1010,1 hPa 0,0 l/m² 21,9 km/h (4 Bft) W 281 ° 2 min 267 W/m² 2,7 °C -2,3 °C 38,6 km/h (6 Bft)
02.02.2022 10:20 23,1 °C 6,3 °C 46 % 78 % 1010,2 hPa 0,0 l/m² 22,3 km/h (4 Bft) W 265 ° 2 min 269 W/m² 2,8 °C -2,3 °C 40,2 km/h (6 Bft)
02.02.2022 10:21 23,1 °C 6,3 °C 46 % 78 % 1010,3 hPa 0,0 l/m² 27,1 km/h (5 Bft) W-NW 292 ° 1 min 267 W/m² 2,8 °C -3,8 °C 38,6 km/h (6 Bft)
02.02.2022 10:22 23,1 °C 6,4 °C 46 % 78 % 1010,2 hPa 0,0 l/m² 34,7 km/h (5 Bft) W 277 ° 1 min 304 W/m² 2,8 °C -5,5 °C 48,3 km/h (6 Bft)
02.02.2022 10:23 23,2 °C 6,3 °C 46 % 77 % 1010,3 hPa 0,0 l/m² 31,2 km/h (5 Bft) W 279 ° 1 min 318 W/m² 2,6 °C -4,8 °C 51,5 km/h (7 Bft)
02.02.2022 10:24 23,2 °C 6,4 °C 46 % 76 % 1010,3 hPa 0,0 l/m² 43,8 km/h (6 Bft) W 269 ° 1 min 318 W/m² 2,5 °C -7,0 °C 57,9 km/h (7 Bft)
02.02.2022 10:26 23,2 °C 6,4 °C 46 % 76 % 1010,4 hPa 0,0 l/m² 40,7 km/h (6 Bft) W-NW 292 ° 2 min 104 W/m² 2,5 °C -6,6 °C 61,2 km/h (7 Bft)
02.02.2022 10:28 23,2 °C 6,4 °C 45 % 76 % 1010,5 hPa 0,0 l/m² 32,6 km/h (5 Bft) W 273 ° 2 min 137 W/m² 2,5 °C -5,0 °C 53,1 km/h (7 Bft)
02.02.2022 10:30 23,2 °C 6,4 °C 45 % 76 % 1010,4 hPa 0,0 l/m² 33,6 km/h (5 Bft) W-NW 297 ° 2 min 128 W/m² 2,5 °C -5,2 °C 48,3 km/h (6 Bft)
02.02.2022 10:31 23,2 °C 6,4 °C 45 % 76 % 1010,5 hPa 0,0 l/m² 24,7 km/h (4 Bft) NW 305 ° 1 min 95 W/m² 2,5 °C -3,0 °C 37,0 km/h (5 Bft)
02.02.2022 10:32 23,2 °C 6,3 °C 45 % 76 % 1010,6 hPa 0,0 l/m² 27,4 km/h (5 Bft) W 266 ° 1 min 130 W/m² 2,4 °C -3,9 °C 48,3 km/h (6 Bft)
02.02.2022 10:34 23,2 °C 6,3 °C 45 % 77 % 1010,6 hPa 0,0 l/m² 31,9 km/h (5 Bft) W-SW 257 ° 2 min 141 W/m² 2,6 °C -5,0 °C 53,1 km/h (7 Bft)
02.02.2022 10:35 23,2 °C 6,3 °C 45 % 77 % 1010,7 hPa 0,0 l/m² 34,5 km/h (5 Bft) W 269 ° 1 min 128 W/m² 2,6 °C -5,6 °C 54,7 km/h (7 Bft)
02.02.2022 10:37 23,2 °C 6,2 °C 45 % 77 % 1010,6 hPa 0,0 l/m² 40,1 km/h (6 Bft) W-NW 296 ° 2 min 139 W/m² 2,5 °C -6,8 °C 56,3 km/h (7 Bft)
02.02.2022 10:39 23,2 °C 6,2 °C 45 % 77 % 1010,6 hPa 0,0 l/m² 36,2 km/h (5 Bft) W-NW 298 ° 2 min 174 W/m² 2,5 °C -6,1 °C 57,9 km/h (7 Bft)
02.02.2022 10:40 23,1 °C 6,2 °C 45 % 77 % 1010,7 hPa 0,0 l/m² 27,3 km/h (5 Bft) N-NW 340 ° 1 min 174 W/m² 2,5 °C -4,0 °C 41,8 km/h (6 Bft)
02.02.2022 10:42 23,1 °C 6,3 °C 46 % 78 % 1010,7 hPa 0,0 l/m² 28,0 km/h (5 Bft) N-NW 346 ° 2 min 267 W/m² 2,8 °C -4,0 °C 49,9 km/h (7 Bft)
02.02.2022 10:43 23,1 °C 6,3 °C 46 % 77 % 1010,7 hPa 0,0 l/m² 36,1 km/h (5 Bft) W 273 ° 1 min 200 W/m² 2,6 °C -5,9 °C 61,2 km/h (7 Bft)
02.02.2022 10:45 23,1 °C 6,3 °C 46 % 77 % 1010,8 hPa 0,0 l/m² 27,2 km/h (5 Bft) W 280 ° 2 min 316 W/m² 2,6 °C -3,8 °C 49,9 km/h (7 Bft)
02.02.2022 10:47 23,2 °C 6,4 °C 46 % 77 % 1010,8 hPa 0,0 l/m² 32,3 km/h (5 Bft) W 274 ° 2 min 359 W/m² 2,7 °C -4,9 °C 53,1 km/h (7 Bft)
02.02.2022 10:49 23,2 °C 6,4 °C 45 % 77 % 1010,8 hPa 0,0 l/m² 48,6 km/h (6 Bft) W-NW 290 ° 2 min 352 W/m² 2,7 °C -7,7 °C 62,8 km/h (7 Bft)
02.02.2022 10:50 23,2 °C 6,4 °C 45 % 77 % 1011,0 hPa 0,0 l/m² 46,2 km/h (6 Bft) W 280 ° 1 min 352 W/m² 2,7 °C -7,4 °C 59,5 km/h (7 Bft)
02.02.2022 10:52 23,2 °C 6,4 °C 45 % 78 % 1011,0 hPa 0,0 l/m² 40,8 km/h (6 Bft) W-NW 295 ° 2 min 288 W/m² 2,8 °C -6,6 °C 56,3 km/h (7 Bft)
02.02.2022 10:53 23,2 °C 6,4 °C 45 % 78 % 1010,9 hPa 0,0 l/m² 25,7 km/h (4 Bft) N-NW 332 ° 1 min 86 W/m² 2,8 °C -3,3 °C 57,9 km/h (7 Bft)
02.02.2022 10:54 23,2 °C 6,3 °C 45 % 78 % 1011,0 hPa 0,0 l/m² 28,4 km/h (5 Bft) W-NW 300 ° 1 min 62 W/m² 2,8 °C -4,1 °C 43,5 km/h (6 Bft)
02.02.2022 10:56 23,2 °C 6,1 °C 45 % 78 % 1011,1 hPa 0,0 l/m² 22,2 km/h (4 Bft) W-NW 292 ° 2 min 65 W/m² 2,6 °C -2,5 °C 38,6 km/h (6 Bft)
02.02.2022 10:58 23,2 °C 5,8 °C 45 % 78 % 1011,1 hPa 0,0 l/m² 21,8 km/h (4 Bft) NW 318 ° 2 min 77 W/m² 2,3 °C -2,8 °C 46,7 km/h (6 Bft)
02.02.2022 11:00 23,2 °C 5,6 °C 45 % 80 % 1011,1 hPa 0,0 l/m² 26,1 km/h (4 Bft) W-NW 296 ° 2 min 77 W/m² 2,4 °C -4,5 °C 38,6 km/h (6 Bft)
02.02.2022 11:01 23,2 °C 5,4 °C 45 % 80 % 1011,1 hPa 0,0 l/m² 22,6 km/h (4 Bft) W-NW 300 ° 1 min 74 W/m² 2,2 °C -3,6 °C 35,4 km/h (5 Bft)
02.02.2022 11:02 23,2 °C 5,3 °C 45 % 80 % 1011,1 hPa 0,0 l/m² 16,8 km/h (3 Bft) NW 312 ° 1 min 90 W/m² 2,1 °C -1,4 °C 27,4 km/h (5 Bft)
02.02.2022 11:03 23,2 °C 5,2 °C 45 % 81 % 1011,1 hPa 0,0 l/m² 17,2 km/h (3 Bft) W-NW 286 ° 1 min 90 W/m² 2,2 °C -1,7 °C 25,7 km/h (4 Bft)
02.02.2022 11:04 23,2 °C 5,0 °C 45 % 81 % 1011,2 hPa 0,0 l/m² 17,8 km/h (3 Bft) W 280 ° 1 min 113 W/m² 2,0 °C -2,3 °C 32,2 km/h (5 Bft)
02.02.2022 11:06 23,2 °C 4,8 °C 45 % 83 % 1011,1 hPa 0,0 l/m² 14,1 km/h (3 Bft) NW 309 ° 2 min 77 W/m² 2,2 °C -0,7 °C 24,1 km/h (4 Bft)
02.02.2022 11:08 23,1 °C 4,7 °C 46 % 84 % 1011,1 hPa 0,0 l/m² 13,7 km/h (3 Bft) W-NW 296 ° 2 min 287 W/m² 2,2 °C -0,6 °C 25,7 km/h (4 Bft)
02.02.2022 11:10 23,2 °C 4,8 °C 46 % 84 % 1011,1 hPa 0,0 l/m² 13,2 km/h (3 Bft) W 277 ° 2 min 318 W/m² 2,3 °C -0,2 °C 22,5 km/h (4 Bft)
02.02.2022 11:11 23,2 °C 4,9 °C 45 % 85 % 1011,1 hPa 0,0 l/m² 16,0 km/h (3 Bft) W-NW 291 ° 1 min 323 W/m² 2,6 °C -1,5 °C 24,1 km/h (4 Bft)
02.02.2022 11:12 23,2 °C 5,0 °C 45 % 85 % 1011,1 hPa 0,0 l/m² 17,5 km/h (3 Bft) W 276 ° 1 min 323 W/m² 2,7 °C -2,1 °C 27,4 km/h (5 Bft)
02.02.2022 11:15 23,2 °C 5,2 °C 45 % 85 % 1011,2 hPa 0,0 l/m² 21,3 km/h (4 Bft) W 269 ° 3 min 330 W/m² 2,9 °C -3,4 °C 38,6 km/h (6 Bft)
02.02.2022 11:17 23,3 °C 5,4 °C 45 % 83 % 1011,1 hPa 0,0 l/m² 26,1 km/h (4 Bft) NW 320 ° 2 min 334 W/m² 2,7 °C -4,7 °C 43,5 km/h (6 Bft)
02.02.2022 11:19 23,3 °C 5,7 °C 45 % 82 % 1011,1 hPa 0,0 l/m² 31,0 km/h (5 Bft) W-NW 283 ° 2 min 339 W/m² 2,9 °C -5,6 °C 41,8 km/h (6 Bft)
02.02.2022 11:21 23,3 °C 5,9 °C 45 % 80 % 1011,1 hPa 0,0 l/m² 19,8 km/h (3 Bft) NW 305 ° 2 min 343 W/m² 2,7 °C -1,9 °C 37,0 km/h (5 Bft)
02.02.2022 11:22 23,4 °C 6,1 °C 45 % 80 % 1011,2 hPa 0,0 l/m² 19,0 km/h (3 Bft) W-NW 296 ° 1 min 346 W/m² 2,9 °C -1,4 °C 30,6 km/h (5 Bft)
02.02.2022 11:23 23,4 °C 6,2 °C 45 % 79 % 1011,2 hPa 0,0 l/m² 21,3 km/h (4 Bft) W-NW 284 ° 1 min 346 W/m² 2,8 °C -2,1 °C 30,6 km/h (5 Bft)
02.02.2022 11:26 23,4 °C 6,5 °C 45 % 78 % 1011,1 hPa 0,0 l/m² 21,8 km/h (4 Bft) W-NW 300 ° 3 min 355 W/m² 2,9 °C -1,9 °C 35,4 km/h (5 Bft)
02.02.2022 11:28 23,4 °C 6,7 °C 45 % 77 % 1011,1 hPa 0,0 l/m² 28,7 km/h (5 Bft) W 277 ° 2 min 359 W/m² 3,0 °C -3,7 °C 45,1 km/h (6 Bft)
02.02.2022 11:30 23,5 °C 6,8 °C 45 % 77 % 1011,1 hPa 0,0 l/m² 18,6 km/h (3 Bft) W 273 ° 2 min 376 W/m² 3,1 °C -0,3 °C 38,6 km/h (6 Bft)
02.02.2022 11:31 23,6 °C 6,8 °C 45 % 77 % 1011,0 hPa 0,0 l/m² 19,8 km/h (3 Bft) W 277 ° 1 min 366 W/m² 3,1 °C -0,8 °C 37,0 km/h (5 Bft)
02.02.2022 11:33 23,6 °C 6,9 °C 45 % 76 % 1011,0 hPa 0,0 l/m² 25,2 km/h (4 Bft) W-NW 300 ° 2 min 366 W/m² 3,0 °C -2,4 °C 40,2 km/h (6 Bft)
02.02.2022 11:35 23,6 °C 6,9 °C 45 % 74 % 1011,0 hPa 0,0 l/m² 24,8 km/h (4 Bft) W-SW 246 ° 2 min 367 W/m² 2,6 °C -2,3 °C 40,2 km/h (6 Bft)
02.02.2022 11:37 23,6 °C 6,9 °C 45 % 75 % 1011,2 hPa 0,0 l/m² 27,4 km/h (5 Bft) W-NW 294 ° 2 min 366 W/m² 2,8 °C -3,0 °C 46,7 km/h (6 Bft)
02.02.2022 11:39 23,6 °C 7,0 °C 45 % 75 % 1011,2 hPa 0,0 l/m² 35,9 km/h (5 Bft) NW 311 ° 2 min 366 W/m² 2,9 °C -4,8 °C 57,9 km/h (7 Bft)
02.02.2022 11:41 23,7 °C 7,0 °C 45 % 75 % 1011,3 hPa 0,0 l/m² 23,6 km/h (4 Bft) NW 322 ° 2 min 373 W/m² 2,9 °C -1,8 °C 40,2 km/h (6 Bft)
02.02.2022 11:42 23,7 °C 7,1 °C 45 % 75 % 1011,3 hPa 0,0 l/m² 19,6 km/h (3 Bft) W-NW 284 ° 1 min 387 W/m² 3,0 °C -0,3 °C 32,2 km/h (5 Bft)
02.02.2022 11:43 23,7 °C 7,1 °C 45 % 75 % 1011,3 hPa 0,0 l/m² 19,6 km/h (3 Bft) W-NW 284 ° 1 min 399 W/m² 3,0 °C -0,3 °C 33,8 km/h (5 Bft)
02.02.2022 11:46 23,7 °C 7,1 °C 45 % 74 % 1011,4 hPa 0,0 l/m² 26,7 km/h (4 Bft) W 281 ° 3 min 397 W/m² 2,8 °C -2,6 °C 53,1 km/h (7 Bft)
02.02.2022 11:48 23,7 °C 7,1 °C 45 % 75 % 1011,5 hPa 0,0 l/m² 22,5 km/h (4 Bft) W-NW 289 ° 2 min 406 W/m² 3,0 °C -1,3 °C 49,9 km/h (7 Bft)
02.02.2022 11:50 23,7 °C 7,1 °C 45 % 75 % 1011,4 hPa 0,0 l/m² 24,5 km/h (4 Bft) W 279 ° 2 min 425 W/m² 3,0 °C -1,9 °C 38,6 km/h (6 Bft)
02.02.2022 11:51 23,7 °C 7,1 °C 45 % 75 % 1011,5 hPa 0,0 l/m² 24,6 km/h (4 Bft) W-NW 300 ° 1 min 422 W/m² 3,0 °C -2,0 °C 45,1 km/h (6 Bft)
02.02.2022 11:52 23,7 °C 7,1 °C 45 % 75 % 1011,5 hPa 0,0 l/m² 21,6 km/h (4 Bft) NW 309 ° 1 min 336 W/m² 3,0 °C -1,0 °C 37,0 km/h (5 Bft)
02.02.2022 11:53 23,7 °C 7,1 °C 45 % 74 % 1011,4 hPa 0,0 l/m² 19,4 km/h (3 Bft) W 280 ° 1 min 420 W/m² 2,8 °C -0,2 °C 35,4 km/h (5 Bft)
02.02.2022 11:54 23,8 °C 7,1 °C 45 % 74 % 1011,5 hPa 0,0 l/m² 20,9 km/h (4 Bft) W-NW 300 ° 1 min 483 W/m² 2,8 °C -0,8 °C 30,6 km/h (5 Bft)
02.02.2022 11:56 23,8 °C 7,2 °C 45 % 74 % 1011,5 hPa 0,0 l/m² 24,6 km/h (4 Bft) NW 318 ° 2 min 483 W/m² 2,9 °C -1,8 °C 41,8 km/h (6 Bft)
02.02.2022 11:58 23,8 °C 7,2 °C 45 % 73 % 1011,7 hPa 0,0 l/m² 24,7 km/h (4 Bft) N-NW 327 ° 2 min 459 W/m² 2,7 °C -1,9 °C 49,9 km/h (7 Bft)
02.02.2022 12:00 23,8 °C 7,1 °C 45 % 74 % 1011,8 hPa 0,0 l/m² 18,8 km/h (3 Bft) W-NW 301 ° 2 min 292 W/m² 2,8 °C -0,0 °C 32,2 km/h (5 Bft)
02.02.2022 12:01 23,8 °C 7,1 °C 45 % 74 % 1011,9 hPa 0,0 l/m² 28,4 km/h (5 Bft) W-NW 291 ° 1 min 487 W/m² 2,8 °C -3,0 °C 43,5 km/h (6 Bft)
02.02.2022 12:02 23,8 °C 7,1 °C 45 % 73 % 1011,9 hPa 0,0 l/m² 26,4 km/h (4 Bft) W 270 ° 1 min 487 W/m² 2,6 °C -2,5 °C 40,2 km/h (6 Bft)
02.02.2022 12:03 23,8 °C 7,1 °C 45 % 74 % 1011,9 hPa 0,0 l/m² 22,1 km/h (4 Bft) W 281 ° 1 min 148 W/m² 2,8 °C -1,2 °C 35,4 km/h (5 Bft)
02.02.2022 12:04 23,8 °C 7,1 °C 45 % 74 % 1011,9 hPa 0,0 l/m² 36,3 km/h (5 Bft) W 276 ° 1 min 107 W/m² 2,8 °C -4,8 °C 56,3 km/h (7 Bft)
02.02.2022 12:06 23,8 °C 6,9 °C 45 % 73 % 1012,0 hPa 0,0 l/m² 27,6 km/h (5 Bft) NW 306 ° 2 min 148 W/m² 2,4 °C -3,1 °C 45,1 km/h (6 Bft)
02.02.2022 12:08 23,7 °C 6,7 °C 45 % 74 % 1012,0 hPa 0,0 l/m² 19,6 km/h (3 Bft) NW 315 ° 2 min 396 W/m² 2,4 °C -0,8 °C 37,0 km/h (5 Bft)
02.02.2022 12:10 23,7 °C 6,8 °C 45 % 74 % 1012,0 hPa 0,0 l/m² 16,9 km/h (3 Bft) NW 313 ° 2 min 383 W/m² 2,5 °C 0,4 °C 29,0 km/h (5 Bft)
02.02.2022 12:11 23,7 °C 6,8 °C 45 % 74 % 1012,0 hPa 0,0 l/m² 28,1 km/h (5 Bft) W-NW 288 ° 1 min 387 W/m² 2,5 °C -3,4 °C 48,3 km/h (6 Bft)
02.02.2022 12:12 23,7 °C 6,8 °C 45 % 73 % 1012,0 hPa 0,0 l/m² 21,5 km/h (4 Bft) N-NW 332 ° 1 min 387 W/m² 2,3 °C -1,4 °C 37,0 km/h (5 Bft)
02.02.2022 12:13 23,8 °C 6,9 °C 45 % 73 % 1012,0 hPa 0,0 l/m² 23,7 km/h (4 Bft) NW 318 ° 1 min 387 W/m² 2,4 °C -2,0 °C 30,6 km/h (5 Bft)
02.02.2022 12:14 23,8 °C 6,9 °C 45 % 73 % 1012,0 hPa 0,0 l/m² 21,7 km/h (4 Bft) NW 314 ° 1 min 390 W/m² 2,4 °C -1,3 °C 30,6 km/h (5 Bft)
02.02.2022 12:16 23,8 °C 7,0 °C 45 % 73 % 1012,0 hPa 0,0 l/m² 22,1 km/h (4 Bft) W 271 ° 2 min 417 W/m² 2,5 °C -1,3 °C 41,8 km/h (6 Bft)
02.02.2022 12:18 23,8 °C 7,0 °C 45 % 72 % 1012,1 hPa 0,0 l/m² 27,7 km/h (5 Bft) NW 305 ° 2 min 422 W/m² 2,3 °C -3,0 °C 53,1 km/h (7 Bft)
02.02.2022 12:20 23,8 °C 7,1 °C 45 % 73 % 1012,2 hPa 0,0 l/m² 24,9 km/h (4 Bft) W 262 ° 2 min 417 W/m² 2,6 °C -2,1 °C 43,5 km/h (6 Bft)
02.02.2022 12:22 23,8 °C 7,2 °C 45 % 72 % 1012,3 hPa 0,0 l/m² 29,4 km/h (5 Bft) W-NW 286 ° 2 min 413 W/m² 2,5 °C -3,1 °C 49,9 km/h (7 Bft)
02.02.2022 12:23 23,8 °C 7,2 °C 45 % 73 % 1012,3 hPa 0,0 l/m² 19,9 km/h (4 Bft) NW 310 ° 1 min 427 W/m² 2,7 °C -0,3 °C 38,6 km/h (6 Bft)
02.02.2022 12:24 23,8 °C 7,2 °C 45 % 73 % 1012,3 hPa 0,0 l/m² 18,9 km/h (3 Bft) N-NW 331 ° 1 min 427 W/m² 2,7 °C 0,1 °C 32,2 km/h (5 Bft)
02.02.2022 12:26 23,8 °C 7,3 °C 45 % 72 % 1012,4 hPa 0,0 l/m² 21,8 km/h (4 Bft) W 271 ° 2 min 448 W/m² 2,6 °C -0,8 °C 37,0 km/h (5 Bft)
02.02.2022 12:28 23,9 °C 7,2 °C 45 % 72 % 1012,5 hPa 0,0 l/m² 20,2 km/h (4 Bft) W-NW 296 ° 2 min 432 W/m² 2,5 °C -0,4 °C 32,2 km/h (5 Bft)
02.02.2022 12:30 23,9 °C 7,2 °C 45 % 72 % 1012,3 hPa 0,0 l/m² 21,4 km/h (4 Bft) W-NW 285 ° 2 min 392 W/m² 2,5 °C -0,8 °C 32,2 km/h (5 Bft)
02.02.2022 12:32 23,9 °C 7,2 °C 45 % 72 % 1012,4 hPa 0,0 l/m² 19,7 km/h (3 Bft) W 277 ° 2 min 417 W/m² 2,5 °C -0,2 °C 32,2 km/h (5 Bft)
02.02.2022 12:33 23,9 °C 7,3 °C 45 % 72 % 1012,4 hPa 0,0 l/m² 25,0 km/h (4 Bft) W 273 ° 1 min 424 W/m² 2,6 °C -1,8 °C 40,2 km/h (6 Bft)
02.02.2022 12:34 23,9 °C 7,3 °C 45 % 72 % 1012,6 hPa 0,0 l/m² 24,3 km/h (4 Bft) W-NW 296 ° 1 min 424 W/m² 2,6 °C -1,6 °C 37,0 km/h (5 Bft)
02.02.2022 12:36 23,9 °C 7,2 °C 45 % 72 % 1012,6 hPa 0,0 l/m² 22,7 km/h (4 Bft) W-NW 284 ° 2 min 234 W/m² 2,5 °C -1,3 °C 37,0 km/h (5 Bft)
02.02.2022 12:38 23,9 °C 7,1 °C 45 % 71 % 1012,6 hPa 0,0 l/m² 25,9 km/h (4 Bft) NW 319 ° 2 min 234 W/m² 2,2 °C -2,4 °C 49,9 km/h (7 Bft)
02.02.2022 12:40 23,9 °C 7,1 °C 45 % 71 % 1012,6 hPa 0,0 l/m² 24,9 km/h (4 Bft) W-NW 293 ° 2 min 200 W/m² 2,2 °C -2,1 °C 38,6 km/h (6 Bft)
02.02.2022 12:42 23,9 °C 7,1 °C 45 % 72 % 1012,5 hPa 0,0 l/m² 17,6 km/h (3 Bft) NW 319 ° 2 min 431 W/m² 2,4 °C 0,5 °C 30,6 km/h (5 Bft)
02.02.2022 12:43 23,9 °C 7,1 °C 45 % 73 % 1012,5 hPa 0,0 l/m² 16,2 km/h (3 Bft) W 270 ° 1 min 501 W/m² 2,6 °C 1,1 °C 22,5 km/h (4 Bft)
02.02.2022 12:45 23,9 °C 7,3 °C 45 % 72 % 1012,5 hPa 0,0 l/m² 33,7 km/h (5 Bft) W-NW 299 ° 2 min 492 W/m² 2,6 °C -4,0 °C 49,9 km/h (7 Bft)
02.02.2022 12:47 23,9 °C 7,2 °C 45 % 72 % 1012,7 hPa 0,0 l/m² 32,6 km/h (5 Bft) W-NW 292 ° 2 min 98 W/m² 2,5 °C -3,9 °C 51,5 km/h (7 Bft)
02.02.2022 12:49 23,8 °C 7,1 °C 45 % 72 % 1012,6 hPa 0,0 l/m² 25,1 km/h (4 Bft) W 275 ° 2 min 172 W/m² 2,4 °C -2,1 °C 51,5 km/h (7 Bft)
02.02.2022 12:51 23,8 °C 6,9 °C 45 % 73 % 1012,6 hPa 0,0 l/m² 31,8 km/h (5 Bft) W 276 ° 2 min 172 W/m² 2,4 °C -4,1 °C 48,3 km/h (6 Bft)
02.02.2022 12:52 23,8 °C 6,9 °C 45 % 73 % 1012,6 hPa 0,0 l/m² 27,1 km/h (5 Bft) W 271 ° 1 min 172 W/m² 2,4 °C -3,0 °C 43,5 km/h (6 Bft)
02.02.2022 12:53 23,8 °C 6,9 °C 45 % 73 % 1012,7 hPa 0,0 l/m² 27,7 km/h (5 Bft) W-NW 288 ° 1 min 127 W/m² 2,4 °C -3,1 °C 41,8 km/h (6 Bft)
02.02.2022 12:55 23,7 °C 6,8 °C 45 % 72 % 1012,7 hPa 0,0 l/m² 29,1 km/h (5 Bft) W 273 ° 2 min 125 W/m² 2,1 °C -3,6 °C 45,1 km/h (6 Bft)
02.02.2022 12:57 23,7 °C 6,8 °C 45 % 73 % 1012,8 hPa 0,0 l/m² 21,0 km/h (4 Bft) W 276 ° 2 min 97 W/m² 2,3 °C -1,2 °C 35,4 km/h (5 Bft)
02.02.2022 12:59 23,7 °C 6,8 °C 45 % 72 % 1012,7 hPa 0,0 l/m² 25,6 km/h (4 Bft) W 273 ° 2 min 79 W/m² 2,1 °C -2,7 °C 40,2 km/h (6 Bft)
02.02.2022 13:01 23,7 °C 6,7 °C 45 % 72 % 1012,7 hPa 0,0 l/m² 20,2 km/h (4 Bft) W-NW 284 ° 2 min 81 W/m² 2,0 °C -1,1 °C 40,2 km/h (6 Bft)
02.02.2022 13:02 23,7 °C 6,7 °C 45 % 73 % 1012,7 hPa 0,0 l/m² 17,7 km/h (3 Bft) W 269 ° 1 min 83 W/m² 2,2 °C -0,1 °C 24,1 km/h (4 Bft)
02.02.2022 13:03 23,7 °C 6,7 °C 45 % 73 % 1012,8 hPa 0,0 l/m² 25,2 km/h (4 Bft) W 277 ° 1 min 90 W/m² 2,2 °C -2,7 °C 37,0 km/h (5 Bft)
02.02.2022 13:05 23,7 °C 6,6 °C 45 % 72 % 1012,8 hPa 0,0 l/m² 21,1 km/h (4 Bft) W 277 ° 2 min 171 W/m² 1,9 °C -1,5 °C 32,2 km/h (5 Bft)
02.02.2022 13:07 23,6 °C 6,6 °C 45 % 73 % 1012,8 hPa 0,0 l/m² 24,8 km/h (4 Bft) W 259 ° 2 min 160 W/m² 2,1 °C -2,7 °C 45,1 km/h (6 Bft)
02.02.2022 13:09 23,6 °C 6,7 °C 45 % 73 % 1012,7 hPa 0,0 l/m² 26,3 km/h (4 Bft) NW 311 ° 2 min 111 W/m² 2,2 °C -3,0 °C 48,3 km/h (6 Bft)
02.02.2022 13:11 23,6 °C 6,7 °C 45 % 73 % 1012,9 hPa 0,0 l/m² 27,7 km/h (5 Bft) NW 320 ° 2 min 72 W/m² 2,2 °C -3,4 °C 49,9 km/h (7 Bft)
02.02.2022 13:12 23,6 °C 6,7 °C 45 % 73 % 1012,9 hPa 0,0 l/m² 37,1 km/h (5 Bft) W 264 ° 1 min 58 W/m² 2,2 °C -5,5 °C 48,3 km/h (6 Bft)
02.02.2022 13:13 23,6 °C 6,7 °C 45 % 72 % 1013,0 hPa 0,0 l/m² 20,9 km/h (4 Bft) NW 306 ° 0 min 46 W/m² 2,0 °C -1,3 °C 30,6 km/h (5 Bft)
02.02.2022 13:15 23,6 °C 6,6 °C 45 % 75 % 1013,1 hPa 0,0 l/m² 24,1 km/h (4 Bft) W-NW 300 ° 0 min 46 W/m² 2,5 °C -2,5 °C 37,0 km/h (5 Bft)
02.02.2022 13:17 23,5 °C 6,3 °C 45 % 76 % 1013,1 hPa 0,2 l/m² 23,6 km/h (4 Bft) NW 306 ° 2 min 79 W/m² 2,4 °C -2,7 °C 45,1 km/h (6 Bft)
02.02.2022 13:19 23,5 °C 6,0 °C 45 % 77 % 1012,9 hPa 0,0 l/m² 18,5 km/h (3 Bft) W-NW 298 ° 2 min 102 W/m² 2,3 °C -1,3 °C 30,6 km/h (5 Bft)
02.02.2022 13:21 23,4 °C 5,7 °C 45 % 78 % 1013,0 hPa 0,0 l/m² 15,7 km/h (3 Bft) NW 309 ° 2 min 102 W/m² 2,2 °C -0,4 °C 25,7 km/h (4 Bft)
02.02.2022 13:22 23,4 °C 5,6 °C 45 % 79 % 1013,0 hPa 0,0 l/m² 21,6 km/h (4 Bft) W-NW 284 ° 1 min 100 W/m² 2,3 °C -3,0 °C 32,2 km/h (5 Bft)
02.02.2022 13:23 23,4 °C 5,6 °C 45 % 79 % 1013,0 hPa 0,0 l/m² 20,3 km/h (4 Bft) W 272 ° 1 min 100 W/m² 2,3 °C -2,5 °C 27,4 km/h (5 Bft)
02.02.2022 13:25 23,4 °C 5,6 °C 45 % 80 % 1013,0 hPa 0,0 l/m² 23,5 km/h (4 Bft) W-NW 293 ° 2 min 197 W/m² 2,4 °C -3,6 °C 48,3 km/h (6 Bft)
02.02.2022 13:27 23,4 °C 5,8 °C 45 % 80 % 1013,1 hPa 0,0 l/m² 25,8 km/h (4 Bft) W 281 ° 2 min 424 W/m² 2,6 °C -4,1 °C 37,0 km/h (5 Bft)
02.02.2022 13:29 23,4 °C 6,2 °C 45 % 79 % 1013,0 hPa 0,0 l/m² 27,7 km/h (5 Bft) W-NW 283 ° 2 min 471 W/m² 2,8 °C -4,1 °C 54,7 km/h (7 Bft)
02.02.2022 13:31 23,4 °C 6,4 °C 45 % 78 % 1013,0 hPa 0,0 l/m² 25,2 km/h (4 Bft) SW 232 ° 2 min 388 W/m² 2,8 °C -3,1 °C 49,9 km/h (7 Bft)
02.02.2022 13:32 23,4 °C 6,6 °C 45 % 78 % 1013,0 hPa 0,0 l/m² 23,0 km/h (4 Bft) W 279 ° 1 min 388 W/m² 3,0 °C -2,2 °C 33,8 km/h (5 Bft)
02.02.2022 13:33 23,4 °C 6,7 °C 45 % 77 % 1013,2 hPa 0,0 l/m² 24,8 km/h (4 Bft) NW 309 ° 1 min 494 W/m² 3,0 °C -2,6 °C 38,6 km/h (6 Bft)
02.02.2022 13:35 23,4 °C 6,8 °C 45 % 76 % 1013,1 hPa 0,0 l/m² 24,8 km/h (4 Bft) W 272 ° 2 min 225 W/m² 2,9 °C -2,4 °C 40,2 km/h (6 Bft)
02.02.2022 13:37 23,4 °C 6,8 °C 45 % 75 % 1013,2 hPa 0,0 l/m² 20,8 km/h (4 Bft) NW 318 ° 2 min 125 W/m² 2,7 °C -1,1 °C 35,4 km/h (5 Bft)
02.02.2022 13:39 23,4 °C 6,7 °C 45 % 75 % 1013,2 hPa 0,0 l/m² 17,7 km/h (3 Bft) NW 304 ° 2 min 90 W/m² 2,6 °C -0,1 °C 29,0 km/h (5 Bft)
02.02.2022 13:41 23,4 °C 6,6 °C 45 % 76 % 1013,3 hPa 0,0 l/m² 15,7 km/h (3 Bft) W-NW 298 ° 2 min 84 W/m² 2,7 °C 0,7 °C 30,6 km/h (5 Bft)
02.02.2022 13:42 23,4 °C 6,6 °C 45 % 76 % 1013,3 hPa 0,0 l/m² 15,7 km/h (3 Bft) N 355 ° 1 min 84 W/m² 2,7 °C 0,7 °C 19,3 km/h (3 Bft)
02.02.2022 13:43 23,4 °C 6,4 °C 45 % 76 % 1013,4 hPa 0,0 l/m² 24,5 km/h (4 Bft) NW 324 ° 1 min 404 W/m² 2,5 °C -2,9 °C 40,2 km/h (6 Bft)
02.02.2022 13:45 23,4 °C 6,1 °C 45 % 78 % 1013,3 hPa 0,0 l/m² 25,4 km/h (4 Bft) NW 315 ° 2 min 374 W/m² 2,6 °C -3,6 °C 33,8 km/h (5 Bft)
02.02.2022 13:47 23,4 °C 5,8 °C 45 % 79 % 1013,5 hPa 0,0 l/m² 23,0 km/h (4 Bft) N-NW 346 ° 2 min 383 W/m² 2,4 °C -3,2 °C 40,2 km/h (6 Bft)
02.02.2022 13:49 23,4 °C 5,6 °C 45 % 80 % 1013,5 hPa 0,0 l/m² 25,1 km/h (4 Bft) W-NW 296 ° 2 min 186 W/m² 2,4 °C -4,2 °C 40,2 km/h (6 Bft)
02.02.2022 13:51 23,4 °C 5,3 °C 45 % 81 % 1013,5 hPa 0,0 l/m² 17,2 km/h (3 Bft) W-NW 290 ° 2 min 325 W/m² 2,3 °C -1,6 °C 27,4 km/h (5 Bft)
02.02.2022 13:52 23,4 °C 5,3 °C 45 % 81 % 1013,5 hPa 0,0 l/m² 12,9 km/h (3 Bft) N-NW 327 ° 1 min 325 W/m² 2,3 °C 0,6 °C 22,5 km/h (4 Bft)
02.02.2022 13:53 23,4 °C 5,2 °C 45 % 82 % 1013,6 hPa 0,0 l/m² 12,1 km/h (2 Bft) NW 319 ° 1 min 325 W/m² 2,4 °C 0,9 °C 20,9 km/h (4 Bft)
02.02.2022 13:55 23,4 °C 5,2 °C 45 % 83 % 1013,6 hPa 0,0 l/m² 13,9 km/h (3 Bft) W-NW 295 ° 2 min 90 W/m² 2,6 °C -0,1 °C 25,7 km/h (4 Bft)
02.02.2022 13:57 23,4 °C 5,3 °C 45 % 82 % 1013,5 hPa 0,0 l/m² 17,4 km/h (3 Bft) W-NW 284 ° 2 min 378 W/m² 2,5 °C -1,7 °C 32,2 km/h (5 Bft)
02.02.2022 13:59 23,4 °C 5,6 °C 45 % 82 % 1013,5 hPa 0,0 l/m² 20,2 km/h (4 Bft) W-NW 287 ° 2 min 388 W/m² 2,8 °C -2,5 °C 32,2 km/h (5 Bft)
02.02.2022 14:01 23,4 °C 5,9 °C 45 % 80 % 1013,5 hPa 0,0 l/m² 17,6 km/h (3 Bft) N-NW 327 ° 2 min 380 W/m² 2,7 °C -1,0 °C 30,6 km/h (5 Bft)
02.02.2022 14:02 23,4 °C 6,1 °C 45 % 80 % 1013,5 hPa 0,0 l/m² 16,9 km/h (3 Bft) W-NW 300 ° 1 min 299 W/m² 2,9 °C -0,5 °C 32,2 km/h (5 Bft)
02.02.2022 14:03 23,4 °C 6,2 °C 45 % 80 % 1013,5 hPa 0,0 l/m² 24,0 km/h (4 Bft) NW 309 ° 1 min 323 W/m² 3,0 °C -3,0 °C 37,0 km/h (5 Bft)
02.02.2022 14:05 23,4 °C 6,2 °C 45 % 78 % 1013,5 hPa 0,0 l/m² 17,4 km/h (3 Bft) W-NW 295 ° 2 min 127 W/m² 2,7 °C -0,6 °C 29,0 km/h (5 Bft)
02.02.2022 14:07 23,4 °C 6,2 °C 45 % 77 % 1013,5 hPa 0,0 l/m² 15,0 km/h (3 Bft) NW 319 ° 2 min 148 W/m² 2,5 °C 0,5 °C 24,1 km/h (4 Bft)
02.02.2022 14:09 23,4 °C 6,2 °C 45 % 78 % 1013,5 hPa 0,0 l/m² 17,8 km/h (3 Bft) W 267 ° 2 min 111 W/m² 2,7 °C -0,7 °C 29,0 km/h (5 Bft)
02.02.2022 14:11 23,4 °C 6,2 °C 45 % 78 % 1013,7 hPa 0,0 l/m² 14,8 km/h (3 Bft) W-NW 295 ° 2 min 91 W/m² 2,7 °C 0,6 °C 24,1 km/h (4 Bft)
02.02.2022 14:12 23,4 °C 6,2 °C 45 % 77 % 1013,7 hPa 0,0 l/m² 21,1 km/h (4 Bft) W 280 ° 1 min 62 W/m² 2,5 °C -2,0 °C 38,6 km/h (6 Bft)
02.02.2022 14:13 23,4 °C 6,2 °C 45 % 77 % 1013,5 hPa 0,0 l/m² 22,6 km/h (4 Bft) W-NW 290 ° 0 min 42 W/m² 2,5 °C -2,6 °C 37,0 km/h (5 Bft)
02.02.2022 14:15 23,4 °C 6,2 °C 45 % 76 % 1013,7 hPa 0,0 l/m² 18,7 km/h (3 Bft) N-NW 342 ° 0 min 35 W/m² 2,3 °C -1,1 °C 29,0 km/h (5 Bft)
02.02.2022 14:17 23,4 °C 6,1 °C 45 % 76 % 1013,7 hPa 0,0 l/m² 13,2 km/h (3 Bft) W-NW 296 ° 0 min 39 W/m² 2,2 °C 1,3 °C 24,1 km/h (4 Bft)
02.02.2022 14:19 23,4 °C 6,2 °C 45 % 77 % 1013,6 hPa 0,0 l/m² 16,1 km/h (3 Bft) W-NW 299 ° 2 min 311 W/m² 2,5 °C 0,0 °C 32,2 km/h (5 Bft)
02.02.2022 14:21 23,4 °C 6,4 °C 45 % 75 % 1013,7 hPa 0,0 l/m² 22,2 km/h (4 Bft) W 281 ° 2 min 306 W/m² 2,3 °C -2,2 °C 37,0 km/h (5 Bft)
02.02.2022 14:22 23,4 °C 6,6 °C 45 % 74 % 1013,7 hPa 0,0 l/m² 13,6 km/h (3 Bft) W-NW 294 ° 1 min 302 W/m² 2,3 °C 1,7 °C 22,5 km/h (4 Bft)
02.02.2022 14:23 23,4 °C 6,7 °C 45 % 74 % 1013,7 hPa 0,0 l/m² 12,7 km/h (3 Bft) W-NW 294 ° 1 min 301 W/m² 2,4 °C 2,3 °C 22,5 km/h (4 Bft)
02.02.2022 14:25 23,4 °C 6,8 °C 45 % 72 % 1013,9 hPa 0,0 l/m² 19,8 km/h (3 Bft) W 280 ° 2 min 295 W/m² 2,1 °C -0,8 °C 32,2 km/h (5 Bft)
02.02.2022 14:27 23,4 °C 6,9 °C 45 % 71 % 1013,9 hPa 0,0 l/m² 18,7 km/h (3 Bft) W 276 ° 2 min 295 W/m² 2,0 °C -0,2 °C 30,6 km/h (5 Bft)
02.02.2022 14:29 23,4 °C 6,9 °C 45 % 71 % 1013,9 hPa 0,0 l/m² 26,1 km/h (4 Bft) W-NW 298 ° 2 min 320 W/m² 2,0 °C -2,7 °C 37,0 km/h (5 Bft)
02.02.2022 14:31 23,4 °C 7,0 °C 45 % 71 % 1014,0 hPa 0,0 l/m² 19,9 km/h (4 Bft) W 272 ° 2 min 355 W/m² 2,1 °C -0,6 °C 35,4 km/h (5 Bft)
02.02.2022 14:32 23,4 °C 7,1 °C 45 % 71 % 1014,0 hPa 0,0 l/m² 25,7 km/h (4 Bft) NW 310 ° 1 min 374 W/m² 2,2 °C -2,3 °C 41,8 km/h (6 Bft)
02.02.2022 14:33 23,4 °C 7,2 °C 45 % 71 % 1014,0 hPa 0,0 l/m² 21,6 km/h (4 Bft) W 266 ° 1 min 369 W/m² 2,3 °C -0,9 °C 30,6 km/h (5 Bft)
02.02.2022 14:35 23,4 °C 7,2 °C 45 % 69 % 1013,9 hPa 0,0 l/m² 26,8 km/h (4 Bft) NW 305 ° 2 min 374 W/m² 1,9 °C -2,5 °C 40,2 km/h (6 Bft)
02.02.2022 14:37 23,4 °C 7,3 °C 45 % 69 % 1014,0 hPa 0,0 l/m² 20,5 km/h (4 Bft) NW 304 ° 2 min 378 W/m² 2,0 °C -0,4 °C 40,2 km/h (6 Bft)
02.02.2022 14:39 23,5 °C 7,3 °C 45 % 69 % 1014,0 hPa 0,0 l/m² 23,3 km/h (4 Bft) W 275 ° 2 min 366 W/m² 2,0 °C -1,3 °C 38,6 km/h (6 Bft)
02.02.2022 14:41 23,5 °C 7,3 °C 45 % 68 % 1014,0 hPa 0,0 l/m² 22,7 km/h (4 Bft) NW 311 ° 2 min 199 W/m² 1,8 °C -1,1 °C 37,0 km/h (5 Bft)
02.02.2022 14:42 23,5 °C 7,4 °C 45 % 69 % 1014,0 hPa 0,0 l/m² 20,2 km/h (4 Bft) W-NW 292 ° 1 min 374 W/m² 2,1 °C -0,1 °C 25,7 km/h (4 Bft)
02.02.2022 14:43 23,5 °C 7,4 °C 46 % 69 % 1014,0 hPa 0,0 l/m² 13,8 km/h (3 Bft) W-NW 285 ° 1 min 366 W/m² 2,1 °C 2,6 °C 22,5 km/h (4 Bft)
02.02.2022 14:45 23,5 °C 7,5 °C 46 % 70 % 1014,1 hPa 0,0 l/m² 15,3 km/h (3 Bft) NW 318 ° 2 min 171 W/m² 2,4 °C 2,0 °C 30,6 km/h (5 Bft)
02.02.2022 14:47 23,5 °C 7,6 °C 46 % 70 % 1014,1 hPa 0,0 l/m² 19,8 km/h (3 Bft) W 271 ° 2 min 338 W/m² 2,5 °C 0,3 °C 30,6 km/h (5 Bft)
02.02.2022 14:49 23,5 °C 7,4 °C 46 % 70 % 1014,1 hPa 0,0 l/m² 22,2 km/h (4 Bft) W-NW 288 ° 2 min 207 W/m² 2,3 °C -0,8 °C 33,8 km/h (5 Bft)
02.02.2022 14:51 23,5 °C 7,4 °C 46 % 70 % 1014,1 hPa 0,0 l/m² 22,6 km/h (4 Bft) W-NW 299 ° 2 min 118 W/m² 2,3 °C -1,0 °C 38,6 km/h (6 Bft)
02.02.2022 14:52 23,5 °C 7,4 °C 46 % 69 % 1014,1 hPa 0,0 l/m² 24,3 km/h (4 Bft) NW 313 ° 1 min 104 W/m² 2,1 °C -1,5 °C 35,4 km/h (5 Bft)
02.02.2022 14:53 23,5 °C 7,3 °C 46 % 70 % 1014,2 hPa 0,0 l/m² 16,3 km/h (3 Bft) W-NW 294 ° 1 min 104 W/m² 2,2 °C 1,3 °C 27,4 km/h (5 Bft)
02.02.2022 14:55 23,5 °C 7,3 °C 46 % 70 % 1014,2 hPa 0,0 l/m² 16,2 km/h (3 Bft) W-NW 292 ° 2 min 199 W/m² 2,2 °C 1,3 °C 35,4 km/h (5 Bft)
02.02.2022 14:57 23,5 °C 7,4 °C 46 % 69 % 1014,2 hPa 0,0 l/m² 16,3 km/h (3 Bft) W-NW 288 ° 2 min 111 W/m² 2,1 °C 1,4 °C 29,0 km/h (5 Bft)
02.02.2022 14:59 23,5 °C 7,3 °C 46 % 69 % 1014,3 hPa 0,0 l/m² 16,3 km/h (3 Bft) NW 325 ° 2 min 86 W/m² 2,0 °C 1,3 °C 29,0 km/h (5 Bft)
02.02.2022 15:01 23,5 °C 7,4 °C 46 % 69 % 1014,3 hPa 0,0 l/m² 17,5 km/h (3 Bft) W-SW 252 ° 2 min 65 W/m² 2,1 °C 0,9 °C 29,0 km/h (5 Bft)
02.02.2022 15:02 23,5 °C 7,4 °C 46 % 69 % 1014,3 hPa 0,0 l/m² 25,9 km/h (4 Bft) W-NW 303 ° 1 min 72 W/m² 2,1 °C -1,9 °C 32,2 km/h (5 Bft)
02.02.2022 15:03 23,5 °C 7,3 °C 46 % 68 % 1014,3 hPa 0,0 l/m² 27,5 km/h (5 Bft) NW 304 ° 1 min 65 W/m² 1,8 °C -2,5 °C 38,6 km/h (6 Bft)
02.02.2022 15:05 23,5 °C 7,2 °C 46 % 68 % 1014,4 hPa 0,0 l/m² 17,9 km/h (3 Bft) NW 304 ° 2 min 91 W/m² 1,7 °C 0,5 °C 30,6 km/h (5 Bft)
02.02.2022 15:07 23,4 °C 7,2 °C 46 % 68 % 1014,4 hPa 0,0 l/m² 20,1 km/h (4 Bft) NW 323 ° 2 min 113 W/m² 1,7 °C -0,4 °C 32,2 km/h (5 Bft)
02.02.2022 15:09 23,5 °C 7,1 °C 46 % 69 % 1014,5 hPa 0,0 l/m² 16,5 km/h (3 Bft) W-NW 300 ° 2 min 91 W/m² 1,8 °C 0,9 °C 30,6 km/h (5 Bft)
02.02.2022 15:11 23,4 °C 7,0 °C 46 % 69 % 1014,7 hPa 0,0 l/m² 19,5 km/h (3 Bft) NW 321 ° 2 min 76 W/m² 1,7 °C -0,4 °C 32,2 km/h (5 Bft)
02.02.2022 15:12 23,4 °C 6,9 °C 46 % 69 % 1014,7 hPa 0,0 l/m² 19,2 km/h (3 Bft) W-NW 302 ° 1 min 69 W/m² 1,6 °C -0,4 °C 25,7 km/h (4 Bft)
02.02.2022 15:13 23,4 °C 6,9 °C 46 % 69 % 1014,6 hPa 0,0 l/m² 17,6 km/h (3 Bft) NW 311 ° 1 min 90 W/m² 1,6 °C 0,2 °C 24,1 km/h (4 Bft)
02.02.2022 15:15 23,4 °C 6,9 °C 46 % 69 % 1014,7 hPa 0,0 l/m² 18,3 km/h (3 Bft) NW 314 ° 2 min 93 W/m² 1,6 °C -0,1 °C 27,4 km/h (5 Bft)
02.02.2022 15:17 23,4 °C 6,8 °C 46 % 69 % 1014,7 hPa 0,0 l/m² 17,1 km/h (3 Bft) W-NW 298 ° 2 min 104 W/m² 1,5 °C 0,3 °C 24,1 km/h (4 Bft)
02.02.2022 15:18 23,4 °C 6,8 °C 46 % 69 % 1014,8 hPa 0,0 l/m² 16,0 km/h (3 Bft) NW 321 ° 1 min 95 W/m² 1,5 °C 0,8 °C 25,7 km/h (4 Bft)
02.02.2022 15:19 23,4 °C 6,8 °C 46 % 69 % 1014,7 hPa 0,0 l/m² 14,4 km/h (3 Bft) W-NW 302 ° 1 min 65 W/m² 1,5 °C 1,5 °C 30,6 km/h (5 Bft)
02.02.2022 15:20 23,4 °C 6,7 °C 46 % 70 % 1014,7 hPa 0,0 l/m² 14,4 km/h (3 Bft) NW 326 ° 1 min 63 W/m² 1,6 °C 1,4 °C 24,1 km/h (4 Bft)
02.02.2022 15:22 23,4 °C 6,7 °C 46 % 70 % 1014,8 hPa 0,0 l/m² 13,9 km/h (3 Bft) W-NW 282 ° 2 min 70 W/m² 1,6 °C 1,7 °C 27,4 km/h (5 Bft)
02.02.2022 15:23 23,4 °C 6,7 °C 46 % 70 % 1014,8 hPa 0,0 l/m² 20,2 km/h (4 Bft) W 268 ° 1 min 72 W/m² 1,6 °C -1,1 °C 27,4 km/h (5 Bft)
02.02.2022 15:24 23,4 °C 6,7 °C 46 % 70 % 1014,8 hPa 0,0 l/m² 15,3 km/h (3 Bft) W-NW 290 ° 1 min 70 W/m² 1,6 °C 1,0 °C 24,1 km/h (4 Bft)
02.02.2022 15:26 23,4 °C 6,7 °C 46 % 70 % 1014,9 hPa 0,0 l/m² 14,6 km/h (3 Bft) NW 306 ° 2 min 65 W/m² 1,6 °C 1,3 °C 33,8 km/h (5 Bft)
02.02.2022 15:28 23,4 °C 6,7 °C 46 % 70 % 1014,9 hPa 0,0 l/m² 18,4 km/h (3 Bft) W 271 ° 2 min 69 W/m² 1,6 °C -0,4 °C 30,6 km/h (5 Bft)
02.02.2022 15:30 23,3 °C 6,6 °C 46 % 71 % 1014,9 hPa 0,0 l/m² 18,1 km/h (3 Bft) NW 313 ° 2 min 58 W/m² 1,7 °C -0,4 °C 32,2 km/h (5 Bft)
02.02.2022 15:32 23,4 °C 6,6 °C 46 % 71 % 1015,1 hPa 0,0 l/m² 12,9 km/h (3 Bft) N-NW 346 ° 2 min 65 W/m² 1,7 °C 2,1 °C 20,9 km/h (4 Bft)
02.02.2022 15:33 23,4 °C 6,6 °C 46 % 71 % 1015,1 hPa 0,0 l/m² 14,2 km/h (3 Bft) W 275 ° 1 min 84 W/m² 1,7 °C 1,4 °C 24,1 km/h (4 Bft)
02.02.2022 15:34 23,3 °C 6,5 °C 46 % 71 % 1015,0 hPa 0,0 l/m² 24,0 km/h (4 Bft) W-NW 299 ° 1 min 134 W/m² 1,6 °C -2,6 °C 38,6 km/h (6 Bft)
02.02.2022 15:36 23,3 °C 6,6 °C 46 % 71 % 1015,1 hPa 0,0 l/m² 21,3 km/h (4 Bft) W-NW 292 ° 2 min 97 W/m² 1,7 °C -1,6 °C 37,0 km/h (5 Bft)
02.02.2022 15:38 23,3 °C 6,6 °C 46 % 71 % 1015,1 hPa 0,0 l/m² 29,4 km/h (5 Bft) W-NW 294 ° 2 min 123 W/m² 1,7 °C -4,0 °C 46,7 km/h (6 Bft)
02.02.2022 15:40 23,3 °C 6,5 °C 46 % 72 % 1015,2 hPa 0,0 l/m² 33,4 km/h (5 Bft) W 270 ° 2 min 200 W/m² 1,8 °C -5,0 °C 51,5 km/h (7 Bft)
02.02.2022 15:42 23,3 °C 6,6 °C 46 % 73 % 1015,4 hPa 0,0 l/m² 20,4 km/h (4 Bft) W-NW 289 ° 2 min 172 W/m² 2,1 °C -1,3 °C 32,2 km/h (5 Bft)
02.02.2022 15:43 23,3 °C 6,6 °C 46 % 73 % 1015,4 hPa 0,0 l/m² 21,3 km/h (4 Bft) W 281 ° 1 min 170 W/m² 2,1 °C -1,6 °C 29,0 km/h (5 Bft)
02.02.2022 15:45 23,3 °C 6,7 °C 46 % 73 % 1015,7 hPa 0,0 l/m² 18,9 km/h (3 Bft) W 266 ° 2 min 166 W/m² 2,2 °C -0,6 °C 32,2 km/h (5 Bft)
02.02.2022 15:47 23,3 °C 6,9 °C 46 % 74 % 1015,6 hPa 0,0 l/m² 17,0 km/h (3 Bft) NW 320 ° 2 min 195 W/m² 2,6 °C 0,5 °C 25,7 km/h (4 Bft)
02.02.2022 15:49 23,3 °C 6,8 °C 46 % 75 % 1015,5 hPa 0,0 l/m² 15,3 km/h (3 Bft) NW 320 ° 2 min 137 W/m² 2,7 °C 1,1 °C 30,6 km/h (5 Bft)
02.02.2022 15:51 23,3 °C 6,6 °C 46 % 75 % 1015,5 hPa 0,0 l/m² 17,1 km/h (3 Bft) NW 308 ° 2 min 128 W/m² 2,5 °C 0,1 °C 30,6 km/h (5 Bft)
02.02.2022 15:52 23,3 °C 6,3 °C 46 % 75 % 1015,5 hPa 0,0 l/m² 15,6 km/h (3 Bft) W-NW 302 ° 1 min 123 W/m² 2,2 °C 0,4 °C 29,0 km/h (5 Bft)
02.02.2022 15:53 23,3 °C 6,3 °C 46 % 75 % 1015,6 hPa 0,0 l/m² 16,6 km/h (3 Bft) W-NW 296 ° 1 min 120 W/m² 2,2 °C -0,1 °C 20,9 km/h (4 Bft)
02.02.2022 15:55 23,3 °C 6,2 °C 46 % 76 % 1015,6 hPa 0,0 l/m² 14,6 km/h (3 Bft) W 280 ° 2 min 111 W/m² 2,3 °C 0,7 °C 29,0 km/h (5 Bft)
02.02.2022 15:57 23,4 °C 6,2 °C 46 % 76 % 1015,8 hPa 0,0 l/m² 15,7 km/h (3 Bft) W 279 ° 2 min 69 W/m² 2,3 °C 0,2 °C 24,1 km/h (4 Bft)
02.02.2022 15:59 23,3 °C 6,2 °C 46 % 76 % 1015,7 hPa 0,0 l/m² 19,0 km/h (3 Bft) W 281 ° 2 min 76 W/m² 2,3 °C -1,2 °C 25,7 km/h (4 Bft)
02.02.2022 16:01 23,3 °C 6,1 °C 46 % 76 % 1015,8 hPa 0,0 l/m² 23,1 km/h (4 Bft) NW 316 ° 2 min 67 W/m² 2,2 °C -2,9 °C 32,2 km/h (5 Bft)
02.02.2022 16:02 23,3 °C 6,1 °C 46 % 76 % 1015,8 hPa 0,0 l/m² 27,1 km/h (5 Bft) NW 319 ° 1 min 60 W/m² 2,2 °C -4,1 °C 32,2 km/h (5 Bft)
02.02.2022 16:03 23,3 °C 6,1 °C 46 % 76 % 1015,8 hPa 0,0 l/m² 20,7 km/h (4 Bft) W 277 ° 1 min 53 W/m² 2,2 °C -2,0 °C 30,6 km/h (5 Bft)
02.02.2022 16:05 23,3 °C 6,1 °C 46 % 75 % 1015,9 hPa 0,0 l/m² 27,5 km/h (5 Bft) W 276 ° 0 min 39 W/m² 2,0 °C -4,2 °C 35,4 km/h (5 Bft)
02.02.2022 16:07 23,3 °C 6,0 °C 46 % 75 % 1016,0 hPa 0,0 l/m² 26,0 km/h (4 Bft) W 266 ° 0 min 25 W/m² 1,9 °C -3,9 °C 37,0 km/h (5 Bft)
02.02.2022 16:09 23,3 °C 6,0 °C 46 % 75 % 1016,1 hPa 0,0 l/m² 24,9 km/h (4 Bft) W-NW 288 ° 0 min 23 W/m² 1,9 °C -3,6 °C 40,2 km/h (6 Bft)
02.02.2022 16:11 23,3 °C 5,9 °C 45 % 76 % 1016,1 hPa 0,0 l/m² 19,6 km/h (3 Bft) W-NW 286 ° 0 min 21 W/m² 2,0 °C -1,9 °C 29,0 km/h (5 Bft)
02.02.2022 16:12 23,3 °C 5,9 °C 45 % 76 % 1016,1 hPa 0,0 l/m² 22,1 km/h (4 Bft) W-NW 298 ° 0 min 19 W/m² 2,0 °C -2,8 °C 35,4 km/h (5 Bft)
02.02.2022 16:13 23,3 °C 5,9 °C 46 % 76 % 1016,1 hPa 0,0 l/m² 17,0 km/h (3 Bft) NW 321 ° 0 min 18 W/m² 2,0 °C -0,8 °C 35,4 km/h (5 Bft)
02.02.2022 16:15 23,3 °C 5,8 °C 46 % 75 % 1016,2 hPa 0,0 l/m² 20,1 km/h (4 Bft) W-NW 284 ° 0 min 16 W/m² 1,7 °C -2,2 °C 32,2 km/h (5 Bft)
02.02.2022 16:17 23,3 °C 5,6 °C 46 % 75 % 1016,1 hPa 0,0 l/m² 15,8 km/h (3 Bft) W-NW 295 ° 0 min 16 W/m² 1,5 °C -0,6 °C 25,7 km/h (4 Bft)
02.02.2022 16:19 23,2 °C 5,5 °C 46 % 75 % 1016,1 hPa 0,0 l/m² 11,3 km/h (2 Bft) W-NW 302 ° 0 min 19 W/m² 1,4 °C 1,8 °C 16,1 km/h (3 Bft)
02.02.2022 16:21 23,2 °C 5,4 °C 46 % 76 % 1016,1 hPa 0,0 l/m² 12,8 km/h (3 Bft) W 263 ° 0 min 18 W/m² 1,5 °C 0,7 °C 20,9 km/h (4 Bft)
02.02.2022 16:22 23,2 °C 5,3 °C 46 % 75 % 1016,1 hPa 0,0 l/m² 13,3 km/h (3 Bft) W 277 ° 0 min 16 W/m² 1,2 °C 0,3 °C 19,3 km/h (3 Bft)
02.02.2022 16:23 23,2 °C 5,3 °C 46 % 76 % 1016,2 hPa 0,0 l/m² 19,2 km/h (3 Bft) W 279 ° 0 min 16 W/m² 1,4 °C -2,5 °C 27,4 km/h (5 Bft)
02.02.2022 16:25 23,2 °C 5,3 °C 46 % 76 % 1016,2 hPa 0,0 l/m² 20,8 km/h (4 Bft) W 272 ° 0 min 18 W/m² 1,4 °C -3,1 °C 27,4 km/h (5 Bft)
02.02.2022 16:27 23,3 °C 5,2 °C 46 % 76 % 1016,3 hPa 0,0 l/m² 24,3 km/h (4 Bft) W 277 ° 0 min 18 W/m² 1,3 °C -4,4 °C 32,2 km/h (5 Bft)
02.02.2022 16:29 23,2 °C 5,1 °C 46 % 77 % 1016,3 hPa 0,0 l/m² 21,1 km/h (4 Bft) W 273 ° 0 min 18 W/m² 1,4 °C -3,5 °C 29,0 km/h (5 Bft)
02.02.2022 16:31 23,2 °C 5,1 °C 46 % 77 % 1016,4 hPa 0,0 l/m² 21,9 km/h (4 Bft) W 281 ° 0 min 16 W/m² 1,4 °C -3,8 °C 29,0 km/h (5 Bft)
02.02.2022 16:32 23,2 °C 5,1 °C 46 % 77 % 1016,4 hPa 0,0 l/m² 17,9 km/h (3 Bft) W 265 ° 0 min 16 W/m² 1,4 °C -2,2 °C 20,9 km/h (4 Bft)
02.02.2022 16:33 23,2 °C 5,1 °C 46 % 78 % 1016,4 hPa 0,0 l/m² 20,3 km/h (4 Bft) W 269 ° 0 min 18 W/m² 1,6 °C -3,2 °C 25,7 km/h (4 Bft)
02.02.2022 16:35 23,2 °C 5,1 °C 46 % 78 % 1016,5 hPa 0,0 l/m² 20,3 km/h (4 Bft) W 271 ° 0 min 16 W/m² 1,6 °C -3,2 °C 25,7 km/h (4 Bft)
02.02.2022 16:37 23,2 °C 5,0 °C 46 % 78 % 1016,6 hPa 0,0 l/m² 20,8 km/h (4 Bft) W 281 ° 0 min 16 W/m² 1,5 °C -3,5 °C 27,4 km/h (5 Bft)
02.02.2022 16:39 23,2 °C 5,0 °C 46 % 78 % 1016,6 hPa 0,0 l/m² 18,4 km/h (3 Bft) W 269 ° 0 min 18 W/m² 1,5 °C -2,5 °C 25,7 km/h (4 Bft)
02.02.2022 16:41 23,2 °C 5,0 °C 46 % 78 % 1016,8 hPa 0,0 l/m² 20,3 km/h (4 Bft) W 276 ° 0 min 11 W/m² 1,5 °C -3,3 °C 30,6 km/h (5 Bft)
02.02.2022 16:42 23,2 °C 5,0 °C 46 % 78 % 1016,8 hPa 0,0 l/m² 18,5 km/h (3 Bft) W 280 ° 0 min 9 W/m² 1,5 °C -2,6 °C 25,7 km/h (4 Bft)
02.02.2022 16:43 23,2 °C 5,0 °C 46 % 78 % 1016,8 hPa 0,0 l/m² 20,7 km/h (4 Bft) W 271 ° 0 min 7 W/m² 1,5 °C -3,4 °C 24,1 km/h (4 Bft)
02.02.2022 16:45 23,2 °C 5,0 °C 46 % 78 % 1016,8 hPa 0,0 l/m² 14,1 km/h (3 Bft) W 277 ° 0 min 7 W/m² 1,5 °C -0,5 °C 22,5 km/h (4 Bft)
02.02.2022 16:47 23,2 °C 5,1 °C 46 % 79 % 1016,9 hPa 0,0 l/m² 21,1 km/h (4 Bft) W 271 ° 0 min 7 W/m² 1,8 °C -3,5 °C 30,6 km/h (5 Bft)
02.02.2022 16:49 23,2 °C 5,1 °C 46 % 79 % 1016,9 hPa 0,0 l/m² 18,3 km/h (3 Bft) W-NW 288 ° 0 min 5 W/m² 1,8 °C -2,3 °C 29,0 km/h (5 Bft)
02.02.2022 16:51 23,2 °C 5,1 °C 46 % 79 % 1017,0 hPa 0,0 l/m² 17,4 km/h (3 Bft) W 279 ° 0 min 5 W/m² 1,8 °C -1,9 °C 27,4 km/h (5 Bft)
02.02.2022 16:52 23,2 °C 5,1 °C 46 % 79 % 1017,0 hPa 0,0 l/m² 23,8 km/h (4 Bft) W-NW 301 ° 0 min 5 W/m² 1,8 °C -4,4 °C 29,0 km/h (5 Bft)
02.02.2022 16:53 23,2 °C 5,1 °C 46 % 79 % 1017,0 hPa 0,0 l/m² 17,6 km/h (3 Bft) W 259 ° 0 min 5 W/m² 1,8 °C -2,0 °C 25,7 km/h (4 Bft)
02.02.2022 16:55 23,2 °C 5,1 °C 46 % 79 % 1017,0 hPa 0,0 l/m² 25,2 km/h (4 Bft) W-NW 290 ° 0 min 5 W/m² 1,8 °C -4,9 °C 32,2 km/h (5 Bft)
02.02.2022 16:57 23,2 °C 5,1 °C 46 % 79 % 1017,1 hPa 0,0 l/m² 20,0 km/h (4 Bft) W 278 ° 0 min 5 W/m² 1,8 °C -3,0 °C 25,7 km/h (4 Bft)
02.02.2022 16:59 23,2 °C 5,0 °C 46 % 79 % 1017,1 hPa 0,0 l/m² 22,3 km/h (4 Bft) W 273 ° 0 min 0 W/m² 1,7 °C -4,0 °C 30,6 km/h (5 Bft)
02.02.2022 17:01 23,2 °C 5,0 °C 46 % 79 % 1017,3 hPa 0,0 l/m² 17,5 km/h (3 Bft) W 278 ° 0 min 0 W/m² 1,7 °C -2,1 °C 29,0 km/h (5 Bft)
02.02.2022 17:02 23,2 °C 5,1 °C 46 % 80 % 1017,3 hPa 0,0 l/m² 27,6 km/h (5 Bft) W-NW 295 ° 0 min 0 W/m² 1,9 °C -5,6 °C 41,8 km/h (6 Bft)
02.02.2022 17:03 23,1 °C 5,0 °C 44 % 80 % 1017,4 hPa 0,0 l/m² 25,7 km/h (4 Bft) W 267 ° 0 min 0 W/m² 1,8 °C -5,2 °C 35,4 km/h (5 Bft)
02.02.2022 17:05 23,1 °C 4,9 °C 43 % 80 % 1017,2 hPa 0,0 l/m² 16,1 km/h (3 Bft) W-NW 284 ° 0 min 0 W/m² 1,7 °C -1,6 °C 24,1 km/h (4 Bft)
02.02.2022 17:07 23,1 °C 4,9 °C 42 % 81 % 1017,3 hPa 0,0 l/m² 18,1 km/h (3 Bft) W-NW 283 ° 0 min 0 W/m² 1,9 °C -2,5 °C 27,4 km/h (5 Bft)
02.02.2022 17:09 23,0 °C 4,8 °C 43 % 81 % 1017,2 hPa 0,0 l/m² 21,3 km/h (4 Bft) W-NW 284 ° 0 min 0 W/m² 1,8 °C -3,9 °C 27,4 km/h (5 Bft)
02.02.2022 17:11 22,9 °C 4,7 °C 43 % 82 % 1017,3 hPa 0,0 l/m² 19,1 km/h (3 Bft) W 273 ° 0 min 0 W/m² 1,9 °C -3,2 °C 24,1 km/h (4 Bft)
02.02.2022 17:12 22,9 °C 4,7 °C 43 % 82 % 1017,3 hPa 0,0 l/m² 21,4 km/h (4 Bft) W 278 ° 0 min 0 W/m² 1,9 °C -4,1 °C 24,1 km/h (4 Bft)
02.02.2022 17:13 22,9 °C 4,7 °C 43 % 82 % 1017,3 hPa 0,0 l/m² 21,2 km/h (4 Bft) W-NW 287 ° 0 min 0 W/m² 1,9 °C -4,0 °C 25,7 km/h (4 Bft)
02.02.2022 17:15 22,9 °C 4,6 °C 44 % 82 % 1017,4 hPa 0,0 l/m² 15,3 km/h (3 Bft) W-NW 283 ° 0 min 0 W/m² 1,8 °C -1,6 °C 22,5 km/h (4 Bft)
02.02.2022 17:17 22,9 °C 4,6 °C 44 % 82 % 1017,4 hPa 0,0 l/m² 20,1 km/h (4 Bft) W 275 ° 0 min 0 W/m² 1,8 °C -3,7 °C 27,4 km/h (5 Bft)
02.02.2022 17:19 22,9 °C 4,6 °C 44 % 81 % 1017,4 hPa 0,0 l/m² 21,3 km/h (4 Bft) W 275 ° 0 min 0 W/m² 1,6 °C -4,2 °C 27,4 km/h (5 Bft)
02.02.2022 17:21 22,9 °C 4,5 °C 44 % 81 % 1017,5 hPa 0,0 l/m² 20,2 km/h (4 Bft) W 266 ° 0 min 0 W/m² 1,5 °C -3,9 °C 27,4 km/h (5 Bft)
02.02.2022 17:22 22,9 °C 4,5 °C 44 % 81 % 1017,5 hPa 0,0 l/m² 19,8 km/h (3 Bft) W 269 ° 0 min 0 W/m² 1,5 °C -3,7 °C 24,1 km/h (4 Bft)
02.02.2022 17:23 22,9 °C 4,4 °C 44 % 82 % 1017,4 hPa 0,0 l/m² 20,1 km/h (4 Bft) W 281 ° 0 min 0 W/m² 1,6 °C -4,0 °C 24,1 km/h (4 Bft)
02.02.2022 17:25 22,9 °C 4,4 °C 44 % 81 % 1017,5 hPa 0,0 l/m² 19,6 km/h (3 Bft) W 281 ° 0 min 0 W/m² 1,4 °C -3,8 °C 27,4 km/h (5 Bft)
02.02.2022 17:27 22,9 °C 4,4 °C 45 % 82 % 1017,6 hPa 0,0 l/m² 19,1 km/h (3 Bft) W-NW 300 ° 0 min 0 W/m² 1,6 °C -3,6 °C 27,4 km/h (5 Bft)
02.02.2022 17:29 22,9 °C 4,4 °C 45 % 81 % 1017,7 hPa 0,0 l/m² 18,9 km/h (3 Bft) W 266 ° 0 min 0 W/m² 1,4 °C -3,5 °C 25,7 km/h (4 Bft)
02.02.2022 17:31 22,9 °C 4,4 °C 45 % 81 % 1017,6 hPa 0,0 l/m² 15,4 km/h (3 Bft) W 271 ° 0 min 0 W/m² 1,4 °C -1,9 °C 22,5 km/h (4 Bft)
02.02.2022 17:32 22,9 °C 4,4 °C 45 % 81 % 1017,6 hPa 0,0 l/m² 14,1 km/h (3 Bft) W-SW 253 ° 0 min 0 W/m² 1,4 °C -1,2 °C 20,9 km/h (4 Bft)
02.02.2022 17:33 22,9 °C 4,4 °C 45 % 81 % 1017,5 hPa 0,0 l/m² 15,4 km/h (3 Bft) W 265 ° 0 min 0 W/m² 1,4 °C -1,9 °C 20,9 km/h (4 Bft)
02.02.2022 17:35 22,9 °C 4,4 °C 45 % 81 % 1017,6 hPa 0,0 l/m² 17,6 km/h (3 Bft) W 260 ° 0 min 0 W/m² 1,4 °C -2,9 °C 29,0 km/h (5 Bft)
02.02.2022 17:37 22,9 °C 4,4 °C 45 % 81 % 1017,6 hPa 0,0 l/m² 17,2 km/h (3 Bft) W 274 ° 0 min 0 W/m² 1,4 °C -2,7 °C 22,5 km/h (4 Bft)
02.02.2022 17:39 22,9 °C 4,4 °C 45 % 81 % 1017,7 hPa 0,0 l/m² 20,5 km/h (4 Bft) W-NW 283 ° 0 min 0 W/m² 1,4 °C -4,1 °C 24,1 km/h (4 Bft)
02.02.2022 17:41 22,9 °C 4,4 °C 45 % 81 % 1017,8 hPa 0,0 l/m² 18,1 km/h (3 Bft) W 274 ° 0 min 0 W/m² 1,4 °C -3,1 °C 25,7 km/h (4 Bft)
02.02.2022 17:42 22,9 °C 4,4 °C 45 % 81 % 1017,8 hPa 0,0 l/m² 17,9 km/h (3 Bft) W-SW 247 ° 0 min 0 W/m² 1,4 °C -3,1 °C 22,5 km/h (4 Bft)
02.02.2022 17:43 22,9 °C 4,4 °C 45 % 81 % 1017,8 hPa 0,0 l/m² 21,0 km/h (4 Bft) W 273 ° 0 min 0 W/m² 1,4 °C -4,3 °C 27,4 km/h (5 Bft)
02.02.2022 17:45 22,9 °C 4,4 °C 45 % 81 % 1017,8 hPa 0,0 l/m² 22,8 km/h (4 Bft) W-NW 283 ° 0 min 0 W/m² 1,4 °C -5,0 °C 27,4 km/h (5 Bft)
02.02.2022 17:47 22,9 °C 4,4 °C 45 % 81 % 1017,8 hPa 0,0 l/m² 19,4 km/h (3 Bft) W 278 ° 0 min 0 W/m² 1,4 °C -3,7 °C 27,4 km/h (5 Bft)
02.02.2022 17:49 22,9 °C 4,5 °C 45 % 81 % 1017,9 hPa 0,0 l/m² 20,6 km/h (4 Bft) W 276 ° 0 min 0 W/m² 1,5 °C -4,1 °C 27,4 km/h (5 Bft)
02.02.2022 17:51 22,9 °C 4,5 °C 46 % 81 % 1017,9 hPa 0,0 l/m² 21,2 km/h (4 Bft) W 267 ° 0 min 0 W/m² 1,5 °C -4,3 °C 25,7 km/h (4 Bft)
02.02.2022 17:52 22,9 °C 4,5 °C 46 % 81 % 1017,9 hPa 0,0 l/m² 19,7 km/h (3 Bft) W-NW 283 ° 0 min 0 W/m² 1,5 °C -3,7 °C 22,5 km/h (4 Bft)
02.02.2022 17:53 22,9 °C 4,6 °C 46 % 80 % 1018,0 hPa 0,0 l/m² 18,8 km/h (3 Bft) W 269 ° 0 min 0 W/m² 1,5 °C -3,2 °C 22,5 km/h (4 Bft)
02.02.2022 17:55 22,9 °C 4,6 °C 46 % 80 % 1018,1 hPa 0,0 l/m² 22,0 km/h (4 Bft) W 265 ° 0 min 0 W/m² 1,5 °C -4,5 °C 29,0 km/h (5 Bft)
02.02.2022 17:57 22,9 °C 4,5 °C 46 % 80 % 1018,0 hPa 0,0 l/m² 22,4 km/h (4 Bft) W 271 ° 0 min 0 W/m² 1,4 °C -4,7 °C 30,6 km/h (5 Bft)
02.02.2022 17:59 22,9 °C 4,6 °C 46 % 80 % 1018,0 hPa 0,0 l/m² 21,4 km/h (4 Bft) W-NW 284 ° 0 min 0 W/m² 1,5 °C -4,2 °C 24,1 km/h (4 Bft)
02.02.2022 18:01 22,9 °C 4,6 °C 46 % 80 % 1018,1 hPa 0,0 l/m² 20,7 km/h (4 Bft) W 271 ° 0 min 0 W/m² 1,5 °C -4,0 °C 24,1 km/h (4 Bft)
02.02.2022 18:02 22,9 °C 4,6 °C 46 % 80 % 1018,1 hPa 0,0 l/m² 21,4 km/h (4 Bft) W 279 ° 0 min 0 W/m² 1,5 °C -4,2 °C 25,7 km/h (4 Bft)
02.02.2022 18:03 22,9 °C 4,6 °C 46 % 80 % 1018,2 hPa 0,0 l/m² 18,5 km/h (3 Bft) W 279 ° 0 min 0 W/m² 1,5 °C -3,1 °C 24,1 km/h (4 Bft)
02.02.2022 18:05 22,9 °C 4,6 °C 46 % 80 % 1017,9 hPa 0,0 l/m² 18,5 km/h (3 Bft) W 266 ° 0 min 0 W/m² 1,5 °C -3,1 °C 25,7 km/h (4 Bft)
02.02.2022 18:07 22,9 °C 4,6 °C 46 % 80 % 1018,0 hPa 0,0 l/m² 15,8 km/h (3 Bft) W 267 ° 0 min 0 W/m² 1,5 °C -1,8 °C 24,1 km/h (4 Bft)
02.02.2022 18:09 22,9 °C 4,5 °C 46 % 80 % 1018,2 hPa 0,0 l/m² 16,9 km/h (3 Bft) W 271 ° 0 min 0 W/m² 1,4 °C -2,5 °C 24,1 km/h (4 Bft)
02.02.2022 18:11 22,9 °C 4,5 °C 45 % 80 % 1018,0 hPa 0,0 l/m² 18,4 km/h (3 Bft) W 279 ° 0 min 0 W/m² 1,4 °C -3,1 °C 24,1 km/h (4 Bft)
02.02.2022 18:12 22,9 °C 4,4 °C 45 % 80 % 1018,0 hPa 0,0 l/m² 20,0 km/h (4 Bft) W-SW 250 ° 0 min 0 W/m² 1,3 °C -3,9 °C 24,1 km/h (4 Bft)
02.02.2022 18:13 22,8 °C 4,4 °C 45 % 79 % 1018,1 hPa 0,0 l/m² 13,2 km/h (3 Bft) W 267 ° 0 min 0 W/m² 1,1 °C -0,7 °C 17,7 km/h (3 Bft)
02.02.2022 18:15 22,9 °C 4,4 °C 45 % 79 % 1018,1 hPa 0,0 l/m² 15,2 km/h (3 Bft) W 271 ° 0 min 0 W/m² 1,1 °C -1,8 °C 20,9 km/h (4 Bft)
02.02.2022 18:17 22,8 °C 4,4 °C 45 % 79 % 1018,2 hPa 0,0 l/m² 15,4 km/h (3 Bft) W 265 ° 0 min 0 W/m² 1,1 °C -1,9 °C 20,9 km/h (4 Bft)
02.02.2022 18:19 22,8 °C 4,4 °C 45 % 79 % 1018,4 hPa 0,0 l/m² 17,0 km/h (3 Bft) W 273 ° 0 min 0 W/m² 1,1 °C -2,6 °C 20,9 km/h (4 Bft)
02.02.2022 18:21 22,8 °C 4,3 °C 45 % 79 % 1018,4 hPa 0,0 l/m² 17,7 km/h (3 Bft) W 259 ° 0 min 0 W/m² 1,0 °C -3,1 °C 24,1 km/h (4 Bft)
02.02.2022 18:22 22,8 °C 4,3 °C 45 % 79 % 1018,4 hPa 0,0 l/m² 18,4 km/h (3 Bft) W 271 ° 0 min 0 W/m² 1,0 °C -3,4 °C 20,9 km/h (4 Bft)
02.02.2022 18:23 22,8 °C 4,3 °C 45 % 79 % 1018,4 hPa 0,0 l/m² 20,5 km/h (4 Bft) W-NW 285 ° 0 min 0 W/m² 1,0 °C -4,3 °C 22,5 km/h (4 Bft)
02.02.2022 18:25 22,8 °C 4,3 °C 45 % 79 % 1018,4 hPa 0,0 l/m² 17,2 km/h (3 Bft) W 266 ° 0 min 0 W/m² 1,0 °C -2,9 °C 24,1 km/h (4 Bft)
02.02.2022 18:27 22,8 °C 4,2 °C 46 % 79 % 1018,5 hPa 0,0 l/m² 17,4 km/h (3 Bft) W 268 ° 0 min 0 W/m² 0,9 °C -3,1 °C 22,5 km/h (4 Bft)
02.02.2022 18:29 22,8 °C 4,2 °C 46 % 79 % 1018,5 hPa 0,0 l/m² 18,3 km/h (3 Bft) W 280 ° 0 min 0 W/m² 0,9 °C -3,5 °C 22,5 km/h (4 Bft)
02.02.2022 18:31 22,8 °C 4,2 °C 46 % 79 % 1018,5 hPa 0,0 l/m² 18,1 km/h (3 Bft) W 277 ° 0 min 0 W/m² 0,9 °C -3,4 °C 24,1 km/h (4 Bft)
02.02.2022 18:32 22,8 °C 4,2 °C 46 % 78 % 1018,5 hPa 0,0 l/m² 18,4 km/h (3 Bft) W 261 ° 0 min 0 W/m² 0,7 °C -3,5 °C 20,9 km/h (4 Bft)
02.02.2022 18:33 22,8 °C 4,1 °C 46 % 78 % 1018,6 hPa 0,0 l/m² 18,4 km/h (3 Bft) W-NW 295 ° 0 min 0 W/m² 0,6 °C -3,7 °C 20,9 km/h (4 Bft)
02.02.2022 18:35 22,8 °C 4,1 °C 46 % 78 % 1018,5 hPa 0,0 l/m² 18,7 km/h (3 Bft) W 279 ° 0 min 0 W/m² 0,6 °C -3,8 °C 22,5 km/h (4 Bft)
02.02.2022 18:37 22,8 °C 4,1 °C 46 % 78 % 1018,6 hPa 0,0 l/m² 17,1 km/h (3 Bft) W 269 ° 0 min 0 W/m² 0,6 °C -3,1 °C 20,9 km/h (4 Bft)
02.02.2022 18:39 22,8 °C 3,9 °C 47 % 78 % 1018,6 hPa 0,0 l/m² 17,8 km/h (3 Bft) W 271 ° 0 min 0 W/m² 0,4 °C -3,6 °C 22,5 km/h (4 Bft)
02.02.2022 18:41 22,8 °C 3,9 °C 47 % 78 % 1018,7 hPa 0,0 l/m² 17,8 km/h (3 Bft) W 270 ° 0 min 0 W/m² 0,4 °C -3,6 °C 22,5 km/h (4 Bft)
02.02.2022 18:42 22,8 °C 3,9 °C 47 % 78 % 1018,7 hPa 0,0 l/m² 19,0 km/h (3 Bft) W 275 ° 0 min 0 W/m² 0,4 °C -4,2 °C 24,1 km/h (4 Bft)
02.02.2022 18:43 22,8 °C 3,9 °C 47 % 78 % 1018,7 hPa 0,0 l/m² 19,2 km/h (3 Bft) W 280 ° 0 min 0 W/m² 0,4 °C -4,3 °C 22,5 km/h (4 Bft)
02.02.2022 18:46 22,8 °C 3,9 °C 47 % 78 % 1018,8 hPa 0,0 l/m² 15,8 km/h (3 Bft) W 279 ° 0 min 0 W/m² 0,4 °C -2,7 °C 20,9 km/h (4 Bft)
02.02.2022 18:48 22,8 °C 3,9 °C 47 % 79 % 1018,8 hPa 0,0 l/m² 17,0 km/h (3 Bft) W 279 ° 0 min 0 W/m² 0,6 °C -3,3 °C 22,5 km/h (4 Bft)
02.02.2022 18:50 22,8 °C 3,9 °C 47 % 79 % 1018,8 hPa 0,0 l/m² 16,3 km/h (3 Bft) W 275 ° 0 min 0 W/m² 0,6 °C -2,9 °C 20,9 km/h (4 Bft)
02.02.2022 18:52 22,8 °C 3,9 °C 47 % 79 % 1018,9 hPa 0,0 l/m² 16,1 km/h (3 Bft) W 272 ° 0 min 0 W/m² 0,6 °C -2,8 °C 20,9 km/h (4 Bft)
02.02.2022 18:53 22,8 °C 3,9 °C 47 % 79 % 1018,9 hPa 0,0 l/m² 13,7 km/h (3 Bft) W-NW 286 ° 0 min 0 W/m² 0,6 °C -1,5 °C 16,1 km/h (3 Bft)
02.02.2022 18:54 22,8 °C 3,9 °C 47 % 79 % 1018,9 hPa 0,0 l/m² 14,4 km/h (3 Bft) W 265 ° 0 min 0 W/m² 0,6 °C -1,9 °C 17,7 km/h (3 Bft)
02.02.2022 18:56 22,8 °C 3,9 °C 47 % 79 % 1018,8 hPa 0,0 l/m² 15,6 km/h (3 Bft) W 265 ° 0 min 0 W/m² 0,6 °C -2,6 °C 22,5 km/h (4 Bft)
02.02.2022 18:58 22,8 °C 3,9 °C 47 % 79 % 1018,9 hPa 0,0 l/m² 17,0 km/h (3 Bft) W 268 ° 0 min 0 W/m² 0,6 °C -3,3 °C 24,1 km/h (4 Bft)
02.02.2022 19:00 22,8 °C 3,9 °C 47 % 79 % 1019,0 hPa 0,0 l/m² 15,1 km/h (3 Bft) W-NW 284 ° 0 min 0 W/m² 0,6 °C -2,3 °C 19,3 km/h (3 Bft)
02.02.2022 19:02 22,8 °C 3,8 °C 47 % 79 % 1019,1 hPa 0,0 l/m² 15,8 km/h (3 Bft) W 275 ° 0 min 0 W/m² 0,5 °C -2,8 °C 20,9 km/h (4 Bft)
02.02.2022 19:03 22,8 °C 3,8 °C 47 % 79 % 1019,1 hPa 0,0 l/m² 12,4 km/h (2 Bft) W 271 ° 0 min 0 W/m² 0,5 °C -0,9 °C 14,5 km/h (3 Bft)
02.02.2022 19:04 22,8 °C 3,8 °C 48 % 79 % 1019,0 hPa 0,0 l/m² 13,0 km/h (3 Bft) W 275 ° 0 min 0 W/m² 0,5 °C -1,2 °C 14,5 km/h (3 Bft)
02.02.2022 19:06 22,8 °C 3,8 °C 48 % 79 % 1019,0 hPa 0,0 l/m² 14,9 km/h (3 Bft) W 273 ° 0 min 0 W/m² 0,5 °C -2,3 °C 19,3 km/h (3 Bft)
02.02.2022 19:08 22,8 °C 3,7 °C 48 % 79 % 1019,1 hPa 0,0 l/m² 15,5 km/h (3 Bft) W-NW 283 ° 0 min 0 W/m² 0,4 °C -2,8 °C 20,9 km/h (4 Bft)
02.02.2022 19:10 22,8 °C 3,7 °C 48 % 79 % 1019,2 hPa 0,0 l/m² 17,2 km/h (3 Bft) W 273 ° 0 min 0 W/m² 0,4 °C -3,6 °C 24,1 km/h (4 Bft)
02.02.2022 19:12 22,8 °C 3,7 °C 48 % 79 % 1019,2 hPa 0,0 l/m² 18,0 km/h (3 Bft) W 278 ° 0 min 0 W/m² 0,4 °C -4,0 °C 27,4 km/h (5 Bft)
02.02.2022 19:13 22,8 °C 3,7 °C 48 % 79 % 1019,2 hPa 0,0 l/m² 19,7 km/h (3 Bft) W 277 ° 0 min 0 W/m² 0,4 °C -4,7 °C 25,7 km/h (4 Bft)
02.02.2022 19:14 22,8 °C 3,8 °C 48 % 79 % 1019,2 hPa 0,0 l/m² 20,5 km/h (4 Bft) W 265 ° 0 min 0 W/m² 0,5 °C -4,9 °C 24,1 km/h (4 Bft)
02.02.2022 19:16 22,8 °C 3,8 °C 48 % 79 % 1019,2 hPa 0,0 l/m² 23,1 km/h (4 Bft) W 281 ° 0 min 0 W/m² 0,5 °C -5,9 °C 30,6 km/h (5 Bft)
02.02.2022 19:18 22,8 °C 3,9 °C 48 % 79 % 1019,2 hPa 0,0 l/m² 24,3 km/h (4 Bft) SW 235 ° 0 min 0 W/m² 0,6 °C -6,2 °C 30,6 km/h (5 Bft)
02.02.2022 19:20 22,8 °C 4,1 °C 48 % 79 % 1019,3 hPa 0,0 l/m² 23,2 km/h (4 Bft) W-NW 284 ° 0 min 0 W/m² 0,8 °C -5,6 °C 32,2 km/h (5 Bft)
02.02.2022 19:22 22,8 °C 4,1 °C 48 % 78 % 1019,3 hPa 0,0 l/m² 19,9 km/h (4 Bft) W 277 ° 0 min 0 W/m² 0,6 °C -4,3 °C 32,2 km/h (5 Bft)
02.02.2022 19:23 22,8 °C 4,2 °C 48 % 78 % 1019,3 hPa 0,0 l/m² 21,3 km/h (4 Bft) W-NW 282 ° 0 min 0 W/m² 0,7 °C -4,7 °C 27,4 km/h (5 Bft)
02.02.2022 19:24 22,8 °C 4,2 °C 48 % 78 % 1019,4 hPa 0,0 l/m² 17,9 km/h (3 Bft) W-NW 298 ° 0 min 0 W/m² 0,7 °C -3,3 °C 22,5 km/h (4 Bft)
02.02.2022 19:26 22,9 °C 4,2 °C 48 % 78 % 1019,3 hPa 0,0 l/m² 13,0 km/h (3 Bft) W-NW 282 ° 0 min 0 W/m² 0,7 °C -0,8 °C 20,9 km/h (4 Bft)
02.02.2022 19:28 22,8 °C 4,3 °C 48 % 78 % 1019,3 hPa 0,0 l/m² 15,3 km/h (3 Bft) W-NW 289 ° 0 min 0 W/m² 0,8 °C -1,9 °C 22,5 km/h (4 Bft)
02.02.2022 19:30 22,9 °C 4,3 °C 48 % 78 % 1019,3 hPa 0,0 l/m² 15,0 km/h (3 Bft) W 275 ° 0 min 0 W/m² 0,8 °C -1,8 °C 20,9 km/h (4 Bft)
02.02.2022 19:32 22,8 °C 4,3 °C 48 % 78 % 1019,4 hPa 0,0 l/m² 18,0 km/h (3 Bft) W 270 ° 0 min 0 W/m² 0,8 °C -3,2 °C 25,7 km/h (4 Bft)
02.02.2022 19:33 22,8 °C 4,3 °C 48 % 78 % 1019,4 hPa 0,0 l/m² 16,8 km/h (3 Bft) W-NW 290 ° 0 min 0 W/m² 0,8 °C -2,7 °C 20,9 km/h (4 Bft)
02.02.2022 19:34 22,9 °C 4,3 °C 48 % 78 % 1019,4 hPa 0,0 l/m² 15,7 km/h (3 Bft) W-NW 282 ° 0 min 0 W/m² 0,8 °C -2,1 °C 17,7 km/h (3 Bft)
02.02.2022 19:36 22,9 °C 4,3 °C 48 % 78 % 1019,4 hPa 0,0 l/m² 14,7 km/h (3 Bft) W 273 ° 0 min 0 W/m² 0,8 °C -1,6 °C 17,7 km/h (3 Bft)
02.02.2022 19:38 22,8 °C 4,3 °C 48 % 78 % 1019,4 hPa 0,0 l/m² 15,5 km/h (3 Bft) W 275 ° 0 min 0 W/m² 0,8 °C -2,0 °C 20,9 km/h (4 Bft)
02.02.2022 19:40 22,8 °C 4,2 °C 48 % 78 % 1019,4 hPa 0,0 l/m² 13,7 km/h (3 Bft) W 264 ° 0 min 0 W/m² 0,7 °C -1,2 °C 17,7 km/h (3 Bft)
02.02.2022 19:42 22,8 °C 4,2 °C 48 % 78 % 1019,5 hPa 0,0 l/m² 12,3 km/h (2 Bft) W 272 ° 0 min 0 W/m² 0,7 °C -0,4 °C 16,1 km/h (3 Bft)
02.02.2022 19:43 22,8 °C 4,2 °C 48 % 78 % 1019,5 hPa 0,0 l/m² 11,4 km/h (2 Bft) W 273 ° 0 min 0 W/m² 0,7 °C 0,2 °C 12,9 km/h (3 Bft)
02.02.2022 19:44 22,8 °C 4,2 °C 48 % 78 % 1019,5 hPa 0,0 l/m² 9,1 km/h (2 Bft) W-NW 287 ° 0 min 0 W/m² 0,7 °C 1,9 °C 11,3 km/h (2 Bft)
02.02.2022 19:46 22,8 °C 4,2 °C 48 % 79 % 1019,5 hPa 0,0 l/m² 8,9 km/h (2 Bft) W 276 ° 0 min 0 W/m² 0,9 °C 2,0 °C 12,9 km/h (3 Bft)
02.02.2022 19:48 22,8 °C 4,1 °C 47 % 78 % 1019,5 hPa 0,0 l/m² 10,9 km/h (2 Bft) W-SW 249 ° 0 min 0 W/m² 0,6 °C 0,4 °C 19,3 km/h (3 Bft)
02.02.2022 19:50 22,8 °C 4,0 °C 47 % 78 % 1019,6 hPa 0,0 l/m² 12,0 km/h (2 Bft) W-SW 252 ° 0 min 0 W/m² 0,5 °C -0,4 °C 16,1 km/h (3 Bft)
02.02.2022 19:52 22,8 °C 3,9 °C 47 % 79 % 1019,6 hPa 0,0 l/m² 14,2 km/h (3 Bft) W 277 ° 0 min 0 W/m² 0,6 °C -1,8 °C 20,9 km/h (4 Bft)
02.02.2022 19:53 22,8 °C 3,9 °C 47 % 79 % 1019,6 hPa 0,0 l/m² 15,1 km/h (3 Bft) W 271 ° 0 min 0 W/m² 0,6 °C -2,3 °C 17,7 km/h (3 Bft)
02.02.2022 19:54 22,8 °C 3,8 °C 47 % 79 % 1019,5 hPa 0,0 l/m² 16,1 km/h (3 Bft) W 278 ° 0 min 0 W/m² 0,5 °C -2,9 °C 20,9 km/h (4 Bft)
02.02.2022 19:57 22,8 °C 3,8 °C 47 % 79 % 1019,6 hPa 0,0 l/m² 14,7 km/h (3 Bft) W 277 ° 0 min 0 W/m² 0,5 °C -2,2 °C 19,3 km/h (3 Bft)
02.02.2022 19:59 22,8 °C 3,8 °C 47 % 79 % 1019,6 hPa 0,0 l/m² 14,7 km/h (3 Bft) W 271 ° 0 min 0 W/m² 0,5 °C -2,2 °C 17,7 km/h (3 Bft)
02.02.2022 20:01 22,8 °C 3,8 °C 47 % 79 % 1019,7 hPa 0,0 l/m² 13,0 km/h (3 Bft) W 277 ° 0 min 0 W/m² 0,5 °C -1,2 °C 16,1 km/h (3 Bft)
02.02.2022 20:02 22,8 °C 3,8 °C 47 % 79 % 1019,7 hPa 0,0 l/m² 12,3 km/h (2 Bft) W 278 ° 0 min 0 W/m² 0,5 °C -0,8 °C 14,5 km/h (3 Bft)
02.02.2022 20:03 22,8 °C 3,7 °C 48 % 79 % 1019,7 hPa 0,0 l/m² 12,3 km/h (2 Bft) W 281 ° 0 min 0 W/m² 0,4 °C -0,9 °C 16,1 km/h (3 Bft)
02.02.2022 20:05 22,8 °C 3,7 °C 48 % 79 % 1019,7 hPa 0,0 l/m² 15,1 km/h (3 Bft) W 262 ° 0 min 0 W/m² 0,4 °C -2,6 °C 19,3 km/h (3 Bft)
02.02.2022 20:07 22,8 °C 3,7 °C 48 % 79 % 1019,6 hPa 0,0 l/m² 12,0 km/h (2 Bft) W 271 ° 0 min 0 W/m² 0,4 °C -0,7 °C 14,5 km/h (3 Bft)
02.02.2022 20:09 22,8 °C 3,6 °C 48 % 79 % 1019,6 hPa 0,0 l/m² 9,9 km/h (2 Bft) W 269 ° 0 min 0 W/m² 0,3 °C 0,6 °C 12,9 km/h (3 Bft)
02.02.2022 20:11 22,8 °C 3,6 °C 48 % 79 % 1019,6 hPa 0,0 l/m² 8,6 km/h (2 Bft) W 270 ° 0 min 0 W/m² 0,3 °C 1,6 °C 12,9 km/h (3 Bft)
02.02.2022 20:12 22,8 °C 3,6 °C 48 % 79 % 1019,6 hPa 0,0 l/m² 6,9 km/h (2 Bft) W 269 ° 0 min 0 W/m² 0,3 °C 3,1 °C 11,3 km/h (2 Bft)
02.02.2022 20:13 22,8 °C 3,6 °C 48 % 80 % 1019,6 hPa 0,0 l/m² 5,3 km/h (1 Bft) W 271 ° 0 min 0 W/m² 0,5 °C 3,6 °C 6,4 km/h (2 Bft)
02.02.2022 20:15 22,8 °C 3,6 °C 48 % 80 % 1019,7 hPa 0,0 l/m² 6,2 km/h (2 Bft) W 268 ° 0 min 0 W/m² 0,5 °C 3,6 °C 11,3 km/h (2 Bft)
02.02.2022 20:17 22,8 °C 3,4 °C 48 % 80 % 1019,7 hPa 0,0 l/m² 5,2 km/h (1 Bft) W 269 ° 0 min 0 W/m² 0,3 °C 3,4 °C 6,4 km/h (2 Bft)
02.02.2022 20:19 22,9 °C 3,4 °C 48 % 80 % 1019,8 hPa 0,0 l/m² 5,9 km/h (2 Bft) W 268 ° 0 min 0 W/m² 0,3 °C 3,4 °C 9,7 km/h (2 Bft)
02.02.2022 20:21 22,8 °C 3,4 °C 48 % 80 % 1019,7 hPa 0,0 l/m² 4,0 km/h (1 Bft) W 269 ° 0 min 0 W/m² 0,3 °C 3,4 °C 6,4 km/h (2 Bft)
02.02.2022 20:22 22,8 °C 3,3 °C 48 % 80 % 1019,7 hPa 0,0 l/m² 3,8 km/h (1 Bft) W 268 ° 0 min 0 W/m² 0,2 °C 3,3 °C 4,8 km/h (1 Bft)
02.02.2022 20:23 22,9 °C 3,3 °C 48 % 80 % 1019,8 hPa 0,0 l/m² 4,1 km/h (1 Bft) W 269 ° 0 min 0 W/m² 0,2 °C 3,3 °C 4,8 km/h (1 Bft)
02.02.2022 20:25 22,8 °C 3,2 °C 48 % 81 % 1019,9 hPa 0,0 l/m² 2,6 km/h (1 Bft) W 269 ° 0 min 0 W/m² 0,3 °C 3,2 °C 4,8 km/h (1 Bft)
02.02.2022 20:27 22,9 °C 3,2 °C 48 % 81 % 1019,8 hPa 0,0 l/m² 2,5 km/h (1 Bft) W 268 ° 0 min 0 W/m² 0,3 °C 3,2 °C 4,8 km/h (1 Bft)
02.02.2022 20:29 22,8 °C 3,1 °C 48 % 81 % 1019,9 hPa 0,0 l/m² 2,7 km/h (1 Bft) W 268 ° 0 min 0 W/m² 0,2 °C 3,1 °C 4,8 km/h (1 Bft)
02.02.2022 20:31 22,9 °C 3,1 °C 49 % 82 % 1019,9 hPa 0,0 l/m² 2,6 km/h (1 Bft) W 269 ° 0 min 0 W/m² 0,3 °C 3,1 °C 4,8 km/h (1 Bft)
02.02.2022 20:32 22,9 °C 3,1 °C 49 % 82 % 1019,9 hPa 0,0 l/m² 2,7 km/h (1 Bft) W 269 ° 0 min 0 W/m² 0,3 °C 3,1 °C 4,8 km/h (1 Bft)
02.02.2022 20:33 22,9 °C 3,0 °C 48 % 82 % 1019,9 hPa 0,0 l/m² 3,1 km/h (1 Bft) W 268 ° 0 min 0 W/m² 0,2 °C 3,0 °C 4,8 km/h (1 Bft)
02.02.2022 20:35 22,9 °C 2,9 °C 49 % 82 % 1019,9 hPa 0,0 l/m² 2,6 km/h (1 Bft) W 268 ° 0 min 0 W/m² 0,1 °C 2,9 °C 4,8 km/h (1 Bft)
02.02.2022 20:37 22,9 °C 2,9 °C 49 % 82 % 1019,9 hPa 0,0 l/m² 3,1 km/h (1 Bft) W 268 ° 0 min 0 W/m² 0,1 °C 2,9 °C 4,8 km/h (1 Bft)
02.02.2022 20:39 22,9 °C 2,8 °C 49 % 82 % 1019,9 hPa 0,0 l/m² 4,0 km/h (1 Bft) W 269 ° 0 min 0 W/m² 0,0 °C 2,8 °C 4,8 km/h (1 Bft)
02.02.2022 20:41 22,9 °C 2,8 °C 49 % 82 % 1019,9 hPa 0,0 l/m² 5,0 km/h (1 Bft) W 268 ° 0 min 0 W/m² 0,0 °C 2,8 °C 9,7 km/h (2 Bft)
02.02.2022 20:42 22,9 °C 2,8 °C 49 % 82 % 1019,9 hPa 0,0 l/m² 4,7 km/h (1 Bft) W 269 ° 0 min 0 W/m² 0,0 °C 2,8 °C 6,4 km/h (2 Bft)
02.02.2022 20:43 22,9 °C 2,8 °C 49 % 82 % 1020,0 hPa 0,0 l/m² 5,5 km/h (2 Bft) W-NW 294 ° 0 min 0 W/m² 0,0 °C 2,8 °C 9,7 km/h (2 Bft)
02.02.2022 20:45 22,9 °C 2,7 °C 49 % 82 % 1020,1 hPa 0,0 l/m² 5,3 km/h (1 Bft) W 279 ° 0 min 0 W/m² -0,1 °C 2,7 °C 9,7 km/h (2 Bft)
02.02.2022 20:47 23,0 °C 2,7 °C 50 % 82 % 1020,0 hPa 0,0 l/m² 5,2 km/h (1 Bft) W-NW 284 ° 0 min 0 W/m² -0,1 °C 2,7 °C 6,4 km/h (2 Bft)
02.02.2022 20:49 23,0 °C 2,7 °C 50 % 82 % 1020,1 hPa 0,0 l/m² 5,7 km/h (2 Bft) W-NW 283 ° 0 min 0 W/m² -0,1 °C 2,7 °C 9,7 km/h (2 Bft)
02.02.2022 20:51 23,0 °C 2,6 °C 50 % 82 % 1020,1 hPa 0,0 l/m² 6,6 km/h (2 Bft) W 280 ° 0 min 0 W/m² -0,2 °C 2,4 °C 9,7 km/h (2 Bft)
02.02.2022 20:52 23,0 °C 2,6 °C 50 % 82 % 1020,1 hPa 0,0 l/m² 4,9 km/h (1 Bft) W-NW 284 ° 0 min 0 W/m² -0,2 °C 2,6 °C 6,4 km/h (2 Bft)
02.02.2022 20:53 23,1 °C 2,6 °C 50 % 82 % 1020,1 hPa 0,0 l/m² 4,3 km/h (1 Bft) W-NW 288 ° 0 min 0 W/m² -0,2 °C 2,6 °C 6,4 km/h (2 Bft)
02.02.2022 20:55 23,0 °C 2,6 °C 50 % 83 % 1020,2 hPa 0,0 l/m² 6,0 km/h (2 Bft) W 278 ° 0 min 0 W/m² 0,0 °C 2,6 °C 9,7 km/h (2 Bft)
02.02.2022 20:57 23,1 °C 2,4 °C 50 % 83 % 1020,2 hPa 0,0 l/m² 5,3 km/h (1 Bft) W 281 ° 0 min 0 W/m² -0,2 °C 2,4 °C 9,7 km/h (2 Bft)
02.02.2022 20:59 23,1 °C 2,4 °C 50 % 83 % 1020,1 hPa 0,0 l/m² 5,1 km/h (1 Bft) W-NW 282 ° 0 min 0 W/m² -0,2 °C 2,4 °C 6,4 km/h (2 Bft)
02.02.2022 21:01 23,1 °C 2,3 °C 50 % 83 % 1020,1 hPa 0,0 l/m² 5,3 km/h (1 Bft) W-NW 282 ° 0 min 0 W/m² -0,3 °C 2,3 °C 9,7 km/h (2 Bft)
02.02.2022 21:02 23,1 °C 2,3 °C 50 % 83 % 1020,1 hPa 0,0 l/m² 5,7 km/h (2 Bft) W-NW 282 ° 0 min 0 W/m² -0,3 °C 2,3 °C 6,4 km/h (2 Bft)
02.02.2022 21:03 23,1 °C 2,3 °C 50 % 83 % 1020,1 hPa 0,0 l/m² 4,6 km/h (1 Bft) W-NW 282 ° 0 min 0 W/m² -0,3 °C 2,3 °C 6,4 km/h (2 Bft)
02.02.2022 21:05 23,1 °C 2,3 °C 50 % 83 % 1020,2 hPa 0,0 l/m² 4,3 km/h (1 Bft) W 281 ° 0 min 0 W/m² -0,3 °C 2,3 °C 6,4 km/h (2 Bft)
02.02.2022 21:07 23,1 °C 2,2 °C 50 % 83 % 1020,2 hPa 0,0 l/m² 4,6 km/h (1 Bft) W 275 ° 0 min 0 W/m² -0,4 °C 2,2 °C 6,4 km/h (2 Bft)
02.02.2022 21:09 23,1 °C 2,2 °C 50 % 83 % 1020,3 hPa 0,0 l/m² 4,5 km/h (1 Bft) W 273 ° 0 min 0 W/m² -0,4 °C 2,2 °C 6,4 km/h (2 Bft)
02.02.2022 21:11 23,1 °C 2,1 °C 49 % 83 % 1020,3 hPa 0,0 l/m² 4,3 km/h (1 Bft) W 273 ° 0 min 0 W/m² -0,5 °C 2,1 °C 6,4 km/h (2 Bft)
02.02.2022 21:12 23,1 °C 2,1 °C 49 % 83 % 1020,3 hPa 0,0 l/m² 4,8 km/h (1 Bft) W 273 ° 0 min 0 W/m² -0,5 °C 2,1 °C 6,4 km/h (2 Bft)
02.02.2022 21:14 23,2 °C 2,1 °C 50 % 84 % 1020,3 hPa 0,0 l/m² 4,5 km/h (1 Bft) W 273 ° 0 min 0 W/m² -0,3 °C 2,1 °C 6,4 km/h (2 Bft)
02.02.2022 21:16 23,1 °C 2,1 °C 49 % 84 % 1020,3 hPa 0,0 l/m² 5,7 km/h (2 Bft) W 273 ° 0 min 0 W/m² -0,3 °C 2,1 °C 6,4 km/h (2 Bft)
02.02.2022 21:18 23,1 °C 2,0 °C 49 % 84 % 1020,4 hPa 0,0 l/m² 6,6 km/h (2 Bft) W 264 ° 0 min 0 W/m² -0,4 °C 1,8 °C 9,7 km/h (2 Bft)
02.02.2022 21:20 23,1 °C 2,0 °C 49 % 84 % 1020,3 hPa 0,0 l/m² 6,4 km/h (2 Bft) W 267 ° 0 min 0 W/m² -0,4 °C 2,0 °C 9,7 km/h (2 Bft)
02.02.2022 21:22 23,2 °C 1,9 °C 49 % 84 % 1020,4 hPa 0,0 l/m² 6,8 km/h (2 Bft) W 268 ° 0 min 0 W/m² -0,5 °C 1,5 °C 9,7 km/h (2 Bft)
02.02.2022 21:23 23,2 °C 1,9 °C 49 % 84 % 1020,4 hPa 0,0 l/m² 5,0 km/h (1 Bft) W 268 ° 0 min 0 W/m² -0,5 °C 1,9 °C 6,4 km/h (2 Bft)
02.02.2022 21:24 23,2 °C 1,9 °C 49 % 84 % 1020,3 hPa 0,0 l/m² 4,4 km/h (1 Bft) W 268 ° 0 min 0 W/m² -0,5 °C 1,9 °C 6,4 km/h (2 Bft)
02.02.2022 21:26 23,1 °C 1,8 °C 49 % 84 % 1020,4 hPa 0,0 l/m² 5,5 km/h (2 Bft) W 277 ° 0 min 0 W/m² -0,6 °C 1,8 °C 6,4 km/h (2 Bft)
02.02.2022 21:28 23,2 °C 1,8 °C 49 % 84 % 1020,4 hPa 0,0 l/m² 4,9 km/h (1 Bft) W-NW 284 ° 0 min 0 W/m² -0,6 °C 1,8 °C 6,4 km/h (2 Bft)
02.02.2022 21:30 23,2 °C 1,8 °C 49 % 84 % 1020,4 hPa 0,0 l/m² 5,4 km/h (2 Bft) W-NW 283 ° 0 min 0 W/m² -0,6 °C 1,8 °C 9,7 km/h (2 Bft)
02.02.2022 21:32 23,2 °C 1,8 °C 49 % 84 % 1020,4 hPa 0,0 l/m² 5,9 km/h (2 Bft) W-NW 286 ° 0 min 0 W/m² -0,6 °C 1,8 °C 9,7 km/h (2 Bft)
02.02.2022 21:33 23,2 °C 1,8 °C 49 % 84 % 1020,4 hPa 0,0 l/m² 6,1 km/h (2 Bft) W-NW 285 ° 0 min 0 W/m² -0,6 °C 1,8 °C 6,4 km/h (2 Bft)
02.02.2022 21:34 23,2 °C 1,7 °C 49 % 84 % 1020,4 hPa 0,0 l/m² 4,8 km/h (1 Bft) W-NW 284 ° 0 min 0 W/m² -0,7 °C 1,7 °C 6,4 km/h (2 Bft)
02.02.2022 21:36 23,2 °C 1,7 °C 49 % 84 % 1020,4 hPa 0,0 l/m² 7,2 km/h (2 Bft) W 274 ° 0 min 0 W/m² -0,7 °C 0,9 °C 12,9 km/h (3 Bft)
02.02.2022 21:38 23,2 °C 1,7 °C 49 % 85 % 1020,4 hPa 0,0 l/m² 6,4 km/h (2 Bft) W 275 ° 0 min 0 W/m² -0,5 °C 1,7 °C 9,7 km/h (2 Bft)
02.02.2022 21:40 23,2 °C 1,7 °C 49 % 85 % 1020,4 hPa 0,0 l/m² 5,3 km/h (1 Bft) W 275 ° 0 min 0 W/m² -0,5 °C 1,7 °C 6,4 km/h (2 Bft)
02.02.2022 21:42 23,2 °C 1,7 °C 49 % 85 % 1020,5 hPa 0,0 l/m² 5,2 km/h (1 Bft) W 275 ° 0 min 0 W/m² -0,5 °C 1,7 °C 6,4 km/h (2 Bft)
02.02.2022 21:43 23,2 °C 1,7 °C 49 % 85 % 1020,5 hPa 0,0 l/m² 4,7 km/h (1 Bft) W 275 ° 0 min 0 W/m² -0,5 °C 1,7 °C 6,4 km/h (2 Bft)
02.02.2022 21:45 23,2 °C 1,7 °C 49 % 85 % 1020,4 hPa 0,0 l/m² 3,9 km/h (1 Bft) W 276 ° 0 min 0 W/m² -0,5 °C 1,7 °C 4,8 km/h (1 Bft)
02.02.2022 21:47 23,2 °C 1,7 °C 49 % 85 % 1020,4 hPa 0,0 l/m² 4,7 km/h (1 Bft) W 277 ° 0 min 0 W/m² -0,5 °C 1,7 °C 6,4 km/h (2 Bft)
02.02.2022 21:49 23,2 °C 1,7 °C 49 % 85 % 1020,4 hPa 0,0 l/m² 4,3 km/h (1 Bft) W-NW 283 ° 0 min 0 W/m² -0,5 °C 1,7 °C 6,4 km/h (2 Bft)
02.02.2022 21:51 23,2 °C 1,6 °C 48 % 85 % 1020,3 hPa 0,0 l/m² 2,8 km/h (1 Bft) W-NW 283 ° 0 min 0 W/m² -0,6 °C 1,6 °C 4,8 km/h (1 Bft)
02.02.2022 21:52 23,2 °C 1,6 °C 48 % 85 % 1020,3 hPa 0,0 l/m² 2,8 km/h (1 Bft) W-NW 283 ° 0 min 0 W/m² -0,6 °C 1,6 °C 4,8 km/h (1 Bft)
02.02.2022 21:53 23,2 °C 1,6 °C 48 % 85 % 1020,4 hPa 0,0 l/m² 3,4 km/h (1 Bft) W-NW 283 ° 0 min 0 W/m² -0,6 °C 1,6 °C 4,8 km/h (1 Bft)
02.02.2022 21:55 23,2 °C 1,6 °C 48 % 85 % 1020,4 hPa 0,0 l/m² 2,0 km/h (1 Bft) W-NW 283 ° 0 min 0 W/m² -0,6 °C 1,6 °C 4,8 km/h (1 Bft)
02.02.2022 21:57 23,2 °C 1,6 °C 48 % 85 % 1020,5 hPa 0,0 l/m² 1,3 km/h (1 Bft) W-NW 283 ° 0 min 0 W/m² -0,6 °C 1,6 °C 4,8 km/h (1 Bft)
02.02.2022 21:59 23,2 °C 1,6 °C 48 % 85 % 1020,5 hPa 0,0 l/m² 1,1 km/h (1 Bft) W-NW 283 ° 0 min 0 W/m² -0,6 °C 1,6 °C 4,8 km/h (1 Bft)
02.02.2022 22:01 23,2 °C 1,6 °C 48 % 85 % 1020,5 hPa 0,0 l/m² 0,1 km/h (0 Bft) W-NW 283 ° 0 min 0 W/m² -0,6 °C 1,6 °C 1,6 km/h (1 Bft)
02.02.2022 22:02 23,2 °C 1,6 °C 48 % 85 % 1020,5 hPa 0,0 l/m² 0,0 km/h (0 Bft) W-NW 283 ° 0 min 0 W/m² -0,6 °C 1,6 °C 0,0 km/h (0 Bft)
02.02.2022 22:03 23,2 °C 1,6 °C 48 % 85 % 1020,5 hPa 0,0 l/m² 0,0 km/h (0 Bft) W-NW 283 ° 0 min 0 W/m² -0,6 °C 1,6 °C 0,0 km/h (0 Bft)
02.02.2022 22:05 23,2 °C 1,5 °C 48 % 85 % 1020,5 hPa 0,0 l/m² 0,1 km/h (0 Bft) W-NW 283 ° 0 min 0 W/m² -0,7 °C 1,5 °C 1,6 km/h (1 Bft)
02.02.2022 22:07 23,1 °C 1,5 °C 48 % 85 % 1020,5 hPa 0,0 l/m² 2,5 km/h (1 Bft) W-NW 283 ° 0 min 0 W/m² -0,7 °C 1,5 °C 4,8 km/h (1 Bft)
02.02.2022 22:09 23,1 °C 1,4 °C 48 % 85 % 1020,6 hPa 0,0 l/m² 1,0 km/h (0 Bft) W-NW 283 ° 0 min 0 W/m² -0,8 °C 1,4 °C 3,2 km/h (1 Bft)
02.02.2022 22:11 23,1 °C 1,4 °C 48 % 85 % 1020,7 hPa 0,0 l/m² 0,3 km/h (0 Bft) W-NW 283 ° 0 min 0 W/m² -0,8 °C 1,4 °C 1,6 km/h (1 Bft)
02.02.2022 22:12 23,1 °C 1,4 °C 48 % 85 % 1020,7 hPa 0,0 l/m² 0,0 km/h (0 Bft) W-NW 283 ° 0 min 0 W/m² -0,8 °C 1,4 °C 0,0 km/h (0 Bft)
02.02.2022 22:13 23,1 °C 1,4 °C 48 % 85 % 1020,7 hPa 0,0 l/m² 0,0 km/h (0 Bft) W-NW 283 ° 0 min 0 W/m² -0,8 °C 1,4 °C 0,0 km/h (0 Bft)
02.02.2022 22:15 23,1 °C 1,4 °C 48 % 85 % 1020,8 hPa 0,0 l/m² 0,0 km/h (0 Bft) W-NW 283 ° 0 min 0 W/m² -0,8 °C 1,4 °C 0,0 km/h (0 Bft)
02.02.2022 22:17 23,1 °C 1,3 °C 48 % 85 % 1020,8 hPa 0,0 l/m² 0,1 km/h (0 Bft) W-NW 283 ° 0 min 0 W/m² -0,9 °C 1,3 °C 3,2 km/h (1 Bft)
02.02.2022 22:19 23,1 °C 1,3 °C 48 % 85 % 1020,7 hPa 0,0 l/m² 1,1 km/h (1 Bft) W-NW 283 ° 0 min 0 W/m² -0,9 °C 1,3 °C 3,2 km/h (1 Bft)
02.02.2022 22:21 23,1 °C 1,3 °C 48 % 85 % 1020,7 hPa 0,0 l/m² 1,1 km/h (1 Bft) W-NW 283 ° 0 min 0 W/m² -0,9 °C 1,3 °C 3,2 km/h (1 Bft)
02.02.2022 22:22 23,1 °C 1,3 °C 48 % 85 % 1020,7 hPa 0,0 l/m² 1,9 km/h (1 Bft) W-NW 283 ° 0 min 0 W/m² -0,9 °C 1,3 °C 3,2 km/h (1 Bft)
02.02.2022 22:23 23,1 °C 1,3 °C 48 % 85 % 1020,9 hPa 0,0 l/m² 2,3 km/h (1 Bft) W-NW 283 ° 0 min 0 W/m² -0,9 °C 1,3 °C 3,2 km/h (1 Bft)
02.02.2022 22:25 23,1 °C 1,3 °C 48 % 86 % 1020,9 hPa 0,0 l/m² 1,5 km/h (1 Bft) W-NW 283 ° 0 min 0 W/m² -0,8 °C 1,3 °C 3,2 km/h (1 Bft)
02.02.2022 22:27 23,1 °C 1,3 °C 48 % 86 % 1020,8 hPa 0,0 l/m² 1,8 km/h (1 Bft) W-NW 283 ° 0 min 0 W/m² -0,8 °C 1,3 °C 3,2 km/h (1 Bft)
02.02.2022 22:29 23,1 °C 1,3 °C 48 % 86 % 1020,8 hPa 0,0 l/m² 0,0 km/h (0 Bft) W-NW 283 ° 0 min 0 W/m² -0,8 °C 1,3 °C 0,0 km/h (0 Bft)
02.02.2022 22:31 23,1 °C 1,3 °C 48 % 86 % 1020,9 hPa 0,0 l/m² 0,0 km/h (0 Bft) W-NW 283 ° 0 min 0 W/m² -0,8 °C 1,3 °C 0,0 km/h (0 Bft)
02.02.2022 22:32 23,1 °C 1,3 °C 48 % 86 % 1020,9 hPa 0,0 l/m² 0,0 km/h (0 Bft) W-NW 283 ° 0 min 0 W/m² -0,8 °C 1,3 °C 0,0 km/h (0 Bft)
02.02.2022 22:33 23,1 °C 1,3 °C 48 % 86 % 1020,9 hPa 0,0 l/m² 0,0 km/h (0 Bft) W-NW 283 ° 0 min 0 W/m² -0,8 °C 1,3 °C 0,0 km/h (0 Bft)
02.02.2022 22:35 23,1 °C 1,3 °C 48 % 86 % 1020,8 hPa 0,0 l/m² 0,0 km/h (0 Bft) W-NW 283 ° 0 min 0 W/m² -0,8 °C 1,3 °C 0,0 km/h (0 Bft)
02.02.2022 22:37 23,1 °C 1,3 °C 48 % 86 % 1020,8 hPa 0,0 l/m² 0,0 km/h (0 Bft) W-NW 283 ° 0 min 0 W/m² -0,8 °C 1,3 °C 0,0 km/h (0 Bft)
02.02.2022 22:39 23,1 °C 1,3 °C 48 % 86 % 1020,8 hPa 0,0 l/m² 0,0 km/h (0 Bft) W-NW 283 ° 0 min 0 W/m² -0,8 °C 1,3 °C 0,0 km/h (0 Bft)
02.02.2022 22:41 23,0 °C 1,3 °C 48 % 86 % 1020,8 hPa 0,0 l/m² 0,0 km/h (0 Bft) W-NW 283 ° 0 min 0 W/m² -0,8 °C 1,3 °C 0,0 km/h (0 Bft)
02.02.2022 22:42 23,0 °C 1,3 °C 48 % 86 % 1020,8 hPa 0,0 l/m² 0,0 km/h (0 Bft) W-NW 283 ° 0 min 0 W/m² -0,8 °C 1,3 °C 0,0 km/h (0 Bft)
02.02.2022 22:43 23,0 °C 1,3 °C 48 % 86 % 1020,9 hPa 0,0 l/m² 0,0 km/h (0 Bft) W-NW 283 ° 0 min 0 W/m² -0,8 °C 1,3 °C 0,0 km/h (0 Bft)
02.02.2022 22:45 23,0 °C 1,3 °C 48 % 86 % 1020,9 hPa 0,0 l/m² 0,0 km/h (0 Bft) W-NW 283 ° 0 min 0 W/m² -0,8 °C 1,3 °C 0,0 km/h (0 Bft)
02.02.2022 22:47 23,0 °C 1,2 °C 48 % 86 % 1020,9 hPa 0,0 l/m² 0,0 km/h (0 Bft) W-NW 283 ° 0 min 0 W/m² -0,9 °C 1,2 °C 0,0 km/h (0 Bft)
02.02.2022 22:49 23,1 °C 1,2 °C 48 % 86 % 1021,0 hPa 0,0 l/m² 0,0 km/h (0 Bft) W-NW 283 ° 0 min 0 W/m² -0,9 °C 1,2 °C 0,0 km/h (0 Bft)
02.02.2022 22:51 23,0 °C 1,2 °C 48 % 86 % 1020,9 hPa 0,0 l/m² 0,0 km/h (0 Bft) W-NW 283 ° 0 min 0 W/m² -0,9 °C 1,2 °C 0,0 km/h (0 Bft)
02.02.2022 22:52 23,0 °C 1,2 °C 48 % 86 % 1020,9 hPa 0,0 l/m² 0,0 km/h (0 Bft) W-NW 283 ° 0 min 0 W/m² -0,9 °C 1,2 °C 0,0 km/h (0 Bft)
02.02.2022 22:53 23,0 °C 1,2 °C 48 % 86 % 1020,9 hPa 0,0 l/m² 0,0 km/h (0 Bft) W-NW 283 ° 0 min 0 W/m² -0,9 °C 1,2 °C 0,0 km/h (0 Bft)
02.02.2022 22:55 23,0 °C 1,1 °C 48 % 86 % 1020,9 hPa 0,0 l/m² 0,0 km/h (0 Bft) W-NW 283 ° 0 min 0 W/m² -1,0 °C 1,1 °C 0,0 km/h (0 Bft)
02.02.2022 22:57 23,0 °C 1,1 °C 48 % 86 % 1021,0 hPa 0,0 l/m² 0,0 km/h (0 Bft) W-NW 283 ° 0 min 0 W/m² -1,0 °C 1,1 °C 0,0 km/h (0 Bft)
02.02.2022 22:59 23,0 °C 1,0 °C 48 % 85 % 1021,0 hPa 0,0 l/m² 0,0 km/h (0 Bft) W-NW 283 ° 0 min 0 W/m² -1,2 °C 1,0 °C 0,0 km/h (0 Bft)
02.02.2022 23:01 23,0 °C 0,9 °C 48 % 86 % 1020,9 hPa 0,0 l/m² 0,7 km/h (0 Bft) W-NW 283 ° 0 min 0 W/m² -1,2 °C 0,9 °C 3,2 km/h (1 Bft)
02.02.2022 23:02 23,0 °C 0,9 °C 48 % 86 % 1020,9 hPa 0,0 l/m² 0,7 km/h (0 Bft) W-NW 283 ° 0 min 0 W/m² -1,2 °C 0,9 °C 1,6 km/h (1 Bft)
02.02.2022 23:03 23,0 °C 0,9 °C 48 % 86 % 1021,0 hPa 0,0 l/m² 0,7 km/h (0 Bft) W-NW 283 ° 0 min 0 W/m² -1,2 °C 0,9 °C 1,6 km/h (1 Bft)
02.02.2022 23:05 23,0 °C 0,8 °C 48 % 86 % 1021,0 hPa 0,0 l/m² 0,0 km/h (0 Bft) W-NW 283 ° 0 min 0 W/m² -1,3 °C 0,8 °C 0,0 km/h (0 Bft)
02.02.2022 23:07 23,0 °C 0,8 °C 48 % 86 % 1021,0 hPa 0,0 l/m² 0,0 km/h (0 Bft) W-NW 283 ° 0 min 0 W/m² -1,3 °C 0,8 °C 0,0 km/h (0 Bft)
02.02.2022 23:09 23,0 °C 0,8 °C 48 % 86 % 1021,0 hPa 0,0 l/m² 0,5 km/h (0 Bft) W-NW 283 ° 0 min 0 W/m² -1,3 °C 0,8 °C 3,2 km/h (1 Bft)
02.02.2022 23:11 23,0 °C 0,8 °C 48 % 86 % 1021,1 hPa 0,0 l/m² 3,3 km/h (1 Bft) W-NW 283 ° 0 min 0 W/m² -1,3 °C 0,8 °C 4,8 km/h (1 Bft)
02.02.2022 23:12 23,0 °C 0,8 °C 48 % 86 % 1021,1 hPa 0,0 l/m² 3,6 km/h (1 Bft) W-NW 283 ° 0 min 0 W/m² -1,3 °C 0,8 °C 4,8 km/h (1 Bft)
02.02.2022 23:13 23,0 °C 0,8 °C 48 % 86 % 1021,1 hPa 0,0 l/m² 3,5 km/h (1 Bft) W-NW 283 ° 0 min 0 W/m² -1,3 °C 0,8 °C 4,8 km/h (1 Bft)
02.02.2022 23:15 23,0 °C 0,8 °C 48 % 86 % 1021,1 hPa 0,0 l/m² 3,1 km/h (1 Bft) W-NW 283 ° 0 min 0 W/m² -1,3 °C 0,8 °C 4,8 km/h (1 Bft)
02.02.2022 23:16 23,0 °C 0,8 °C 48 % 86 % 1021,1 hPa 0,0 l/m² 4,8 km/h (1 Bft) W 270 ° 0 min 0 W/m² -1,3 °C 0,8 °C 6,4 km/h (2 Bft)
02.02.2022 23:22 23,0 °C 0,8 °C 48 % 87 % 1021,2 hPa 0,0 l/m² 9,7 km/h (2 Bft) W 259 ° 0 min 0 W/m² -1,1 °C -2,3 °C 12,9 km/h (3 Bft)
02.02.2022 23:24 23,0 °C 0,9 °C 48 % 87 % 1021,2 hPa 0,0 l/m² 6,0 km/h (2 Bft) W-SW 252 ° 0 min 0 W/m² -1,0 °C 0,9 °C 11,3 km/h (2 Bft)
02.02.2022 23:25 23,0 °C 1,0 °C 48 % 87 % 1021,2 hPa 0,0 l/m² 5,5 km/h (2 Bft) W-SW 251 ° 0 min 0 W/m² -0,9 °C 1,0 °C 6,4 km/h (2 Bft)
02.02.2022 23:26 23,0 °C 1,0 °C 48 % 87 % 1021,2 hPa 0,0 l/m² 4,3 km/h (1 Bft) W-SW 251 ° 0 min 0 W/m² -0,9 °C 1,0 °C 6,4 km/h (2 Bft)
02.02.2022 23:28 23,0 °C 1,1 °C 48 % 87 % 1021,2 hPa 0,0 l/m² 3,7 km/h (1 Bft) W-SW 251 ° 0 min 0 W/m² -0,8 °C 1,1 °C 4,8 km/h (1 Bft)
02.02.2022 23:30 23,0 °C 1,1 °C 48 % 87 % 1021,2 hPa 0,0 l/m² 2,4 km/h (1 Bft) W-SW 251 ° 0 min 0 W/m² -0,8 °C 1,1 °C 4,8 km/h (1 Bft)
02.02.2022 23:31 23,0 °C 1,1 °C 48 % 87 % 1021,2 hPa 0,0 l/m² 3,4 km/h (1 Bft) W-SW 251 ° 0 min 0 W/m² -0,8 °C 1,1 °C 4,8 km/h (1 Bft)
02.02.2022 23:32 23,0 °C 1,1 °C 48 % 87 % 1021,2 hPa 0,0 l/m² 2,8 km/h (1 Bft) W-SW 251 ° 0 min 0 W/m² -0,8 °C 1,1 °C 4,8 km/h (1 Bft)
02.02.2022 23:33 23,0 °C 1,1 °C 48 % 87 % 1021,3 hPa 0,0 l/m² 3,6 km/h (1 Bft) W-SW 251 ° 0 min 0 W/m² -0,8 °C 1,1 °C 4,8 km/h (1 Bft)
02.02.2022 23:34 23,0 °C 1,1 °C 48 % 87 % 1021,4 hPa 0,0 l/m² 3,8 km/h (1 Bft) W-SW 251 ° 0 min 0 W/m² -0,8 °C 1,1 °C 6,4 km/h (2 Bft)
02.02.2022 23:36 23,0 °C 1,1 °C 48 % 87 % 1021,3 hPa 0,0 l/m² 4,3 km/h (1 Bft) W 274 ° 0 min 0 W/m² -0,8 °C 1,1 °C 6,4 km/h (2 Bft)
02.02.2022 23:38 23,0 °C 1,2 °C 48 % 87 % 1021,3 hPa 0,0 l/m² 4,5 km/h (1 Bft) W 267 ° 0 min 0 W/m² -0,7 °C 1,2 °C 6,4 km/h (2 Bft)
02.02.2022 23:40 23,0 °C 1,2 °C 48 % 87 % 1021,4 hPa 0,0 l/m² 3,2 km/h (1 Bft) W 270 ° 0 min 0 W/m² -0,7 °C 1,2 °C 4,8 km/h (1 Bft)
02.02.2022 23:41 23,0 °C 1,2 °C 48 % 87 % 1021,3 hPa 0,0 l/m² 1,9 km/h (1 Bft) W 270 ° 0 min 0 W/m² -0,7 °C 1,2 °C 4,8 km/h (1 Bft)
02.02.2022 23:42 23,0 °C 1,2 °C 48 % 87 % 1021,3 hPa 0,0 l/m² 3,9 km/h (1 Bft) W 270 ° 0 min 0 W/m² -0,7 °C 1,2 °C 4,8 km/h (1 Bft)
02.02.2022 23:43 23,1 °C 1,2 °C 48 % 87 % 1021,4 hPa 0,0 l/m² 5,0 km/h (1 Bft) W 270 ° 0 min 0 W/m² -0,7 °C 1,2 °C 6,4 km/h (2 Bft)
02.02.2022 23:44 23,0 °C 1,2 °C 48 % 87 % 1021,4 hPa 0,0 l/m² 4,7 km/h (1 Bft) W 270 ° 0 min 0 W/m² -0,7 °C 1,2 °C 6,4 km/h (2 Bft)
02.02.2022 23:46 23,0 °C 1,3 °C 48 % 87 % 1021,3 hPa 0,0 l/m² 5,5 km/h (2 Bft) W 270 ° 0 min 0 W/m² -0,6 °C 1,3 °C 6,4 km/h (2 Bft)
02.02.2022 23:48 23,1 °C 1,3 °C 48 % 87 % 1021,2 hPa 0,0 l/m² 5,4 km/h (2 Bft) W 270 ° 0 min 0 W/m² -0,6 °C 1,3 °C 6,4 km/h (2 Bft)
02.02.2022 23:50 23,1 °C 1,3 °C 48 % 87 % 1021,3 hPa 0,0 l/m² 5,9 km/h (2 Bft) W 270 ° 0 min 0 W/m² -0,6 °C 1,3 °C 9,7 km/h (2 Bft)
02.02.2022 23:51 23,1 °C 1,3 °C 48 % 86 % 1021,2 hPa 0,0 l/m² 4,1 km/h (1 Bft) W 270 ° 0 min 0 W/m² -0,8 °C 1,3 °C 6,4 km/h (2 Bft)
02.02.2022 23:52 23,1 °C 1,3 °C 48 % 86 % 1021,2 hPa 0,0 l/m² 3,8 km/h (1 Bft) W 270 ° 0 min 0 W/m² -0,8 °C 1,3 °C 4,8 km/h (1 Bft)
02.02.2022 23:53 23,0 °C 1,2 °C 48 % 86 % 1021,2 hPa 0,0 l/m² 3,2 km/h (1 Bft) W 270 ° 0 min 0 W/m² -0,9 °C 1,2 °C 4,8 km/h (1 Bft)
02.02.2022 23:54 23,1 °C 1,2 °C 48 % 86 % 1021,2 hPa 0,0 l/m² 3,3 km/h (1 Bft) W 270 ° 0 min 0 W/m² -0,9 °C 1,2 °C 4,8 km/h (1 Bft)
02.02.2022 23:56 23,1 °C 1,2 °C 48 % 86 % 1021,3 hPa 0,0 l/m² 3,1 km/h (1 Bft) W 262 ° 0 min 0 W/m² -0,9 °C 1,2 °C 6,4 km/h (2 Bft)
02.02.2022 23:58 23,0 °C 1,2 °C 48 % 86 % 1021,2 hPa 0,0 l/m² 4,4 km/h (1 Bft) W-SW 246 ° 0 min 0 W/m² -0,9 °C 1,2 °C 6,4 km/h (2 Bft)
02.02.2022 23:59 23,1 °C 1,2 °C 48 % 86 % 1021,3 hPa 0,0 l/m² 2,5 km/h (1 Bft) W-SW 246 ° 0 min 0 W/m² -0,9 °C 1,2 °C 3,2 km/h (1 Bft)
_ Min-Zeit 07:57 23:22 17:07 15:07 00:17 - 23:07 - - - - 23:16 04:10 23:07
Minimum _ 22,3 °C 0,8 °C 42 % 68 % 1004,1 hPa - 0,0 km/h (0 Bft) - - - - -1,3 °C -9,4 °C 0,0 km/h (0 Bft)
_ Max-Zeit 12:47 14:47 21:14 23:50 23:44 13:17 04:10 - - 11:46 12:43 00:03 20:15 10:14
Maximum _ 23,9 °C 7,6 °C 50 % 87 % 1021,4 hPa 0,2 l/m² 50,6 km/h
W (7 Bft)
- - 3 min 501 W/m² 3,3 °C 3,6 °C 66,0 km/h
W (8 Bft)
Durchschnitt _ 22,9 °C 5,1 °C 47 % 78 % 1012,2 hPa #0,2 l/m² 23,6 km/h (4 Bft) W - #7:01 h 66 W/m² 1,6 °C -3,2 °C 34,2 km/h (5 Bft)
© 2009 Mathias Hoßbach